[[{"header":{"parameterUnit":"m.s-1","parameterCategory":1,"la1":30.6,"la2":28.766,"lo1":-90.7593,"lo2":-88.6598,"dy":0.0162,"dx":0.0183,"nx":116,"ny":114,"refTime":"2024-07-02T00:00:00:Z","depth":0,"parameterNumber":2,"parameterNumberName":"U-component_of_WINDS"},"data":[0.0,0.0,0.0,0.0,0.0,0.0,0.0,0.0,0.0,0.0,0.0,0.0,0.0,0.0,0.0,0.0,0.0,0.0,0.0,0.0,0.0,0.0,0.0,0.0,0.0,0.0,0.0,0.0,0.0,0.0,0.0,0.0,0.0,0.0,0.0,0.0,0.0,0.0,0.0,0.0,0.0,0.0,0.0,0.0,0.0,0.0,0.0,0.0,0.0,0.0,0.0,0.0,0.0,0.0,0.0,0.0,0.0,0.0,0.0,0.0,0.0,0.0,0.0,0.0,0.0,0.0,0.0,0.0,0.0,0.0,0.0,0.0,0.0,0.0,0.0,0.0,0.0,0.0,0.0,0.0,0.0,0.0,0.0,0.0,0.0,0.0,0.0,0.0,0.0,0.0,0.0,0.0,0.0,0.0,0.0,0.0,0.0,0.0,0.0,0.0,0.0,0.0,0.0,0.0,0.0,0.0,0.0,0.0,0.0,0.0,0.0,0.0,0.0,0.0,0.0,0.0,0.0,0.0,0.0,0.0,0.0,0.0,0.0,0.0,0.0,0.0,0.0,0.0,0.0,0.0,0.0,0.0,0.0,0.0,0.0,0.0,0.0,0.0,0.0,0.0,0.0,0.0,0.0,0.0,0.0,0.0,0.0,0.0,0.0,0.0,0.0,0.0,0.0,0.0,0.0,0.0,0.0,0.0,0.0,0.0,0.0,0.0,0.0,0.0,0.0,0.0,0.0,0.0,0.0,0.0,0.0,0.0,0.0,0.0,0.0,0.0,0.0,0.0,0.0,0.0,0.0,0.0,0.0,0.0,0.0,0.0,0.0,0.0,0.0,0.0,0.0,0.0,0.0,0.0,0.0,0.0,0.0,0.0,0.0,0.0,0.0,0.0,0.0,0.0,0.0,0.0,0.0,0.0,0.0,0.0,0.0,0.0,0.0,0.0,0.0,0.0,0.0,0.0,0.0,0.0,0.0,0.0,0.0,0.0,0.0,0.0,0.0,0.0,0.0,0.0,0.0,0.0,0.0,0.0,0.0,0.0,0.0,0.0,0.0,0.0,0.0,0.0,0.0,0.0,0.0,0.0,0.0,0.0,0.0,0.0,0.0,0.0,0.0,0.0,0.0,0.0,0.0,0.0,0.0,0.0,0.0,0.0,0.0,0.0,0.0,0.0,0.0,0.0,0.0,0.0,0.0,0.0,0.0,0.0,0.0,0.0,0.0,0.0,0.0,0.0,0.0,0.0,0.0,0.0,0.0,0.0,0.0,0.0,0.0,0.0,0.0,0.0,0.0,0.0,0.0,0.0,0.0,0.0,0.0,0.0,0.0,0.0,0.0,0.0,0.0,0.0,0.0,0.0,0.0,0.0,0.0,0.0,0.0,0.0,0.0,0.0,0.0,0.0,0.0,0.0,0.0,0.0,0.0,0.0,0.0,0.0,0.0,0.0,0.0,0.0,0.0,0.0,0.0,0.0,0.0,0.0,0.0,0.0,0.0,0.0,0.0,0.0,0.0,0.0,0.0,0.0,0.0,0.0,0.0,0.0,0.0,0.0,0.0,0.0,0.0,0.0,0.0,0.0,0.0,0.0,0.0,0.0,0.0,0.0,0.0,0.0,0.0,0.0,0.0,0.0,0.0,0.0,0.0,0.0,0.0,0.0,0.0,0.0,0.0,0.0,0.0,0.0,0.0,0.0,0.0,0.0,0.0,0.0,0.0,0.0,0.0,0.0,0.0,0.0,0.0,0.0,0.0,0.0,0.0,0.0,0.0,0.0,0.0,0.0,0.0,0.0,0.0,0.0,0.0,0.0,0.0,0.0,0.0,0.0,0.0,0.0,0.0,0.0,0.0,0.0,0.0,0.0,0.0,0.0,0.0,0.0,0.0,0.0,0.0,0.0,0.0,0.0,0.0,0.0,0.0,0.0,0.0,0.0,0.0,0.0,0.0,0.0,0.0,0.0,0.0,0.0,0.0,0.0,0.0,0.0,0.0,0.0,0.0,0.0,0.0,0.0,0.0,0.0,0.0,0.0,0.0,0.0,0.0,0.0,0.0,0.0,0.0,0.0,0.0,0.0,0.0,0.0,0.0,0.0,0.0,0.0,0.0,0.0,0.0,0.0,0.0,0.0,0.0,0.0,0.0,0.0,0.0,0.0,0.0,0.0,0.0,0.0,0.0,0.0,0.0,0.0,0.0,0.0,0.0,0.0,0.0,0.0,0.0,0.0,0.0,0.0,0.0,0.0,0.0,0.0,0.0,0.0,0.0,0.0,0.0,0.0,0.0,0.0,0.0,0.0,0.0,0.0,0.0,0.0,0.0,0.0,0.0,0.0,0.0,0.0,0.0,0.0,0.0,0.0,0.0,0.0,0.0,0.0,0.0,0.0,0.0,0.0,0.0,0.0,0.0,0.0,0.0,0.0,0.0,0.0,0.0,0.0,0.0,0.0,0.0,0.0,0.0,0.0,0.0,0.0,0.0,0.0,0.0,0.0,0.0,0.0,0.0,0.0,0.0,0.0,0.0,0.0,0.0,0.0,0.0,0.0,0.0,0.0,0.0,0.0,0.0,0.0,0.0,0.0,0.0,0.0,0.0,0.0,0.0,0.0,0.0,0.0,0.0,0.0,0.0,0.0,0.0,0.0,0.0,0.0,0.0,0.0,0.0,0.0,0.0,0.0,0.0,0.0,0.0,0.0,0.0,0.0,0.0,0.0,0.0,0.0,0.0,0.0,0.0,0.0,0.0,0.0,0.0,0.0,0.0,0.0,0.0,0.0,0.0,0.0,0.0,0.0,0.0,0.0,0.0,0.0,0.0,0.0,0.0,0.0,0.0,0.0,0.0,0.0,0.0,0.0,0.0,0.0,0.0,0.0,0.0,0.0,0.0,0.0,0.0,0.0,0.0,0.0,0.0,0.0,0.0,0.0,0.0,0.0,0.0,0.0,0.0,0.0,0.0,0.0,0.0,0.0,0.0,0.0,0.0,0.0,0.0,0.0,0.0,0.0,0.0,0.0,0.0,0.0,0.0,0.0,0.0,0.0,0.0,0.0,0.0,0.0,0.0,0.0,0.0,0.0,0.0,0.0,0.0,0.0,0.0,0.0,0.0,0.0,0.0,0.0,0.0,0.0,0.0,0.0,0.0,0.0,0.0,0.0,0.0,0.0,0.0,0.0,0.0,0.0,0.0,0.0,0.0,0.0,0.0,0.0,0.0,0.0,0.0,0.0,0.0,0.0,0.0,0.0,0.0,0.0,0.0,0.0,0.0,0.0,0.0,0.0,0.0,0.0,0.0,0.0,0.0,0.0,0.0,0.0,0.0,0.0,0.0,0.0,0.0,0.0,0.0,0.0,0.0,0.0,0.0,0.0,0.0,0.0,0.0,0.0,0.0,0.0,0.0,0.0,0.0,0.0,0.0,0.0,0.0,0.0,0.0,0.0,0.0,0.0,0.0,0.0,0.0,0.0,0.0,0.0,0.0,0.0,0.0,0.0,0.0,0.0,0.0,0.0,0.0,0.0,0.0,0.0,0.0,0.0,0.0,0.0,0.0,0.0,0.0,0.0,0.0,0.0,0.0,0.0,0.0,0.0,0.0,0.0,0.0,0.0,0.0,0.0,0.0,0.0,0.0,0.0,0.0,0.0,0.0,0.0,0.0,0.0,0.0,0.0,0.0,0.0,0.0,0.0,0.0,0.0,0.0,0.0,0.0,0.0,0.0,0.0,0.0,0.0,0.0,0.0,0.0,0.0,0.0,0.0,0.0,0.0,0.0,0.0,0.0,0.0,0.0,0.0,0.0,0.0,0.0,0.0,0.0,0.0,0.0,0.0,0.0,0.0,0.0,0.0,0.0,0.0,0.0,0.0,0.0,0.0,0.0,0.0,0.0,0.0,0.0,0.0,0.0,0.0,0.0,0.0,0.0,0.0,0.0,0.0,0.0,0.0,0.0,0.0,0.0,0.0,0.0,0.0,0.0,0.0,0.0,0.0,0.0,0.0,0.0,0.0,0.0,0.0,0.0,0.0,0.0,0.0,0.0,0.0,0.0,0.0,0.0,0.0,0.0,0.0,0.0,0.0,0.0,0.0,0.0,0.0,0.0,0.0,0.0,0.0,0.0,0.0,0.0,0.0,0.0,0.0,0.0,0.0,0.0,0.0,0.0,0.0,0.0,0.0,0.0,0.0,0.0,0.0,0.0,0.0,0.0,0.0,0.0,0.0,0.0,0.0,0.0,0.0,0.0,0.0,0.0,0.0,0.0,0.0,0.0,0.0,0.0,0.0,0.0,0.0,0.0,0.0,0.0,0.0,0.0,0.0,0.0,0.0,0.0,0.0,0.0,0.0,0.0,0.0,0.0,0.0,0.0,0.0,0.0,0.0,0.0,0.0,0.0,0.0,0.0,0.0,0.0,0.0,0.0,0.0,0.0,0.0,0.0,0.0,0.0,0.0,0.0,0.0,0.0,0.0,0.0,0.0,0.0,0.0,0.0,0.0,0.0,0.0,0.0,0.0,0.0,0.0,0.0,0.0,0.0,0.0,0.0,0.0,0.0,0.0,0.0,0.0,0.0,0.0,0.0,0.0,0.0,0.0,0.0,0.0,0.0,0.0,0.0,0.0,0.0,0.0,0.0,0.0,0.0,0.0,0.0,0.0,0.0,0.0,0.0,0.0,0.0,0.0,0.0,0.0,0.0,0.0,0.0,0.0,0.0,0.0,0.0,0.0,0.0,0.0,0.0,0.0,0.0,0.0,0.0,0.0,0.0,0.0,0.0,0.0,0.0,0.0,0.0,0.0,0.0,0.0,0.0,0.0,0.0,0.0,0.0,0.0,0.0,0.0,0.0,0.0,0.0,0.0,0.0,0.0,0.0,0.0,0.0,0.0,0.0,0.0,0.0,0.0,0.0,0.0,0.0,0.0,0.0,0.0,0.0,0.0,0.0,0.0,0.0,0.0,0.0,0.0,0.0,0.0,0.0,0.0,0.0,0.0,0.0,0.0,0.0,0.0,0.0,0.0,0.0,0.0,0.0,0.0,0.0,0.0,0.0,0.0,0.0,0.0,0.0,0.0,0.0,0.0,0.0,0.0,0.0,0.0,0.0,0.0,0.0,0.0,0.0,0.0,0.0,0.0,0.0,0.0,0.0,0.0,0.0,0.0,0.0,0.0,0.0,0.0,0.0,0.0,0.0,0.0,0.0,0.0,0.0,0.0,0.0,0.0,0.0,0.0,0.0,0.0,0.0,0.0,0.0,0.0,0.0,0.0,0.0,0.0,0.0,0.0,0.0,0.0,0.0,0.0,0.0,0.0,0.0,0.0,0.0,0.0,0.0,0.0,0.0,0.0,0.0,0.0,0.0,0.0,0.0,0.0,0.0,0.0,0.0,0.0,0.0,0.0,0.0,0.0,0.0,0.0,0.0,0.0,0.0,0.0,0.0,0.0,0.0,0.0,0.0,0.0,0.0,0.0,0.0,0.0,0.0,0.0,0.0,0.0,0.0,0.0,0.0,0.0,0.0,0.0,0.0,0.0,0.0,0.0,0.0,0.0,0.0,0.0,0.0,0.0,0.0,0.0,0.0,0.0,0.0,0.0,0.0,0.0,0.0,0.0,0.0,0.0,0.0,0.0,0.0,0.0,0.0,0.0,0.0,0.0,0.0,0.0,0.0,0.0,0.0,0.0,0.0,0.0,0.0,0.0,0.0,0.0,0.0,0.0,0.0,0.0,0.0,0.0,0.0,0.0,0.0,0.0,0.0,0.0,0.0,0.0,0.0,0.0,0.0,0.0,0.0,0.0,0.0,0.0,0.0,0.0,0.0,0.0,0.0,0.0,0.0,0.0,0.0,0.0,0.0,0.0,0.0,0.0,0.0,0.0,0.0,0.0,0.0,0.0,0.0,0.0,0.0,0.0,0.0,0.0,0.0,0.0,0.0,0.0,0.0,0.0,0.0,0.0,0.0,0.0,0.0,0.0,0.0,0.0,0.0,0.0,0.0,0.0,0.0,0.0,0.0,0.0,0.0,0.0,0.0,0.0,0.0,0.0,0.0,0.0,0.0,0.0,0.0,0.0,0.0,0.0,0.0,0.0,0.0,0.0,0.0,0.0,-2.0872,0.0,0.0,0.0,0.0,0.0,0.0,0.0,0.0,0.0,0.0,0.0,0.0,0.0,0.0,0.0,0.0,0.0,0.0,0.0,0.0,0.0,0.0,0.0,0.0,-0.9971,-0.9915,-0.985,-0.9815,-0.9784,-0.975,0.0,0.0,0.0,0.0,0.0,-1.0105,-1.0061,-1.0216,-1.057,-1.0904,-1.1457,-1.2219,-1.2233,-1.1662,-1.0559,0.0,0.0,0.0,0.0,0.0,0.0,0.0,0.0,0.0,0.0,0.0,0.0,0.0,0.0,0.0,0.0,0.0,0.0,0.0,0.0,0.0,0.0,0.0,0.0,0.0,0.0,0.0,0.0,0.0,0.0,0.0,0.0,0.0,0.0,0.0,0.0,0.0,0.0,0.0,0.0,0.0,0.0,0.0,0.0,0.0,0.0,0.0,0.0,0.0,0.0,0.0,0.0,0.0,0.0,0.0,0.0,0.0,0.0,0.0,0.0,0.0,0.0,0.0,0.0,0.0,0.0,0.0,0.0,0.0,0.0,0.0,-2.3667,0.0,0.0,0.0,0.0,0.0,0.0,0.0,0.0,0.0,0.0,0.0,0.0,0.0,0.0,0.0,0.0,0.0,0.0,0.0,0.0,0.0,-0.9253,-0.9892,-0.9912,-0.99,-0.9968,-0.9835,-0.9791,-0.9879,-0.9813,0.0,0.0,0.0,-1.0004,-1.0084,-1.0173,-1.0608,-1.1386,-1.1697,-1.2654,-1.4254,-1.5005,-1.479,-1.3747,-1.3255,0.0,0.0,0.0,0.0,0.0,0.0,0.0,0.0,0.0,0.0,0.0,0.0,0.0,0.0,0.0,0.0,0.0,0.0,0.0,0.0,0.0,0.0,0.0,0.0,0.0,0.0,0.0,0.0,0.0,0.0,0.0,0.0,0.0,0.0,0.0,0.0,0.0,0.0,0.0,0.0,0.0,0.0,0.0,0.0,0.0,0.0,0.0,0.0,0.0,0.0,0.0,0.0,0.0,0.0,0.0,0.0,0.0,0.0,0.0,0.0,0.0,0.0,0.0,-3.1875,-3.2734,-3.4082,-3.4238,-3.4316,-3.4101,-3.0409,-2.8456,-2.7695,-2.5077,0.0,0.0,0.0,0.0,0.0,0.0,0.0,0.0,0.0,0.0,0.0,0.0,0.0,0.0,0.0,0.0,0.0,0.0,0.0,-0.983,-0.9819,-0.9767,-0.9986,-1.0616,-1.0027,-0.9913,-1.0612,-1.0066,0.0,0.0,-0.9871,-0.9952,-1.0001,-1.0687,-1.1412,-1.2162,-1.4176,-1.5993,-1.7562,-1.7857,-1.8301,-1.8728,-1.5994,-1.4412,-1.3832,0.0,0.0,0.0,0.0,0.0,0.0,0.0,0.0,0.0,0.0,0.0,0.0,0.0,0.0,0.0,0.0,0.0,0.0,0.0,0.0,0.0,0.0,0.0,0.0,0.0,0.0,0.0,0.0,0.0,0.0,0.0,0.0,0.0,0.0,0.0,0.0,0.0,0.0,0.0,0.0,0.0,-1.654,-1.8398,0.0,0.0,0.0,0.0,0.0,0.0,0.0,0.0,0.0,0.0,0.0,0.0,0.0,-3.0351,-3.1328,-3.2891,-3.3867,-3.4219,-3.5723,-3.6562,-3.6816,-3.7578,-3.791,-3.7832,-3.6523,0.0,-3.1309,-2.8691,0.0,0.0,0.0,0.0,0.0,0.0,0.0,0.0,0.0,0.0,0.0,0.0,0.0,0.0,0.0,0.0,0.0,0.0,0.0,0.0,0.0,-1.0273,-1.0544,-1.1237,-1.1023,-1.0791,-1.0682,-1.0413,-1.0113,-0.9764,-0.98,-1.0091,-1.0661,-1.1452,-1.2875,-1.494,-1.6904,-1.8474,-1.9612,-2.0264,-2.0828,-2.1215,-1.9936,-1.8424,-1.6742,-1.5888,0.0,0.0,0.0,0.0,0.0,0.0,0.0,0.0,0.0,0.0,0.0,0.0,0.0,0.0,0.0,0.0,0.0,0.0,0.0,0.0,0.0,0.0,0.0,0.0,0.0,0.0,0.0,0.0,0.0,0.0,0.0,0.0,0.0,0.0,0.0,0.0,0.0,0.0,0.0,-1.6768,-1.9353,-2.0605,-2.0762,-2.0605,0.0,0.0,0.0,0.0,0.0,0.0,0.0,0.0,0.0,-3.0547,-3.3125,-3.4922,-3.5781,-3.75,-3.8574,-3.9043,-3.9805,-4.043,-4.0918,-4.1289,-4.1465,-4.1426,-4.0547,-3.9316,-3.7617,-3.3574,-3.1601,-3.0879,0.0,0.0,0.0,0.0,-2.5293,-2.6855,0.0,0.0,0.0,0.0,0.0,0.0,0.0,0.0,0.0,0.0,0.0,0.0,-1.063,-1.0995,-1.1484,-1.2179,-1.2109,-1.1872,0.0,0.0,-1.0454,-0.9951,-1.0031,-1.0429,-1.1132,-1.2738,-1.492,-1.7675,-1.9313,-2.0537,-2.1384,-2.217,-2.2713,-2.3063,-2.3264,-2.197,-1.9561,-1.8166,-1.6986,0.0,0.0,0.0,0.0,0.0,0.0,0.0,0.0,0.0,0.0,0.0,0.0,0.0,0.0,0.0,0.0,0.0,0.0,0.0,0.0,0.0,0.0,0.0,0.0,0.0,0.0,0.0,0.0,0.0,0.0,0.0,0.0,0.0,0.0,0.0,0.0,0.0,0.0,-1.9468,-2.1658,-2.2734,-2.3066,-2.3281,0.0,0.0,0.0,0.0,0.0,0.0,-2.8574,-3.1113,-3.3203,-3.4687,-3.7246,-3.8926,-3.957,-4.1074,-4.2148,-4.2734,-4.2734,-4.3066,-4.3691,-4.3691,-4.3691,-4.3652,-4.3008,-4.2734,-4.2383,-3.7871,-3.5527,-3.4512,-3.2402,-3.1035,-3.0195,-2.9531,-3.0254,-3.166,0.0,0.0,0.0,0.0,0.0,0.0,0.0,0.0,0.0,0.0,0.0,-1.0703,-1.0621,0.0,-1.2892,-1.3625,-1.3061,-1.2962,0.0,0.0,-1.0596,-1.0561,-1.0737,-1.0903,-1.1009,-1.4786,-1.7651,-1.9472,-2.1018,-2.2261,-2.3162,-2.3344,-2.3944,-2.4885,-2.5011,-2.3731,-2.1404,-2.0573,-1.9262,-1.7622,0.0,0.0,0.0,0.0,0.0,0.0,0.0,0.0,0.0,0.0,0.0,0.0,0.0,0.0,0.0,0.0,0.0,0.0,0.0,0.0,0.0,0.0,0.0,0.0,0.0,0.0,0.0,0.0,0.0,0.0,0.0,0.0,0.0,0.0,0.0,0.0,0.0,0.0,0.0,-2.5312,-2.623,0.0,0.0,0.0,0.0,-2.9082,-3.0098,-3.1348,-3.2988,-3.5566,-3.7402,-3.8301,-4.0801,-4.2168,-4.2207,-4.3125,-4.3594,-4.3633,-4.3633,-4.3652,-4.3691,-4.3691,-4.3691,-4.3691,-4.3652,-4.3633,-4.3437,-4.0742,-3.9121,-3.8242,-3.7285,-3.6387,-3.5605,-3.5566,-3.6133,-3.6914,0.0,0.0,0.0,-0.8871,-0.9238,-0.9624,-1.0116,-1.0118,-0.9996,-0.986,-1.0323,-1.0804,0.0,-1.2438,-1.3586,-1.4384,-1.4194,-1.3982,-1.3846,0.0,-1.1812,-1.1391,-1.1528,-1.262,-1.4812,-1.7285,-1.9631,-2.1861,-2.2457,-2.3215,-2.4137,-2.4363,-2.4689,-2.5062,-2.519,-2.4817,-2.3966,-2.2587,-2.105,-1.9361,-1.7683,-1.599,0.0,0.0,0.0,0.0,0.0,0.0,0.0,0.0,0.0,0.0,0.0,0.0,0.0,0.0,0.0,0.0,0.0,0.0,0.0,0.0,0.0,0.0,0.0,0.0,0.0,0.0,0.0,0.0,0.0,0.0,0.0,0.0,0.0,0.0,0.0,0.0,0.0,-2.8008,-2.9473,0.0,-3.0781,-3.1504,-3.2207,-3.2832,-3.4726,-3.6113,-3.6719,-3.918,-4.0723,-4.1035,-4.3008,-4.4062,-4.4062,-4.4941,-4.5371,-4.5371,-4.5371,-4.5371,-4.5371,-4.5371,-4.5371,-4.5371,-4.5371,-4.5371,-4.5293,-4.4394,-4.2832,-4.1016,-4.0703,-4.0078,-3.9355,-3.9355,-3.9863,-4.0586,-0.6825,-0.7056,0.0,-0.8399,-0.8802,-0.9277,-1.0088,-1.0087,-0.9961,-0.9813,-1.0491,-1.1227,-1.1803,-1.3395,-1.4718,-1.547,-1.534,-1.502,-1.4562,0.0,-1.273,-1.258,-1.3272,-1.4952,-1.7754,-1.9398,-2.1176,-2.3127,-2.3471,-2.3993,-2.4719,-2.4907,-2.505,-2.5143,-2.5241,-2.5317,-2.5288,-2.4211,-2.2946,-2.1544,-1.988,-1.8219,-1.6619,0.0,0.0,0.0,0.0,0.0,0.0,0.0,0.0,0.0,0.0,0.0,0.0,0.0,0.0,0.0,0.0,0.0,0.0,0.0,0.0,0.0,0.0,0.0,0.0,0.0,0.0,0.0,0.0,0.0,0.0,0.0,0.0,0.0,0.0,0.0,-2.9277,-3.0703,-3.2422,-3.3711,-3.4297,-3.5351,-3.6269,-3.6855,-3.875,-3.9883,-3.9883,-4.2031,-4.3281,-4.3281,-4.4687,-4.5449,-4.5449,-4.6016,-4.6308,-4.6308,-4.6308,-4.6308,-4.6308,-4.6308,-4.6308,-4.6308,-4.6308,-4.6308,-4.6308,-4.6308,-4.5273,-4.3691,-4.3398,-4.2773,-4.2031,-4.2031,-4.2383,-4.2832,-0.5093,-0.5776,-0.6634,-0.7534,-0.8398,-0.9235,-1.0077,-1.008,-0.9942,-0.9813,-1.0968,-1.1979,-1.2511,-1.4619,-1.6249,-1.688,-1.6361,-1.6,-1.5975,-1.4034,-1.3274,-1.4185,-1.5985,-1.7766,-1.9431,-2.1025,-2.2291,-2.3246,-2.4095,-2.4642,-2.4898,-2.498,-2.5074,-2.5212,-2.5282,-2.5302,-2.5313,-2.5369,-2.4942,-2.4093,-2.2518,-2.0862,-1.9283,0.0,0.0,0.0,0.0,0.0,0.0,0.0,0.0,0.0,0.0,0.0,0.0,0.0,0.0,0.0,0.0,0.0,0.0,0.0,0.0,0.0,0.0,0.0,0.0,0.0,0.0,0.0,0.0,0.0,0.0,0.0,0.0,0.0,-2.7012,-3.0097,-3.2597,-3.3418,-3.5078,-3.6836,-3.8516,-3.873,-3.9453,-4.1152,-4.2031,-4.248,-4.248,-4.4101,-4.5039,-4.5039,-4.5859,-4.6308,-4.6308,-4.6308,-4.6308,-4.6308,-4.6308,-4.6308,-4.6308,-4.6308,-4.6308,-4.6308,-4.6308,-4.6308,-4.6308,-4.6308,-4.6308,-4.6211,-4.5371,-4.4512,-4.3789,-4.3789,-4.3789,-4.3789,-0.5096,-0.5292,-0.5937,-0.7441,-0.7889,-0.8538,-0.999,-1.0033,-0.9884,-0.9745,-1.0856,-1.1701,-1.1783,-1.4224,-1.5726,-1.5418,-1.5738,-1.5766,-1.537,-1.4899,-1.5314,-1.6857,-1.8019,-1.9413,-2.1111,-2.2152,-2.3133,-2.4077,-2.442,-2.4681,-2.4895,-2.5025,-2.5132,-2.5262,-2.5288,-2.5332,-2.5365,-2.5395,-2.5298,-2.5056,-2.4032,-2.2601,-2.1095,0.0,0.0,0.0,0.0,0.0,0.0,0.0,0.0,0.0,0.0,0.0,0.0,0.0,0.0,0.0,0.0,0.0,0.0,0.0,0.0,0.0,0.0,0.0,0.0,0.0,0.0,0.0,0.0,0.0,0.0,0.0,0.0,-3.0273,-2.9883,-3.2246,-3.4551,-3.6055,-3.832,-3.9961,-4.0449,-4.1582,-4.25,-4.2988,-4.3808,-4.4297,-4.4297,-4.5332,-4.5937,-4.5937,-4.6172,-4.6308,-4.6308,-4.6308,-4.6308,-4.6308,-4.6308,-4.6308,-4.6308,-4.6308,-4.6308,-4.6308,-4.6308,-4.6308,-4.6308,-4.6308,-4.6308,-4.6289,-4.6035,-4.5801,-4.5586,-4.5586,-4.5586,-4.5586,-0.5096,-0.5097,-0.5644,-0.7402,-0.7706,-0.8249,-0.9911,-1.0003,-0.9849,-0.9715,-1.0832,-1.1736,-1.1982,-1.4057,-1.5401,-1.5341,-1.5479,-1.5582,-1.5642,-1.6435,-1.7395,-1.8499,-1.9996,-2.1274,-2.2281,-2.3088,-2.3796,-2.4401,-2.453,-2.4712,-2.4948,-2.5043,-2.519,-2.5346,-2.5341,-2.537,-2.5406,-2.5429,-2.5483,-2.5502,-2.5039,-2.4069,-2.2889,-2.2926,-2.1543,-1.9586,-1.9595,-1.8711,-1.7324,-1.5951,0.0,0.0,0.0,0.0,0.0,0.0,0.0,0.0,0.0,0.0,0.0,0.0,0.0,0.0,0.0,0.0,0.0,0.0,0.0,0.0,0.0,0.0,0.0,0.0,-3.2617,-3.4961,-3.5176,-3.6172,-3.7383,-3.8769,-4.0566,-4.1992,-4.2715,-4.3672,-4.4394,-4.4766,-4.5254,-4.5547,-4.5547,-4.6016,-4.6308,-4.6308,-4.6308,-4.6308,-4.6308,-4.6308,-4.6308,-4.6308,-4.6308,-4.6308,-4.6308,-4.6308,-4.6308,-4.6308,-4.6308,-4.6308,-4.6308,-4.6308,-4.6308,0.0,0.0,0.0,0.0,0.0,-4.6308,-4.6308,-0.5116,-0.5176,-0.5761,-0.7419,-0.7777,-0.8354,-0.9861,-0.9987,-0.9851,-0.9713,-1.0782,-1.1795,-1.2385,-1.3828,-1.5025,-1.5662,-1.5348,-1.5494,0.0,-1.8125,-1.9267,-1.9565,-2.1715,-2.2978,-2.3134,-2.3823,-2.4266,-2.4398,-2.4537,-2.4742,-2.5,-2.508,-2.5212,-2.5398,-2.5398,-2.5468,-2.5553,-2.5631,-2.568,-2.5757,-2.5755,-2.5276,-2.4549,-2.4548,-2.3535,-2.2084,-2.2088,-2.1515,-2.0654,-1.9789,0.0,0.0,0.0,0.0,0.0,0.0,0.0,0.0,0.0,0.0,0.0,0.0,0.0,0.0,0.0,0.0,0.0,0.0,0.0,0.0,0.0,0.0,0.0,0.0,-3.6758,-3.9492,-4.123,-4.082,-4.0625,-4.1387,-4.2207,-4.3301,-4.4844,-4.5098,-4.5469,-4.623,-4.6308,-4.6308,-4.6308,0.0,0.0,0.0,0.0,-4.6308,-4.6308,-4.6308,-4.6308,-4.6308,-4.6308,-4.6308,-4.6308,-4.6308,-4.6308,-4.6308,-4.6308,-4.6308,-4.6308,-4.6308,-4.6308,-4.6308,-4.6308,-4.6308,-4.6308,-4.6308,-4.6308,-4.6308,-0.5234,-0.5664,-0.6483,-0.7512,-0.8276,-0.9045,-0.9971,-0.9982,-0.9852,-0.971,-1.0303,-1.0768,-1.0843,-1.268,-1.3803,-1.3468,-1.4515,-1.5614,0.0,0.0,-1.9868,-2.1272,-2.2401,-2.3299,-2.3951,-2.4118,-2.4275,-2.4398,-2.4594,-2.4794,-2.5,-2.5122,-2.5252,-2.5398,-2.5397,-2.582,-2.6535,-2.6534,-2.6587,-2.666,-2.67,-2.6205,-2.5454,-2.5449,-2.48,-2.389,-2.3832,-2.3268,-2.2374,-2.1502,-2.0682,-1.9813,-1.866,0.0,0.0,0.0,0.0,0.0,0.0,0.0,0.0,0.0,0.0,0.0,0.0,0.0,0.0,0.0,0.0,0.0,0.0,0.0,0.0,-3.6914,-3.9336,-4.1289,-4.2988,-4.3066,-4.3027,-4.3203,-4.3965,-4.4629,-4.4961,-4.5644,-4.6113,-4.6289,-4.6308,-4.6308,-4.6308,-4.6308,-4.6308,-4.6308,-4.6308,-4.6308,-4.6308,-4.6308,-4.6308,-4.6308,0.0,0.0,-4.6308,-4.6308,-4.6308,-4.6308,-4.6308,-4.6308,-4.6308,-4.6308,-4.6308,-4.6308,-4.6308,-4.6308,-4.6308,-4.6308,-4.6308,-4.6308,-0.6403,-0.6754,-0.7318,-0.8189,-0.8681,-0.9215,-0.9975,-1.0015,-0.9874,-0.9666,-1.0159,-1.0477,-1.041,-1.1748,-1.2692,-1.2842,-1.4777,0.0,0.0,-1.9374,-2.1064,-2.2336,-2.318,-2.3786,-2.419,-2.4201,-2.4275,-2.4451,-2.4618,-2.4816,-2.5044,-2.5145,-2.5259,-2.541,-2.5886,-2.638,-2.6879,-2.7325,-2.7285,-2.6946,-2.6998,-2.6479,-2.5701,-2.5702,-2.5419,-2.5003,-2.4955,-2.4679,-2.4226,-2.3796,-2.3123,-2.2302,-2.1469,-1.9721,-1.7753,0.0,0.0,0.0,0.0,0.0,0.0,0.0,0.0,0.0,0.0,0.0,0.0,0.0,0.0,-2.9043,-3.168,0.0,-3.6894,-3.9473,-4.1699,-4.3398,-4.4238,-4.4726,-4.4844,-4.4394,-4.4726,-4.5176,-4.5605,-4.6035,-4.6308,-4.6308,-4.6308,-4.6308,-4.6308,-4.6308,-4.6308,-4.6308,-4.6308,-4.6308,-4.6308,-4.6308,-4.6308,-4.6308,-4.6308,-4.6308,-4.6308,-4.6308,-4.6308,-4.6308,-4.6308,-4.6308,-4.6308,-4.6308,-4.6308,-4.6308,-4.6308,-4.6308,-4.6308,-4.6308,-4.6308,-4.6308,-0.7789,-0.8064,-0.8359,-0.8882,-0.9085,-0.9367,-0.9999,-1.0034,-0.9904,-0.9658,-1.001,-1.026,-1.0198,-1.0901,-1.1801,0.0,0.0,0.0,0.0,-2.0376,-2.2116,-2.2978,-2.3796,-2.4218,-2.4218,-2.4247,-2.4329,-2.4528,-2.4673,-2.4884,-2.51,-2.5185,-2.5279,-2.5429,-2.6195,-2.6675,-2.6952,-2.7663,-2.759,-2.7002,-2.701,-2.6484,-2.57,-2.5697,-2.5642,-2.5603,-2.5587,-2.5576,-2.5589,-2.5585,-2.5155,-2.4518,-2.3829,-2.2455,-2.0819,-1.9414,-1.8262,0.0,0.0,0.0,0.0,0.0,0.0,0.0,0.0,0.0,-2.9492,-3.0195,-3.2383,-3.4687,-3.6445,-3.8613,-4.0547,-4.1738,-4.3652,-4.5058,-4.5234,-4.5859,-4.6035,-4.5332,-4.5254,-4.5527,-4.623,-4.6308,-4.6308,-4.6308,-4.6308,-4.6308,-4.6308,-4.6308,-4.6308,-4.6308,-4.6308,-4.6308,-4.6308,-4.6308,-4.6308,-4.6308,-4.6308,-4.6308,-4.6308,-4.6308,-4.6308,-4.6308,-4.6308,-4.6308,-4.6308,-4.6308,-4.6308,-4.6308,-4.6308,-4.6308,-4.6308,-4.6308,-4.6308,-4.6308,-0.8742,-0.9388,-0.9708,-0.9037,-0.9539,-1.0058,-1.0096,-1.0039,-0.9926,-0.9721,-0.9587,-0.9493,-0.9433,-1.0136,-1.1286,0.0,0.0,0.0,0.0,-2.0447,-2.2184,-2.3047,-2.386,-2.4294,-2.4294,-2.4419,-2.452,-2.4591,-2.4844,-2.5006,-2.5103,-2.5233,-2.5336,-2.541,-2.557,-2.6115,-2.6903,-2.7075,-2.7074,-2.7009,-2.6992,-2.6482,-2.5688,-2.5632,-2.5609,-2.56,-2.5531,-2.551,-2.551,-2.5515,-2.549,-2.547,-2.5424,-2.4229,-2.2791,-2.2656,0.0,-2.0332,-2.1113,-2.2402,0.0,-2.666,-2.7441,-2.8027,0.0,0.0,-3.2851,-3.2949,-3.5059,-3.7402,-3.9141,-4.0332,-4.1836,-4.4199,-4.4805,-4.5273,-4.6055,-4.623,-4.6269,-4.6172,-4.6152,-4.6191,-4.6289,-4.6308,-4.6308,-4.6308,-4.6308,-4.6308,-4.6308,-4.6308,-4.6308,-4.6308,-4.6308,-4.6308,-4.6308,-4.6308,-4.6308,-4.6308,-4.6308,-4.6308,-4.6308,-4.6308,-4.6308,-4.6308,-4.6308,-4.6308,-4.6308,-4.6308,-4.6308,-4.6308,-4.6308,-4.6308,-4.6308,-4.6308,-4.6308,-4.6308,-0.9573,-0.9941,-1.0097,-0.9725,-0.9963,-1.0181,-1.0109,-1.0032,-0.9936,-0.9724,-0.9559,-0.9439,-0.937,-1.011,-1.1129,-1.2412,-1.4001,-1.5901,-1.8111,-2.007,-2.175,-2.3105,-2.392,-2.4383,-2.4428,-2.452,-2.4607,-2.4723,-2.4902,-2.5043,-2.516,-2.5288,-2.5393,-2.5489,-2.6068,-2.6556,-2.6986,-2.7527,-2.7458,-2.6992,-2.6991,-2.6453,-2.5647,-2.5613,-2.559,-2.5522,-2.5464,-2.5132,0.0,0.0,-2.4794,-2.4857,-2.4919,-2.4797,-2.451,-2.4043,-2.3379,0.0,-2.3867,0.0,0.0,0.0,-3.1309,-3.248,-3.4238,-3.5566,-3.6562,-3.707,-3.8047,-3.9336,-4.1035,-4.207,-4.3164,0.0,-4.543,-4.5879,-4.625,-4.6308,-4.6308,-4.6308,-4.6308,-4.6308,-4.6308,-4.6308,-4.6308,-4.6308,-4.6308,-4.6308,-4.6308,-4.6308,-4.6308,-4.6308,-4.6308,-4.6308,-4.6308,-4.6308,-4.6308,-4.6308,-4.6308,-4.6308,-4.6308,-4.6308,-4.6308,-4.6308,-4.6308,-4.6308,-4.6308,-4.6308,-4.6308,-4.6308,-4.6308,-4.6308,-4.6308,-4.6308,-4.6308,-4.6308,-1.0094,-1.0205,-1.0199,-1.0203,-1.0191,-1.0182,-1.0101,-1.0037,-0.9928,-0.972,-0.9594,-0.9495,-0.9412,-0.9973,-1.0743,-1.1668,-1.323,-1.5261,-1.7838,-1.9523,-2.1273,-2.3191,-2.3849,0.0,-2.4575,-2.4662,-2.476,-2.4861,-2.5006,-2.5145,-2.5253,-2.5373,-2.5468,-2.5553,-2.6247,-2.6583,-2.6687,-2.732,-2.7226,-2.664,-2.6634,-2.6226,-2.5605,-2.5573,-2.5396,-2.5132,-2.5074,-2.4687,0.0,0.0,-2.3905,-2.4029,-2.4316,-2.4838,-2.5253,-2.4863,-2.4922,-2.541,-2.6777,0.0,0.0,-3.2754,-3.4336,-3.5879,-3.7617,-3.8516,-3.9219,-4.0078,-4.0254,-4.0703,-4.2148,-4.293,-4.3711,-4.4824,-4.5527,-4.6035,-4.6269,-4.6308,-4.6308,-4.6308,-4.6308,-4.6308,-4.6308,-4.6308,-4.6308,-4.6308,-4.6308,-4.6308,-4.6308,-4.6308,-4.6308,-4.6308,-4.6308,-4.6308,-4.6308,-4.6543,-4.666,-4.666,-4.6894,-4.7012,-4.7012,-4.7012,-4.6894,-4.666,-4.666,-4.6523,-4.6308,-4.6308,-4.6308,-4.6308,-4.6308,-4.6308,-4.6308,-4.6308,-4.6308,-4.6308,-1.0203,-1.0191,-1.0201,-1.021,-1.0208,-1.0175,-1.0106,-1.0042,-0.9936,-0.972,-0.9643,-0.9549,-0.9412,-0.9488,-0.9896,-1.0767,-1.2375,-1.445,-1.7067,-1.8802,-2.0856,-2.3377,-2.3571,-2.3995,-2.4771,-2.4914,-2.498,-2.4994,-2.5193,-2.5336,-2.5394,-2.546,-2.5534,-2.5601,-2.5634,-2.5672,-2.5733,-2.5779,-2.5762,-2.5741,-2.5733,-2.5672,-2.5595,-2.5532,-2.4974,-2.4223,-2.4164,0.0,0.0,0.0,-2.3028,-2.3285,-2.412,-2.4428,0.0,-2.543,-2.6269,0.0,0.0,0.0,-3.2734,-3.5254,-3.6562,-3.7676,-3.9414,-3.9844,-4.0117,-4.0976,-4.1152,-4.1406,-4.2246,-4.2422,-4.3008,-4.4726,-4.5019,-4.5332,-4.6172,-4.6308,-4.6308,-4.6308,-4.6308,-4.6308,0.0,-4.6308,-4.6308,-4.6308,-4.6308,-4.6308,-4.6308,-4.6308,-4.6308,-4.6308,-4.6308,-4.6308,-4.6308,-4.7148,-4.7558,-4.7578,-4.8418,-4.8828,-4.8828,-4.8828,-4.8359,-4.7558,-4.7558,-4.707,-4.6308,-4.6308,-4.6308,-4.6308,-4.6308,-4.6308,-4.6308,-4.6308,-4.6308,-4.6308,-1.0195,-1.0199,-1.0186,-1.0142,-1.0125,-1.0101,-1.0037,-1.0008,-0.9938,-0.9777,-0.9635,0.0,0.0,0.0,0.0,0.0,-1.1451,-1.2885,-1.5499,-1.6732,-1.8502,-2.1065,-2.1713,-2.2425,-2.3322,-2.337,-2.3713,-2.4342,-2.4452,-2.4801,-2.5401,-2.5501,-2.5574,-2.5595,-2.5647,-2.5689,-2.57,-2.5703,-2.5703,-2.57,-2.5709,-2.5662,-2.5535,-2.4884,-2.4423,-2.3909,0.0,0.0,0.0,0.0,-2.2168,0.0,-2.3265,0.0,0.0,-2.6133,0.0,0.0,0.0,0.0,-3.5195,-3.7226,-3.8379,-3.9336,-4.0508,-4.0762,-4.0684,-4.0391,-4.0332,-4.043,-4.0684,-4.1211,-4.1973,-4.3086,-4.4258,-4.5098,-4.5391,-4.5937,-4.6308,-4.6308,-4.6308,0.0,0.0,0.0,0.0,-4.6308,-4.6308,-4.6308,-4.6308,-4.6308,-4.6562,-4.7148,-4.7168,-4.7441,-4.8027,-4.832,-4.8457,-4.8476,-4.8769,-4.8906,-4.8906,-4.8906,-4.873,-4.8457,-4.8457,-4.7969,-4.7168,-4.7168,-4.6816,-4.6308,-4.6308,-4.6308,-4.6308,-4.6308,-4.6308,-4.6308,-1.0203,-1.0198,-1.0194,-1.0149,-1.0117,0.0,0.0,0.0,0.0,0.0,0.0,0.0,0.0,0.0,0.0,0.0,0.0,-1.1884,-1.3901,-1.5153,-1.6799,-1.9049,-1.9935,-2.0956,-2.2175,-2.2206,-2.2652,-2.3568,-2.3645,-2.396,-2.4538,-2.4666,-2.4702,-2.4706,-2.4749,-2.4936,-2.5234,-2.5234,-2.5233,-2.5248,-2.5233,-2.5007,-2.4603,-2.3967,-2.3318,0.0,0.0,0.0,0.0,0.0,0.0,0.0,0.0,0.0,0.0,0.0,0.0,-3.1699,0.0,-3.5215,-3.7266,-3.8711,-3.9726,-4.0508,-4.1074,-4.0957,-4.0488,-3.9629,-3.9199,-3.8887,-3.8555,-3.9219,-4.0176,-4.1328,-4.2949,-4.4297,-4.4902,-4.5742,-4.6308,-4.6308,-4.6308,-4.6308,0.0,0.0,0.0,-4.6308,-4.6308,-4.6445,-4.6758,-4.6758,-4.7168,-4.8047,-4.8066,-4.832,-4.8887,-4.9219,-4.9512,-4.9785,-4.9785,-4.9785,-4.9785,-4.9785,-4.9648,-4.9355,-4.9355,-4.8867,-4.8047,-4.7734,-4.7266,-4.6738,-4.6426,-4.6308,-4.6308,-4.6308,-4.6308,-4.6308,-1.0213,-1.0202,-1.0205,0.0,0.0,0.0,0.0,0.0,0.0,0.0,0.0,0.0,0.0,0.0,0.0,0.0,0.0,0.0,-1.2382,0.0,0.0,-1.7339,-1.8248,-1.9507,-2.1208,-2.1299,-2.1736,-2.2601,-2.268,-2.2772,-2.2879,-2.2948,-2.2962,-2.2964,-2.302,-2.3494,-2.4277,-2.4316,-2.4333,-2.4327,-2.4287,-2.3727,-2.2916,-2.2763,0.0,0.0,0.0,0.0,0.0,0.0,0.0,0.0,0.0,0.0,0.0,0.0,0.0,-3.2949,-3.5508,-3.7402,-3.8887,-3.9805,-4.0586,-4.1133,-4.1133,-4.043,-3.9512,-3.8652,-3.7734,-3.6855,0.0,0.0,-3.7734,-3.9473,-4.125,-4.2988,-4.4687,-4.5723,-4.6308,0.0,0.0,0.0,0.0,0.0,0.0,-4.6426,0.0,-4.6738,-4.7558,-4.7637,-4.8066,-4.8945,-4.8965,-4.8984,-4.9023,-4.9844,-5.0644,-5.1406,-5.1406,-5.1406,-5.1406,-5.1406,-5.0976,-5.0254,-5.0254,-4.9766,-4.8906,-4.8066,-4.7676,-4.7519,-4.6699,-4.6348,-4.6308,-4.6308,-4.6308,-4.6308,0.0,0.0,0.0,0.0,0.0,0.0,0.0,0.0,0.0,0.0,0.0,0.0,0.0,0.0,0.0,0.0,0.0,0.0,0.0,0.0,0.0,0.0,0.0,0.0,-1.7751,-1.8403,0.0,0.0,0.0,-2.0478,-2.1138,-2.1147,-2.1189,0.0,-2.1913,-2.2324,-2.2578,-2.3182,-2.3432,-2.3365,0.0,-2.2286,-2.1891,0.0,0.0,0.0,0.0,0.0,0.0,0.0,0.0,0.0,0.0,0.0,-3.0272,0.0,0.0,-3.5605,-3.8203,-3.9238,-3.9922,-4.1406,-4.0996,-4.0234,-4.0234,-3.9043,-3.7715,-3.6836,-3.5449,-3.4336,-3.4101,0.0,0.0,-3.7676,-4.0469,0.0,-4.3887,-4.5332,0.0,0.0,0.0,-4.6562,-4.7207,-4.7266,0.0,0.0,-4.7637,-4.7363,-4.7598,-4.8223,-4.8965,-4.9844,-4.9863,-5.0156,-5.0762,-5.0976,-5.1191,-5.1406,-5.1406,-5.1406,-5.1406,-5.1406,-5.1289,-5.1094,-5.1094,-5.0625,-4.9844,-4.9629,-4.8769,-4.7578,-4.7363,-4.6875,-4.6308,-4.6308,-4.6308,-4.6308,0.0,0.0,0.0,0.0,0.0,0.0,0.0,0.0,0.0,0.0,0.0,0.0,0.0,0.0,0.0,0.0,0.0,0.0,0.0,0.0,0.0,0.0,0.0,0.0,-1.5379,-1.5886,0.0,0.0,0.0,0.0,0.0,-1.9397,-1.9427,-1.9471,-1.9961,-2.0409,-2.0799,0.0,0.0,0.0,0.0,0.0,0.0,0.0,0.0,0.0,0.0,0.0,0.0,0.0,0.0,-2.652,-2.8157,-3.0204,-3.2321,-3.4041,0.0,-3.7637,-3.9863,-4.0723,-4.1211,-4.2168,-4.1426,-4.0273,-3.9492,-3.7676,-3.5801,-3.457,-3.2949,0.0,0.0,0.0,0.0,0.0,0.0,0.0,-4.3535,-4.5195,-4.6308,0.0,-4.6641,0.0,-4.7558,-4.7949,-4.8379,0.0,-4.8457,-4.834,-4.8711,-4.9199,-4.9863,-5.0703,-5.0723,-5.0937,-5.1406,-5.1406,-5.1406,-5.1406,-5.1406,-5.1406,-5.1406,-5.1406,-5.1406,-5.1406,0.0,-5.1133,-5.0703,-5.0351,-4.9629,-4.8672,-4.7891,-4.7305,-4.6816,-4.6445,-4.6308,-4.6308,0.0,0.0,0.0,0.0,0.0,0.0,0.0,0.0,0.0,0.0,0.0,0.0,0.0,0.0,0.0,0.0,0.0,0.0,0.0,0.0,0.0,0.0,0.0,0.0,0.0,0.0,0.0,0.0,0.0,0.0,0.0,0.0,0.0,0.0,0.0,0.0,0.0,0.0,0.0,0.0,0.0,0.0,0.0,0.0,0.0,0.0,0.0,0.0,0.0,0.0,-2.5641,-2.7678,-3.018,-3.2239,-3.4075,-3.5837,-3.7499,-3.918,-4.1035,-4.1953,-4.2422,-4.2539,-4.1797,-4.0547,-3.8672,-3.623,-3.3887,-3.2207,0.0,0.0,-2.9414,0.0,-3.2695,-3.5234,0.0,-4.1445,-4.3125,-4.4961,-4.6133,-4.6133,-4.6992,-4.7656,-4.7754,-4.8555,-4.9121,-4.9219,-4.9238,-4.9512,-5.0176,-5.0293,-5.0683,-5.1387,-5.1406,-5.1406,-5.1406,-5.1406,-5.1406,-5.1406,-5.1406,-5.1406,-5.1406,-5.1406,-5.1406,-5.1406,-5.1406,-5.1406,-5.1348,-5.0644,-5.0293,-5.0039,-4.8418,-4.7695,-4.748,-4.6621,-4.6308,-4.6308,0.0,0.0,0.0,0.0,0.0,0.0,0.0,0.0,0.0,0.0,-0.9739,0.0,0.0,0.0,0.0,0.0,0.0,0.0,0.0,0.0,0.0,0.0,0.0,0.0,0.0,0.0,0.0,0.0,0.0,0.0,0.0,0.0,0.0,0.0,0.0,0.0,0.0,0.0,0.0,0.0,0.0,0.0,0.0,0.0,0.0,0.0,0.0,0.0,0.0,0.0,-2.6866,-2.9302,-3.1198,-3.3487,-3.5825,-3.7624,-3.8863,-4.0194,-4.2617,-4.2832,-4.2578,-4.3281,-4.1797,-3.9473,-3.7012,-3.4473,0.0,0.0,0.0,-2.7676,-2.8398,-2.9355,0.0,-3.3437,0.0,0.0,0.0,0.0,-4.5234,0.0,0.0,0.0,0.0,0.0,0.0,0.0,0.0,-5.0742,-5.0234,-5.082,-5.1269,-5.1406,-5.1406,-5.1406,-5.1406,-5.1406,-5.1406,-5.1406,-5.1406,-5.1406,-5.1406,-5.1406,-5.1406,-5.1406,-5.1406,0.0,-5.1387,-5.125,-5.0801,-5.0098,-4.9062,-4.8223,-4.748,-4.6621,-4.6308,-4.6308,0.0,0.0,0.0,0.0,0.0,0.0,0.0,0.0,0.0,0.0,-1.0864,-1.0857,0.0,0.0,0.0,0.0,0.0,0.0,0.0,0.0,0.0,0.0,0.0,0.0,0.0,0.0,0.0,0.0,0.0,0.0,0.0,0.0,0.0,0.0,0.0,0.0,0.0,0.0,0.0,0.0,0.0,0.0,0.0,0.0,0.0,0.0,0.0,0.0,0.0,0.0,-2.618,-2.8551,-3.1642,-3.4136,-3.6241,-3.8025,-3.9192,-4.035,-4.2441,-4.2715,-4.25,-4.293,-4.1113,-3.8535,-3.5918,0.0,0.0,0.0,0.0,-2.5371,-2.6699,0.0,0.0,0.0,0.0,0.0,0.0,0.0,0.0,0.0,0.0,0.0,0.0,0.0,0.0,0.0,0.0,-5.123,-5.0859,-5.1191,-5.1406,-5.1406,-5.1406,-5.1406,-5.1406,-5.1406,-5.1406,-5.1406,-5.1406,-5.1406,-5.1406,-5.1406,-5.1406,-5.1406,-5.1406,-5.1406,-5.1406,-5.1406,-5.1172,-5.0703,-4.9394,-4.8633,-4.8125,-4.6797,-4.6308,-4.6308,0.0,0.0,0.0,0.0,0.0,0.0,0.0,-1.0598,-1.1111,-1.1116,-1.1936,-1.1945,-1.046,-1.0355,-1.0347,0.0,0.0,0.0,0.0,0.0,0.0,0.0,0.0,0.0,0.0,0.0,0.0,0.0,0.0,0.0,0.0,0.0,0.0,0.0,0.0,0.0,0.0,0.0,0.0,0.0,0.0,0.0,0.0,0.0,0.0,0.0,0.0,0.0,0.0,0.0,-2.4854,-2.6841,-3.0819,-3.3576,-3.57,-3.7429,-3.8739,-3.9998,-4.1679,-4.2266,-4.2363,-4.2187,-4.0351,-3.7812,-3.4844,-3.1113,0.0,0.0,0.0,-2.3574,-2.5137,0.0,0.0,0.0,0.0,0.0,0.0,0.0,0.0,0.0,0.0,0.0,0.0,0.0,0.0,0.0,0.0,0.0,-5.1406,-5.1406,-5.1406,-5.1406,-5.1406,-5.1406,-5.1406,-5.1406,-5.1406,-5.1406,-5.1406,-5.1406,-5.1406,-5.1406,-5.1406,-5.1406,-5.1406,-5.1406,-5.1406,-5.1406,-5.1406,-5.125,-4.9766,-4.9062,-4.8711,-4.7148,-4.6465,-4.6308,0.0,0.0,0.0,0.0,0.0,0.0,0.0,-1.0628,-1.1197,-1.1184,-1.2006,-1.2252,-1.1367,-1.1321,-1.1068,0.0,0.0,0.0,0.0,0.0,0.0,0.0,0.0,0.0,0.0,0.0,0.0,0.0,0.0,0.0,0.0,0.0,0.0,0.0,0.0,0.0,0.0,0.0,0.0,0.0,0.0,0.0,0.0,0.0,0.0,0.0,0.0,0.0,0.0,0.0,0.0,-2.4825,-2.7593,-3.0812,-3.3874,-3.5633,0.0,0.0,-4.0838,-4.1836,-4.2226,-4.1484,-3.9941,-3.7519,-3.3379,0.0,0.0,0.0,-2.3769,-2.3398,-2.4336,-2.5234,0.0,0.0,0.0,0.0,0.0,0.0,0.0,0.0,0.0,0.0,0.0,0.0,0.0,0.0,0.0,0.0,-5.1406,-5.1406,-5.1406,-5.1406,-5.1406,-5.1406,-5.1406,-5.1406,-5.1406,-5.1406,-5.1406,-5.1406,-5.1406,-5.1406,-5.1406,-5.1406,-5.1406,-5.1406,0.0,-5.1406,-5.1406,-5.1308,-5.043,-4.9609,-4.8789,-4.7832,-4.6973,-4.6308,0.0,0.0,0.0,0.0,0.0,0.0,0.0,-1.0677,-1.1215,-1.125,-1.2493,-1.2886,-1.1599,-1.1942,-1.1746,0.0,0.0,0.0,0.0,0.0,0.0,0.0,0.0,0.0,0.0,0.0,0.0,0.0,0.0,0.0,0.0,0.0,0.0,0.0,0.0,0.0,0.0,0.0,0.0,0.0,0.0,0.0,0.0,0.0,0.0,0.0,0.0,0.0,0.0,0.0,0.0,0.0,-2.5043,-2.7064,0.0,0.0,-3.6031,-3.7533,-3.9803,-4.0644,-4.082,-4.0508,-3.8711,-3.6191,-3.2949,0.0,0.0,-2.4102,-2.2988,-2.2637,-2.3457,-2.4336,-2.5488,0.0,-2.9277,0.0,0.0,0.0,0.0,0.0,0.0,0.0,0.0,0.0,0.0,0.0,0.0,0.0,-5.1406,-5.1406,-5.1406,-5.1406,-5.1406,-5.1406,-5.1406,-5.1406,-5.1406,-5.1406,-5.1406,-5.1406,-5.1406,-5.1406,-5.1406,-5.1406,-5.1406,-5.1406,0.0,-5.1406,-5.1406,-5.1328,-5.0508,-4.9668,-4.8789,-4.793,-4.7051,-4.6308,0.0,0.0,0.0,0.0,0.0,0.0,-1.0032,-1.0712,-1.1256,-1.1319,-1.2618,-1.3018,-1.1647,-1.2066,-1.1865,-1.0424,0.0,0.0,0.0,0.0,0.0,0.0,0.0,0.0,0.0,0.0,0.0,0.0,0.0,0.0,0.0,0.0,0.0,0.0,0.0,0.0,0.0,0.0,0.0,0.0,0.0,0.0,0.0,0.0,0.0,0.0,0.0,0.0,0.0,0.0,0.0,0.0,0.0,0.0,0.0,0.0,-3.392,-3.5424,-3.8044,-3.8925,-3.9062,-3.8809,-3.7168,-3.4883,0.0,0.0,-2.5605,-2.3906,-2.2852,-2.2519,-2.332,-2.3984,-2.4961,0.0,-2.8242,-3.0117,-3.2676,0.0,0.0,0.0,0.0,0.0,0.0,0.0,0.0,0.0,0.0,0.0,-5.1406,-5.1406,-5.1406,-5.1406,-5.1406,-5.1406,-5.1406,-5.1406,-5.1406,-5.1406,-5.1406,-5.1406,-5.1406,-5.1406,-5.1406,-5.1406,-5.1406,-5.1406,0.0,-5.1406,-5.1406,-5.1348,-5.0781,-4.9883,-4.8828,-4.8203,-4.7266,-4.6308,0.0,0.0,0.0,0.0,0.0,0.0,0.0,-1.0778,-1.1319,-1.1389,-1.2175,-1.2405,-1.1595,-1.157,-1.1265,-1.037,0.0,0.0,0.0,0.0,0.0,0.0,0.0,0.0,0.0,0.0,0.0,0.0,0.0,0.0,0.0,0.0,0.0,0.0,0.0,0.0,0.0,0.0,0.0,0.0,0.0,0.0,0.0,0.0,0.0,0.0,0.0,0.0,0.0,0.0,0.0,0.0,0.0,0.0,0.0,0.0,-3.0789,-3.2705,-3.5327,-3.6678,-3.7129,-3.6269,-3.5371,-3.3828,0.0,-2.8262,-2.6484,-2.4746,-2.3691,-2.3359,-2.4238,-2.4394,-2.4961,-2.6719,-2.7734,-2.9238,0.0,0.0,0.0,0.0,0.0,0.0,0.0,0.0,0.0,0.0,0.0,0.0,-5.1406,-5.1406,-5.1406,-5.1406,-5.1406,-5.1406,-5.1406,-5.1406,-5.1406,-5.1406,-5.1406,-5.1406,-5.1406,-5.1406,-5.1406,-5.1406,0.0,-5.1406,0.0,-5.1406,-5.1406,-5.1406,-5.1387,-5.0371,-4.8906,-4.8887,-4.7793,-4.6308,0.0,0.0,0.0,0.0,0.0,0.0,0.0,-1.0356,-1.056,-1.0584,-1.1343,-1.1577,-1.0776,-1.1228,-1.1249,-1.0371,0.0,0.0,0.0,0.0,0.0,0.0,0.0,0.0,0.0,0.0,0.0,0.0,0.0,0.0,0.0,0.0,0.0,0.0,0.0,0.0,0.0,0.0,0.0,0.0,0.0,0.0,0.0,0.0,0.0,0.0,0.0,0.0,0.0,0.0,0.0,0.0,0.0,0.0,0.0,-2.4541,-2.7207,0.0,-3.3356,-3.4413,-3.457,-3.4297,-3.3594,-3.2246,-2.9375,-2.6894,-2.5078,-2.4512,-2.373,-2.3418,-2.4258,-2.4883,-2.5664,-2.6816,-2.8223,0.0,0.0,0.0,0.0,0.0,0.0,0.0,0.0,0.0,0.0,0.0,0.0,0.0,-5.1406,-5.1406,-5.1406,-5.1406,-5.1406,-5.1406,-5.1406,-5.1406,-5.1406,-5.1406,-5.1406,-5.1406,-5.1406,-5.1406,-5.1406,0.0,0.0,-5.1406,-5.1406,-5.1406,-5.1406,-5.1406,-5.1406,-5.0742,-4.9726,-4.9121,-4.8164,-4.7109,0.0,0.0,0.0,0.0,0.0,0.0,0.0,-1.0161,-1.0206,-1.0233,-1.0709,-1.0853,-1.0351,-1.0781,-1.0898,-1.0352,0.0,0.0,0.0,0.0,0.0,0.0,0.0,0.0,0.0,0.0,0.0,0.0,0.0,0.0,0.0,0.0,0.0,0.0,0.0,0.0,0.0,0.0,0.0,0.0,0.0,0.0,-1.6003,0.0,0.0,0.0,0.0,0.0,0.0,0.0,0.0,0.0,0.0,0.0,0.0,0.0,-2.4167,-2.6696,0.0,-3.1484,-3.1543,-3.1875,-3.1582,-3.0527,-2.793,-2.6055,-2.4707,-2.4082,-2.3789,-2.3809,-2.4316,-2.5371,-2.6484,-2.7344,0.0,0.0,0.0,0.0,0.0,0.0,0.0,0.0,0.0,0.0,0.0,0.0,0.0,0.0,-5.1406,-5.1406,-5.1406,-5.1406,-5.1406,-5.1406,-5.1406,-5.1406,-5.1406,-5.1406,-5.1406,-5.1406,-5.1406,-5.1406,-5.1406,0.0,0.0,-5.1406,0.0,-5.1406,-5.1406,-5.1406,-5.1406,-5.0918,-5.0137,-4.959,-4.8848,-4.8008,0.0,0.0,0.0,0.0,0.0,0.0,0.0,0.0,0.0,0.0,-1.0309,-1.0291,-1.0293,-1.0293,-1.0293,0.0,0.0,0.0,0.0,0.0,0.0,0.0,0.0,0.0,0.0,0.0,0.0,0.0,-1.633,-1.7249,-1.8099,0.0,0.0,0.0,0.0,0.0,0.0,0.0,0.0,0.0,0.0,-1.5192,0.0,0.0,0.0,0.0,0.0,0.0,0.0,0.0,0.0,0.0,0.0,0.0,0.0,0.0,0.0,0.0,0.0,-2.7988,-2.8301,-2.9121,-2.9375,-2.875,-2.6191,-2.5566,0.0,-2.3594,-2.3828,-2.4355,-2.4473,-2.5879,-2.7285,-2.8164,0.0,0.0,0.0,0.0,0.0,0.0,0.0,0.0,0.0,0.0,0.0,0.0,0.0,0.0,-5.1211,-5.1211,-5.1211,-5.1211,-5.1289,-5.1348,-5.1406,-5.1406,-5.1406,-5.1406,-5.1406,-5.1406,-5.1406,-5.1406,-5.1406,0.0,-5.1406,-5.1406,-5.1406,-5.1406,-5.1406,-5.1406,-5.1406,-5.0937,-5.0273,-5.0215,-4.9687,-4.8984,0.0,0.0,0.0,0.0,0.0,0.0,0.0,0.0,0.0,0.0,-1.0292,-1.0293,-1.0291,-1.0293,0.0,0.0,0.0,0.0,0.0,0.0,0.0,0.0,0.0,0.0,0.0,0.0,0.0,-1.5406,-1.6943,-1.8136,-1.8981,-1.9,0.0,0.0,0.0,0.0,0.0,0.0,0.0,0.0,-1.5195,-1.5192,0.0,0.0,0.0,0.0,-1.6253,-1.6756,0.0,0.0,0.0,0.0,0.0,0.0,0.0,0.0,-2.0845,-2.1265,-2.2949,0.0,-2.6367,-2.6562,-2.7129,-2.7109,0.0,-2.4199,-2.3789,-2.4062,0.0,-2.3808,-2.5155,-2.6268,-2.7285,0.0,0.0,0.0,0.0,0.0,0.0,0.0,0.0,0.0,0.0,0.0,0.0,0.0,0.0,-4.9492,-4.9492,-4.9492,-4.9492,-4.9492,-5.0137,-5.0781,-5.1387,-5.1406,-5.1406,-5.1406,-5.1406,-5.1406,-5.1406,-5.1406,-5.1406,-5.1406,-5.1406,-5.1406,-5.1406,-5.1406,-5.1406,-5.1406,-5.1406,-5.1289,-5.1035,-5.043,-5.0078,-4.9805,0.0,0.0,0.0,0.0,0.0,0.0,0.0,0.0,0.0,0.0,0.0,0.0,0.0,0.0,0.0,0.0,0.0,0.0,0.0,0.0,0.0,0.0,0.0,0.0,0.0,0.0,0.0,0.0,0.0,-1.8838,0.0,0.0,0.0,0.0,0.0,0.0,0.0,0.0,0.0,0.0,-1.5195,0.0,0.0,0.0,0.0,0.0,-1.5734,-1.6157,0.0,-1.7968,-1.8672,-1.9155,0.0,0.0,0.0,0.0,-2.0551,-2.0796,-2.166,-2.3203,-2.4648,-2.5019,-2.5762,-2.6055,-2.4707,0.0,0.0,0.0,0.0,-2.41,-2.5446,0.0,0.0,0.0,0.0,0.0,0.0,0.0,0.0,0.0,0.0,0.0,0.0,0.0,0.0,0.0,0.0,-4.8906,-4.8906,-4.8906,-4.8906,-4.8906,-4.9355,-5.0,-5.084,-5.1211,-5.1406,-5.1406,-5.1406,-5.1406,-5.1406,-5.1406,-5.1406,-5.1406,-5.1406,-5.1406,-5.1406,-5.1406,-5.1406,-5.1406,-5.1406,-5.1406,-5.1348,-5.0918,-5.0742,-5.0683,0.0,0.0,0.0,0.0,0.0,0.0,0.0,0.0,0.0,0.0,0.0,0.0,0.0,0.0,0.0,0.0,0.0,0.0,0.0,0.0,0.0,0.0,0.0,0.0,0.0,0.0,0.0,0.0,0.0,0.0,0.0,0.0,0.0,0.0,0.0,0.0,0.0,0.0,0.0,0.0,0.0,0.0,0.0,0.0,0.0,0.0,0.0,0.0,0.0,-1.7237,-1.8091,-1.8978,-1.9903,0.0,0.0,0.0,0.0,0.0,-2.166,-2.2539,-2.3418,-2.4355,-2.5254,-2.5703,-2.4961,0.0,0.0,0.0,0.0,0.0,0.0,0.0,0.0,0.0,0.0,0.0,0.0,0.0,0.0,0.0,0.0,0.0,0.0,0.0,0.0,0.0,0.0,-4.8496,-4.8496,-4.8496,-4.8496,-4.8496,-4.8633,-4.9062,-4.9805,-5.0742,-5.1211,-5.1211,-5.1348,-5.1406,-5.1406,-5.1406,-5.1406,-5.1406,0.0,0.0,-5.1406,-5.1406,-5.1406,-5.1406,-5.1406,-5.1406,-5.1406,-5.1406,-5.1406,-5.1406,0.0,0.0,0.0,0.0,0.0,0.0,0.0,0.0,0.0,0.0,0.0,0.0,0.0,0.0,0.0,0.0,0.0,0.0,0.0,0.0,0.0,0.0,0.0,0.0,0.0,0.0,0.0,0.0,0.0,0.0,-2.1874,-2.1756,-2.0527,0.0,0.0,0.0,0.0,0.0,0.0,0.0,0.0,0.0,0.0,0.0,0.0,0.0,0.0,0.0,0.0,-1.6388,-1.7237,-1.8062,-1.9,0.0,0.0,0.0,0.0,0.0,-2.166,-2.248,-2.3496,-2.5098,-2.6152,-2.6777,-2.6621,0.0,0.0,0.0,0.0,0.0,0.0,0.0,0.0,0.0,0.0,0.0,0.0,0.0,0.0,0.0,0.0,0.0,0.0,0.0,0.0,0.0,0.0,-4.6699,-4.6699,-4.6699,-4.6699,-4.6699,-4.7402,-4.7851,-4.8008,-4.959,-5.0371,-5.0391,-5.1074,-5.1406,-5.1406,-5.1406,-5.1406,-5.1406,0.0,-5.1406,-5.1406,-5.1406,-5.1406,-5.1406,-5.1406,-5.1406,-5.1406,-5.1406,-5.1406,-5.1406,0.0,0.0,0.0,0.0,0.0,0.0,0.0,0.0,0.0,0.0,0.0,0.0,0.0,0.0,0.0,0.0,0.0,0.0,0.0,0.0,0.0,0.0,0.0,0.0,0.0,0.0,0.0,0.0,0.0,-2.1268,-2.2558,-2.2558,-2.0918,-1.7985,0.0,0.0,0.0,0.0,0.0,0.0,0.0,0.0,0.0,0.0,0.0,0.0,0.0,0.0,0.0,0.0,-1.7026,-1.7866,-1.8791,0.0,0.0,0.0,0.0,0.0,-2.2246,-2.2852,-2.373,-2.6426,-2.7051,-2.7129,-2.7598,0.0,0.0,0.0,0.0,0.0,0.0,0.0,0.0,0.0,0.0,0.0,0.0,0.0,0.0,0.0,0.0,0.0,0.0,0.0,0.0,0.0,0.0,0.0,-4.6308,-4.6308,-4.6308,-4.6308,-4.6699,-4.6894,-4.6894,-4.8164,-4.9023,-4.9492,-4.9863,-5.0058,-5.0058,-5.0058,-5.0058,-5.0078,0.0,-5.0742,-5.0781,-5.1211,-5.1406,-5.1406,-5.1406,-5.1406,-5.1406,-5.1406,-5.1406,-5.1406,0.0,0.0,0.0,0.0,0.0,0.0,0.0,0.0,0.0,0.0,0.0,0.0,0.0,0.0,0.0,0.0,0.0,0.0,0.0,0.0,0.0,0.0,0.0,0.0,0.0,0.0,0.0,-1.9609,-2.0664,-2.1757,-2.2812,-2.2617,-2.0898,0.0,0.0,0.0,0.0,0.0,0.0,-1.5211,0.0,0.0,0.0,0.0,0.0,0.0,0.0,0.0,0.0,0.0,0.0,0.0,0.0,0.0,0.0,-2.0482,-2.0546,-2.0949,-2.248,-2.3008,-2.3887,-2.7187,-2.7656,-2.7637,-2.8926,0.0,0.0,0.0,0.0,0.0,0.0,0.0,0.0,0.0,0.0,0.0,0.0,0.0,0.0,0.0,0.0,0.0,0.0,0.0,0.0,0.0,0.0,0.0,-4.6308,-4.6308,-4.6308,-4.6308,-4.6308,-4.6308,-4.6308,-4.6953,-4.7734,-4.8594,-4.8808,-4.8906,-4.8906,-4.8906,-4.8906,-4.8945,-4.9609,-4.9902,-4.9941,-5.0566,-5.0801,-5.0801,-5.0801,-5.0937,-5.1133,-5.1328,-5.1406,-5.1406,0.0,0.0,0.0,0.0,0.0,0.0,0.0,0.0,0.0,0.0,0.0,0.0,0.0,0.0,0.0,0.0,0.0,0.0,0.0,0.0,0.0,0.0,0.0,0.0,0.0,-1.7751,-1.951,-2.0507,-2.2129,-2.2598,-2.1973,-2.1152,-1.9785,-1.7966,0.0,0.0,0.0,0.0,0.0,-1.5299,-1.522,0.0,0.0,0.0,0.0,0.0,0.0,0.0,0.0,0.0,0.0,0.0,0.0,0.0,-2.0415,-2.0482,-2.0546,-2.0792,-2.1738,-2.2539,-2.373,-2.6426,-2.7656,0.0,-3.1348,-3.2559,0.0,-3.4179,0.0,0.0,0.0,0.0,0.0,0.0,0.0,0.0,0.0,0.0,0.0,0.0,0.0,0.0,0.0,0.0,0.0,0.0,0.0,0.0,-4.6308,-4.6308,-4.6308,-4.6308,-4.6308,-4.6308,-4.6308,-4.6367,-4.6836,-4.7695,-4.8516,-4.8906,-4.8906,-4.8906,-4.8906,-4.8906,-4.8965,-4.8984,-4.9004,-4.9062,-4.9082,-4.9082,-4.9082,-4.957,-5.0371,-5.1113,-5.1406,-5.1406,0.0,0.0,0.0,0.0,0.0,0.0,0.0,0.0,0.0,0.0,0.0,0.0,0.0,0.0,0.0,0.0,0.0,0.0,0.0,0.0,0.0,0.0,0.0,-1.3602,-1.5298,-1.7408,-1.9151,-2.0537,-2.1756,-2.2207,-2.1875,-2.1016,0.0,0.0,0.0,0.0,0.0,0.0,0.0,-1.5295,-1.5268,-1.5264,0.0,0.0,0.0,0.0,0.0,0.0,0.0,0.0,-1.5984,-1.7055,-1.762,-1.862,-1.9706,-2.0313,-2.0516,-2.0843,-2.2264,-2.2871,-2.3867,-2.7012,-2.8457,0.0,0.0,-3.4023,-3.543,-3.6836,0.0,0.0,0.0,0.0,0.0,0.0,0.0,0.0,0.0,0.0,0.0,0.0,0.0,0.0,0.0,0.0,0.0,0.0,0.0,0.0,-4.6308,-4.6308,-4.6308,-4.6308,-4.6308,-4.6308,-4.6308,-4.6308,-4.6465,-4.6797,-4.7129,-4.7285,-4.7285,-4.7285,-4.7285,-4.7305,-4.7851,-4.8086,-4.8125,-4.8672,-4.8906,-4.8906,-4.8906,-4.9433,-5.0234,-5.0547,-5.0976,-5.1406,0.0,0.0,0.0,0.0,0.0,0.0,0.0,0.0,0.0,0.0,0.0,0.0,0.0,0.0,0.0,0.0,0.0,0.0,0.0,0.0,0.0,0.0,0.0,-1.3309,-1.5262,-1.6518,-1.8255,-2.0505,-2.1166,-2.1484,-2.1465,0.0,0.0,0.0,0.0,0.0,0.0,0.0,0.0,0.0,-1.5317,-1.5294,0.0,0.0,0.0,0.0,0.0,0.0,0.0,0.0,-1.5772,-1.665,-1.7534,-1.8396,-1.9286,-2.022,-2.0501,-2.0812,-2.2298,-2.3084,-2.4276,-2.75,0.0,0.0,-3.4043,-3.5762,-3.7324,0.0,0.0,0.0,0.0,0.0,0.0,0.0,0.0,0.0,0.0,0.0,0.0,0.0,0.0,0.0,0.0,0.0,0.0,0.0,0.0,0.0,0.0,-4.6308,-4.6308,-4.6308,-4.6308,-4.6308,-4.6308,-4.6308,-4.6308,-4.6308,-4.6308,-4.6308,-4.6308,-4.6308,-4.6308,-4.6328,-4.6933,-4.7187,-4.7246,-4.7832,-4.8086,-4.8105,-4.8379,-4.8848,-4.9453,-5.0,-5.0547,-5.1055,0.0,0.0,0.0,0.0,0.0,0.0,0.0,0.0,0.0,0.0,0.0,0.0,0.0,0.0,0.0,0.0,0.0,0.0,0.0,0.0,0.0,0.0,0.0,-1.2678,-1.5214,-1.5303,-1.701,-2.0478,-2.0537,-2.0583,-2.0526,-1.793,0.0,0.0,0.0,0.0,0.0,0.0,0.0,0.0,-1.5332,-1.5308,-1.5298,0.0,0.0,0.0,0.0,0.0,0.0,0.0,-1.5772,-1.6631,-1.7514,-1.8391,-1.9273,-2.0217,-2.0503,-2.0701,-2.1582,-2.3078,-2.5036,0.0,0.0,0.0,0.0,0.0,0.0,0.0,0.0,0.0,0.0,0.0,0.0,0.0,0.0,0.0,0.0,0.0,0.0,0.0,0.0,0.0,0.0,0.0,0.0,0.0,0.0,0.0,0.0,-4.6308,-4.6308,-4.6308,-4.6308,-4.6308,-4.6308,-4.6308,-4.6308,-4.6308,-4.6308,-4.6308,-4.6308,-4.6308,-4.6308,-4.6308,-4.6308,-4.6308,-4.6308,-4.6308,-4.6308,-4.6387,-4.7246,-4.7598,-4.7812,-4.9531,-5.0176,-5.0293,0.0,0.0,0.0,0.0,0.0,0.0,0.0,0.0,0.0,0.0,0.0,0.0,0.0,0.0,0.0,0.0,0.0,0.0,0.0,0.0,0.0,0.0,0.0,0.0,0.0,0.0,-1.7044,-1.8745,-1.876,-1.8767,0.0,0.0,0.0,-1.8359,0.0,0.0,0.0,0.0,0.0,0.0,0.0,-1.534,-1.5292,0.0,0.0,0.0,0.0,0.0,0.0,0.0,0.0,0.0,-1.662,-1.7486,-1.8363,-1.9241,-2.0387,-2.1549,-2.2469,-2.3991,0.0,0.0,0.0,0.0,0.0,0.0,0.0,0.0,0.0,0.0,0.0,0.0,0.0,0.0,0.0,0.0,0.0,0.0,0.0,0.0,0.0,0.0,0.0,0.0,0.0,0.0,0.0,0.0,0.0,-4.6308,-4.6308,-4.6308,-4.6308,-4.6308,-4.6308,-4.6308,-4.6308,-4.6308,-4.6308,-4.6308,-4.6308,-4.6308,-4.6308,-4.6308,-4.6308,-4.6308,-4.6308,-4.6308,-4.6308,-4.6328,-4.6582,-4.7051,-4.7656,-4.8183,-4.8769,-4.9414,0.0,0.0,0.0,0.0,0.0,0.0,0.0,0.0,0.0,0.0,0.0,-1.0107,0.0,0.0,0.0,0.0,0.0,0.0,0.0,0.0,0.0,0.0,0.0,0.0,0.0,-1.4589,-1.6021,0.0,0.0,0.0,0.0,0.0,0.0,-1.8496,0.0,-1.7383,0.0,0.0,0.0,0.0,-1.5402,-1.536,-1.5305,0.0,0.0,0.0,0.0,0.0,0.0,0.0,0.0,0.0,-1.6223,0.0,-1.7969,-1.8839,-2.0332,-2.1964,-2.3231,0.0,0.0,0.0,0.0,0.0,0.0,0.0,0.0,0.0,0.0,0.0,0.0,0.0,0.0,0.0,0.0,0.0,0.0,0.0,0.0,0.0,0.0,0.0,0.0,0.0,0.0,0.0,0.0,0.0,0.0,-4.6308,-4.6308,-4.6308,-4.6308,-4.6308,-4.6308,-4.6308,-4.6308,-4.6308,-4.6308,-4.6308,-4.6308,-4.6308,-4.6308,-4.6308,-4.6308,-4.6308,-4.6308,-4.6308,-4.6308,-4.6308,-4.6308,-4.6621,-4.7129,-4.7461,-4.793,-4.8516,0.0,0.0,-1.0094,-1.0094,0.0,0.0,0.0,0.0,0.0,0.0,0.0,-1.0097,0.0,0.0,0.0,-1.0094,0.0,0.0,0.0,0.0,0.0,0.0,0.0,0.0,0.0,0.0,0.0,0.0,0.0,0.0,0.0,0.0,-1.7715,-1.9238,0.0,-1.7402,0.0,0.0,0.0,0.0,-1.5396,-1.5353,-1.5308,-1.5305,0.0,0.0,0.0,0.0,0.0,0.0,0.0,0.0,-1.6123,-1.698,-1.7857,-1.8736,-2.0261,-2.2086,-2.383,0.0,0.0,0.0,0.0,0.0,0.0,0.0,0.0,0.0,0.0,0.0,0.0,0.0,0.0,0.0,0.0,0.0,0.0,0.0,0.0,0.0,0.0,0.0,0.0,0.0,0.0,0.0,0.0,0.0,0.0,-4.6308,-4.6308,-4.6308,-4.6308,-4.6308,-4.6308,-4.6308,-4.6308,-4.6308,-4.6308,-4.6308,-4.6308,-4.6308,-4.6308,-4.6308,-4.6308,-4.6308,-4.6308,-4.6308,-4.6308,-4.6308,-4.6308,-4.6308,-4.6406,-4.7187,-4.748,-4.7617,0.0,0.0,-1.0094,-1.0094,0.0,0.0,0.0,0.0,-1.0091,-1.01,-1.0108,-1.0097,-1.0097,-1.0107,0.0,-1.0094,-1.0094,0.0,0.0,0.0,0.0,0.0,0.0,0.0,0.0,0.0,0.0,0.0,0.0,0.0,0.0,0.0,0.0,-1.9316,0.0,-1.9102,0.0,0.0,0.0,-1.5402,-1.5391,-1.5394,-1.5374,-1.531,-1.5301,0.0,0.0,0.0,0.0,0.0,0.0,0.0,-1.5429,-1.6086,-1.6946,-1.7811,-1.9795,-2.2075,0.0,0.0,0.0,0.0,0.0,0.0,0.0,0.0,0.0,0.0,0.0,0.0,0.0,0.0,0.0,0.0,0.0,0.0,0.0,0.0,0.0,0.0,0.0,0.0,0.0,0.0,0.0,0.0,0.0,0.0,-4.6308,-4.6308,-4.6308,-4.6308,-4.6308,-4.6308,-4.6308,-4.6308,-4.6308,-4.6308,-4.6308,-4.6308,-4.6308,-4.6308,-4.6308,-4.6308,-4.6308,-4.6308,-4.6308,-4.6308,-4.6308,-4.6308,-4.6308,-4.6308,-4.6328,-4.6504,-4.6582,-4.6699,0.0,0.0,0.0,0.0,0.0,0.0,0.0,0.0,-1.0102,-1.0108,-1.0093,-1.0097,-1.0097,-1.0108,0.0,0.0,-1.0105,-1.0107,0.0,0.0,0.0,0.0,0.0,0.0,0.0,0.0,0.0,0.0,0.0,0.0,0.0,0.0,0.0,-1.9316,0.0,-1.9238,0.0,0.0,0.0,-1.5406,-1.5397,-1.515,-1.4765,-1.4743,-1.4715,-1.4686,-1.4674,0.0,0.0,0.0,0.0,0.0,0.0,0.0,-1.6663,-1.7542,-1.9362,-2.1539,0.0,0.0,0.0,0.0,0.0,0.0,0.0,0.0,0.0,0.0,0.0,0.0,0.0,0.0,0.0,0.0,0.0,0.0,0.0,0.0,0.0,0.0,0.0,0.0,0.0,0.0,0.0,0.0,0.0,-4.6308,-4.6308,-4.6308,-4.6308,-4.6308,-4.6308,-4.6308,-4.6308,-4.6308,-4.6308,-4.6308,-4.6308,-4.6308,-4.6308,-4.6308,-4.6308,-4.6308,-4.6308,-4.6308,-4.6308,-4.6308,-4.6308,-4.6308,-4.6308,-4.6308,-4.6308,-4.6308,-4.6308,-4.6367,0.0,0.0,0.0,0.0,0.0,0.0,0.0,0.0,0.0,-1.0101,-1.0101,-1.0101,-1.0101,-1.0091,-1.0102,0.0,0.0,0.0,-1.0094,0.0,0.0,0.0,0.0,0.0,0.0,0.0,0.0,0.0,0.0,0.0,0.0,0.0,0.0,-1.9746,0.0,0.0,0.0,0.0,-1.6249,-1.5193,-1.5342,-1.4885,-1.4114,-1.4273,-1.4194,-1.403,-1.419,-1.4568,-1.5018,-1.5179,0.0,0.0,0.0,0.0,-1.6452,-1.7324,-1.8818,-2.0727,0.0,0.0,0.0,0.0,0.0,0.0,0.0,0.0,0.0,0.0,0.0,0.0,0.0,0.0,0.0,0.0,0.0,0.0,0.0,0.0,0.0,0.0,0.0,0.0,0.0,0.0,0.0,0.0,0.0,-4.6308,-4.6308,-4.6308,-4.6308,-4.6308,-4.6308,-4.6308,-4.6308,-4.6308,-4.6308,-4.6308,-4.6308,-4.6308,-4.6308,-4.6308,-4.6308,-4.6308,-4.6308,-4.6308,-4.6308,-4.6308,-4.6308,-4.6308,-4.6308,-4.6308,-4.6308,-4.6308,-4.6308,-4.6308,0.0,0.0,0.0,0.0,0.0,0.0,0.0,0.0,0.0,0.0,-1.0095,-1.0095,-1.0095,-1.0095,-1.0102,-1.0095,-1.0097,-1.0101,0.0,0.0,0.0,0.0,0.0,0.0,0.0,0.0,0.0,0.0,0.0,0.0,0.0,0.0,0.0,-2.1543,0.0,0.0,0.0,0.0,-1.6445,-1.4335,-1.5095,-1.4876,-1.4188,-1.4944,-1.4757,-1.4194,-1.4943,-1.4757,-1.4284,-1.5031,-1.5259,0.0,0.0,0.0,0.0,0.0,-1.7905,-1.9825,0.0,0.0,0.0,0.0,0.0,0.0,0.0,0.0,0.0,0.0,0.0,0.0,0.0,0.0,0.0,0.0,0.0,0.0,0.0,0.0,0.0,0.0,0.0,0.0,0.0,0.0,0.0,0.0,-4.6308,-4.6308,-4.6308,-4.6308,-4.6308,-4.6308,-4.6308,-4.6308,-4.6308,-4.6308,-4.6308,-4.6308,-4.6308,-4.6308,-4.6308,-4.6308,-4.6308,-4.6308,-4.6308,-4.6308,-4.6308,-4.6308,-4.6308,-4.6308,-4.6308,-4.6308,-4.6308,-4.6308,-4.6308,-4.6308,0.0,0.0,0.0,0.0,0.0,0.0,0.0,0.0,0.0,0.0,0.0,-1.0105,-1.0105,-1.0105,-1.0091,-1.0104,-1.0106,0.0,0.0,0.0,0.0,0.0,0.0,0.0,0.0,0.0,0.0,0.0,0.0,0.0,0.0,-2.0058,-2.1523,0.0,0.0,0.0,0.0,0.0,0.0,-1.5547,-1.5448,-1.5174,-1.486,-1.5248,-1.5164,-1.488,-1.5257,0.0,-1.4795,-1.517,-1.5253,-1.5202,-1.5198,0.0,0.0,0.0,0.0,0.0,0.0,0.0,0.0,0.0,0.0,0.0,0.0,0.0,0.0,0.0,0.0,0.0,0.0,0.0,0.0,0.0,0.0,0.0,0.0,0.0,0.0,0.0,0.0,0.0,0.0,0.0,0.0,0.0,-4.6308,-4.6308,-4.6308,-4.6308,-4.6308,-4.6308,-4.6308,-4.6308,-4.6308,-4.6308,-4.6308,-4.6308,-4.6308,-4.6308,-4.6308,-4.6308,-4.6308,-4.6308,-4.6308,-4.6308,-4.6308,-4.6308,-4.6308,-4.6308,-4.6308,-4.6308,-4.6308,-4.6308,-4.6308,-4.6308,0.0,0.0,0.0,0.0,0.0,0.0,0.0,0.0,0.0,0.0,0.0,-1.0101,-1.0101,0.0,0.0,0.0,-1.0102,0.0,0.0,0.0,0.0,0.0,0.0,0.0,0.0,0.0,0.0,0.0,0.0,0.0,-1.6774,-2.0273,-2.2012,0.0,-2.2227,0.0,0.0,0.0,0.0,-1.668,-1.6465,-1.6269,-1.6113,-1.6542,-1.6579,-1.6398,-1.6387,0.0,0.0,0.0,0.0,0.0,0.0,0.0,0.0,0.0,0.0,0.0,0.0,0.0,0.0,0.0,0.0,0.0,0.0,0.0,0.0,0.0,0.0,0.0,0.0,0.0,0.0,0.0,0.0,0.0,0.0,0.0,0.0,0.0,0.0,0.0,0.0,0.0,0.0,0.0,-4.6308,-4.6308,-4.6308,-4.6308,-4.6308,-4.6308,-4.6308,-4.6308,-4.6308,-4.6308,-4.6308,-4.6308,-4.6308,-4.6308,-4.6308,-4.6308,-4.6308,-4.6308,-4.6308,-4.6308,-4.6308,-4.6308,-4.6308,-4.6308,-4.6308,-4.6308,-4.6308,-4.6308,-4.6308,-4.6308,0.0,0.0,0.0,0.0,0.0,0.0,0.0,0.0,0.0,0.0,0.0,-1.0095,-1.0095,-1.0103,-1.0108,-1.0093,-1.0095,0.0,0.0,0.0,0.0,0.0,0.0,0.0,0.0,0.0,0.0,0.0,0.0,0.0,-1.6773,-2.0273,-2.2305,-2.3047,-2.3105,-2.2656,-2.1719,0.0,0.0,-1.6836,-1.8457,-1.8594,-1.8047,-1.9707,-1.9824,-1.9101,0.0,0.0,0.0,0.0,0.0,0.0,0.0,0.0,0.0,0.0,0.0,0.0,0.0,0.0,0.0,0.0,0.0,0.0,0.0,0.0,0.0,0.0,0.0,0.0,0.0,0.0,0.0,0.0,0.0,0.0,0.0,0.0,0.0,0.0,0.0,0.0,0.0,0.0,0.0,0.0,-4.6308,-4.6308,-4.6308,-4.6308,-4.6308,-4.6308,-4.6308,-4.6308,-4.6308,-4.6308,-4.6308,-4.6308,-4.6308,-4.6308,-4.6308,-4.6308,-4.6308,-4.6307,-4.6307,-4.6306,-4.6302,-4.6306,-4.6307,-4.6307,-4.6308,-4.6308,-4.6308,-4.6308,-4.6308,-4.6308,0.0,0.0,0.0,0.0,0.0,0.0,0.0,0.0,0.0,0.0,0.0,0.0,0.0,-1.0097,-1.0097,-1.0095,-1.0103,0.0,0.0,0.0,0.0,0.0,0.0,0.0,0.0,0.0,0.0,0.0,0.0,-1.3874,-1.5112,-1.8593,-2.0683,-2.1562,-2.3223,-2.3809,-2.3359,-2.1094,0.0,0.0,-1.9492,-2.0117,0.0,-2.1973,-2.2363,-2.2578,0.0,0.0,0.0,0.0,0.0,0.0,0.0,-1.6741,-1.5914,-1.5352,0.0,0.0,0.0,0.0,0.0,0.0,0.0,0.0,0.0,0.0,0.0,0.0,0.0,0.0,0.0,0.0,0.0,0.0,0.0,0.0,0.0,0.0,0.0,0.0,0.0,0.0,0.0,0.0,0.0,0.0,0.0,-4.6308,-4.6308,-4.6308,-4.6308,-4.6308,-4.6308,-4.6308,-4.6308,-4.6308,-4.6308,-4.6308,-4.6308,-4.6308,-4.6308,-4.6308,-4.6308,-4.6304,-4.6304,-4.6303,-4.6301,-4.6303,-4.6304,-4.6304,-4.6305,-4.6307,-4.6308,-4.6308,-4.6308,-4.6308,0.0,0.0,0.0,-1.0199,0.0,-1.0194,-1.0191,-1.0204,-1.021,0.0,0.0,0.0,0.0,0.0,-1.0097,-1.0101,-1.0109,0.0,0.0,0.0,0.0,0.0,0.0,0.0,0.0,0.0,0.0,0.0,0.0,0.0,0.0,-1.6932,-1.8887,-1.9824,-2.2109,-2.3281,0.0,0.0,0.0,-2.1875,0.0,0.0,-2.4101,0.0,-2.539,0.0,0.0,0.0,0.0,0.0,0.0,0.0,0.0,-1.7914,-1.639,-1.5814,0.0,0.0,0.0,0.0,0.0,0.0,0.0,0.0,0.0,0.0,0.0,0.0,0.0,0.0,0.0,0.0,0.0,0.0,0.0,0.0,0.0,0.0,0.0,0.0,0.0,0.0,0.0,0.0,0.0,0.0,0.0,0.0,-4.5859,-4.5859,-4.5996,-4.6289,-4.6308,-4.6308,-4.6308,-4.6308,-4.6308,-4.6308,-4.6308,-4.6308,-4.6308,-4.6308,-4.6308,-4.6304,-4.6304,-4.6301,-4.6293,-4.6295,-4.6294,-4.627,-4.6274,-4.6279,-4.6262,-4.6284,-4.6306,-4.6308,-1.009,-1.0156,-1.0205,-1.0208,-1.0205,-1.0191,-1.0191,-1.0209,-1.0203,-1.024,0.0,0.0,0.0,0.0,0.0,0.0,0.0,0.0,0.0,0.0,0.0,0.0,0.0,0.0,0.0,0.0,0.0,0.0,0.0,0.0,0.0,0.0,-1.707,-1.7969,-1.9707,-2.0957,-2.1758,0.0,-2.1934,-2.2187,0.0,-2.574,-2.5994,0.0,0.0,0.0,-2.779,-2.7712,0.0,0.0,0.0,0.0,0.0,-1.9342,-1.6564,-1.6545,-1.7083,0.0,0.0,0.0,0.0,0.0,0.0,0.0,0.0,0.0,0.0,0.0,0.0,0.0,0.0,0.0,0.0,0.0,0.0,0.0,0.0,0.0,0.0,0.0,0.0,0.0,0.0,0.0,0.0,0.0,-4.3691,-4.4062,-4.4922,-4.498,-4.5391,-4.623,-4.6289,-4.6308,-4.6308,-4.6308,-4.6308,-4.6308,-4.6308,-4.6308,-4.6308,-4.6308,-4.6308,-4.6307,-4.6307,-4.6297,-4.6306,-4.6296,-4.6269,-4.6209,-4.6193,-4.62,-4.6202,-4.627,-4.63,-4.6307,-1.0152,-1.0187,-1.0205,-1.0204,-1.0195,-1.0193,-1.0192,-1.0193,-1.043,0.0,0.0,0.0,0.0,0.0,0.0,0.0,0.0,0.0,0.0,0.0,0.0,0.0,0.0,0.0,0.0,0.0,0.0,0.0,0.0,0.0,0.0,0.0,0.0,0.0,-1.6992,-1.791,-1.8301,-2.082,0.0,0.0,-2.5155,-2.6834,0.0,0.0,0.0,0.0,0.0,-3.1384,-3.0877,0.0,-2.8218,-2.6186,0.0,0.0,0.0,-1.7545,-1.7526,0.0,-1.8761,0.0,0.0,0.0,0.0,0.0,0.0,0.0,0.0,0.0,0.0,0.0,0.0,0.0,0.0,0.0,0.0,0.0,0.0,0.0,0.0,0.0,0.0,0.0,0.0,0.0,0.0,0.0,-4.3691,-4.3808,-4.4043,-4.4668,-4.5117,-4.5351,-4.5976,-4.6308,-4.6308,-4.6308,-4.6308,-4.6308,-4.6308,-4.6308,-4.6308,-4.6308,-4.6308,-4.6303,-4.6303,-4.627,-4.6233,-4.6225,-4.6192,-4.6135,-4.6131,-4.6164,-4.6206,-4.6219,-4.6266,-4.6304,-1.0194,-1.0485,-1.0731,-1.0741,-1.1049,-1.1284,-1.1278,-1.1282,-1.1468,0.0,0.0,0.0,0.0,0.0,0.0,0.0,0.0,0.0,0.0,0.0,-1.0094,-1.0094,-1.0094,0.0,0.0,0.0,0.0,0.0,0.0,0.0,0.0,0.0,0.0,0.0,-1.4492,-1.5508,-1.6348,0.0,0.0,0.0,-2.5467,0.0,0.0,-3.0947,-3.2455,0.0,0.0,0.0,-3.3046,-3.2172,-3.0462,0.0,0.0,0.0,-2.0408,-1.9546,-1.9292,0.0,0.0,0.0,0.0,0.0,0.0,0.0,0.0,0.0,0.0,0.0,0.0,0.0,0.0,0.0,0.0,0.0,0.0,0.0,0.0,0.0,0.0,0.0,0.0,0.0,0.0,-4.2656,-4.2656,-4.2656,-4.2656,-4.2793,-4.3144,-4.3984,-4.4629,-4.498,-4.5488,-4.5937,-4.6308,-4.6308,-4.6308,-4.6308,-4.6308,-4.6308,-4.6308,-4.6308,-4.6308,-4.6304,-4.6304,-4.6252,-4.6197,-4.6199,-4.6167,-4.6099,-4.6106,-4.6119,-4.6162,-4.6157,-4.6204,-4.6257,0.0,-1.0973,-1.1522,-1.1639,-1.2356,-1.2924,-1.2937,-1.302,-1.3113,0.0,-1.4061,0.0,0.0,0.0,0.0,0.0,0.0,0.0,0.0,0.0,-1.019,-1.0094,-1.0094,-1.0094,0.0,0.0,0.0,0.0,0.0,0.0,0.0,0.0,0.0,0.0,-1.252,-1.3789,-1.5371,0.0,0.0,-2.2069,-2.5582,-2.8157,0.0,0.0,-3.3328,0.0,-3.3979,-3.4197,-3.4707,-3.384,-3.1765,0.0,0.0,-2.4049,-2.3058,-2.2182,-2.1923,0.0,0.0,-2.312,0.0,0.0,0.0,0.0,-2.4438,-2.5708,0.0,0.0,0.0,0.0,0.0,0.0,0.0,0.0,0.0,0.0,0.0,0.0,0.0,0.0,0.0,0.0,-4.1055,-4.1055,-4.1094,-4.1191,-4.1191,-4.1504,-4.2226,-4.3086,-4.3906,-4.4687,-4.4805,-4.5273,-4.6152,-4.6152,-4.6191,-4.6308,-4.6308,-4.6308,-4.6308,-4.6308,-4.6308,-4.6306,-4.6306,-4.6277,-4.6206,-4.6194,-4.616,-4.61,-4.6095,-4.6095,-4.611,-4.6096,-4.6139,-4.6206,-1.1117,-1.1379,-1.1718,-1.2427,-1.3227,-1.3769,-1.3774,-1.4363,-1.507,-1.5772,0.0,0.0,0.0,0.0,0.0,0.0,0.0,0.0,0.0,0.0,-1.0829,-1.0133,-1.0094,-1.0094,-1.0094,0.0,0.0,0.0,0.0,0.0,0.0,0.0,0.0,0.0,-1.2519,-1.3437,0.0,0.0,0.0,-2.121,-2.5348,0.0,-3.1721,-3.2759,-3.4229,-3.5718,-3.5544,-3.5605,-3.5605,0.0,-3.2652,-3.0199,0.0,0.0,0.0,0.0,0.0,-2.4601,-2.4821,-2.4896,-2.493,-2.4989,0.0,0.0,0.0,-2.5658,0.0,0.0,0.0,0.0,0.0,0.0,0.0,0.0,0.0,0.0,0.0,0.0,0.0,0.0,0.0,0.0,-4.0098,-4.0156,-4.0449,-4.1152,-4.1191,-4.1269,-4.1426,-4.2207,-4.2734,-4.2891,-4.3594,-4.4375,-4.5254,-4.5254,-4.5605,-4.6308,-4.6308,-4.6308,-4.6308,-4.6308,-4.6308,-4.6303,-4.6303,-4.6293,-4.6284,-4.6214,-4.616,-4.6095,-4.6037,-4.6042,-4.6105,-4.6099,-4.6131,-4.6206,-1.1405,-1.2206,-1.3061,-1.3936,-1.4767,-1.5446,-1.5885,-1.6312,-1.6907,0.0,0.0,0.0,0.0,0.0,0.0,0.0,0.0,0.0,0.0,0.0,-1.2272,-1.1434,-1.1398,-1.1188,-1.0768,-1.0743,0.0,0.0,0.0,0.0,0.0,0.0,0.0,0.0,0.0,0.0,0.0,0.0,-2.0136,-2.2713,-2.531,0.0,-3.1631,-3.2921,-3.4486,-3.5993,-3.5994,-3.5995,-3.5878,-3.4982,-3.3499,0.0,0.0,-2.8997,-2.7798,0.0,-2.69,-2.6708,0.0,0.0,-2.6703,-2.6784,0.0,0.0,0.0,0.0,0.0,0.0,0.0,0.0,0.0,0.0,0.0,0.0,0.0,0.0,0.0,0.0,0.0,0.0,0.0,0.0,-3.8555,-3.9004,-3.9434,-3.9863,-4.0312,-4.0547,-4.0547,-4.1348,-4.1992,-4.2383,-4.2812,-4.3476,-4.4336,-4.4785,-4.5215,-4.5664,-4.6094,-4.6308,-4.6308,-4.6308,-4.6307,-4.6301,-4.6301,-4.6291,-4.6303,-4.6264,-4.6217,-4.6138,-4.6078,-4.6065,-4.6102,-4.6137,-4.6167,-4.6206,-1.1748,-1.3027,-1.4362,-1.5229,-1.6198,-1.7096,-1.7798,-1.8311,-1.8951,0.0,0.0,0.0,0.0,0.0,0.0,0.0,0.0,0.0,0.0,0.0,0.0,-1.3007,-1.295,-1.2549,-1.1671,-1.1487,0.0,0.0,0.0,0.0,0.0,0.0,0.0,0.0,0.0,0.0,0.0,0.0,0.0,-2.4491,0.0,-2.8123,-3.1539,-3.2886,-3.4489,-3.6014,-3.6191,-3.6132,-3.5916,-3.5373,0.0,-3.3039,-3.1581,-3.0466,0.0,0.0,0.0,0.0,0.0,0.0,0.0,0.0,0.0,-2.7351,0.0,0.0,0.0,-2.5691,0.0,0.0,0.0,0.0,0.0,0.0,0.0,0.0,0.0,0.0,0.0,0.0,0.0,0.0,0.0,-3.7598,-3.8164,-3.834,-3.9004,-3.9551,-3.9883,-4.0566,-4.1328,-4.2148,-4.2168,-4.2578,-4.3437,-4.4316,-4.4824,-4.5019,-4.5879,-4.6308,-4.6308,-4.6308,-4.6308,-4.6303,-4.6303,-4.6295,-4.6294,-4.6303,-4.6277,-4.6219,-4.6154,-4.6114,-4.6137,-4.6181,-4.621,-4.623,-1.2655,-1.3435,-1.4354,-1.5173,-1.6658,-1.7786,-1.7883,-1.9817,0.0,0.0,0.0,0.0,0.0,0.0,0.0,0.0,0.0,0.0,-1.7622,0.0,0.0,-1.3952,-1.3858,-1.3436,-1.258,-1.1798,-1.1354,0.0,0.0,0.0,0.0,0.0,-1.2333,-1.3884,-1.5624,0.0,0.0,0.0,-2.2695,0.0,-2.6191,-2.9374,0.0,-3.3337,-3.4471,-3.6093,-3.6875,-3.666,-3.6092,0.0,-3.535,-3.3253,0.0,-3.2256,0.0,0.0,0.0,0.0,0.0,0.0,0.0,0.0,-3.037,0.0,0.0,0.0,-2.5706,-2.5702,0.0,0.0,0.0,0.0,0.0,0.0,0.0,0.0,0.0,0.0,0.0,0.0,0.0,0.0,0.0,-3.5781,-3.6621,-3.7383,-3.7539,-3.8262,-3.9824,-3.998,-4.0449,-4.1308,-4.1348,-4.1738,-4.2539,-4.3418,-4.4238,-4.5019,-4.5879,-4.6308,-4.6308,-4.6308,-4.6308,-4.6306,-4.6306,-4.6304,-4.63,-4.63,-4.63,-4.6277,-4.6212,-4.6199,-4.6182,-4.6195,-4.623,-4.6281,-1.289,-1.3902,-1.5113,-1.5914,-1.7076,-1.8075,-1.8572,-2.0841,0.0,0.0,0.0,0.0,0.0,0.0,0.0,0.0,0.0,-2.4416,0.0,0.0,0.0,-1.7067,-1.6965,-1.6105,-1.4254,-1.385,-1.2941,0.0,-1.1128,0.0,0.0,0.0,-1.3183,-1.4952,-1.7204,0.0,-2.0957,0.0,0.0,0.0,0.0,0.0,0.0,-3.3398,-3.4804,-3.6797,-3.7168,-3.7383,-3.7499,0.0,-3.6196,0.0,0.0,0.0,0.0,0.0,0.0,0.0,0.0,0.0,0.0,0.0,0.0,0.0,-2.8471,0.0,-2.5836,0.0,0.0,0.0,0.0,0.0,0.0,0.0,0.0,0.0,0.0,0.0,0.0,0.0,0.0,0.0,0.0,0.0,0.0,0.0,-3.5976,-3.6875,-3.7598,-3.9082,-4.0078,-4.043,-4.0937,-4.1367,-4.1699,-4.3027,-4.3887,-4.4258,-4.5644,-4.6308,-4.6308,-4.6308,-4.6308,-4.6307,-4.6307,-4.6305,-4.6301,-4.6304,-4.6305,-4.6305,-4.6263,-4.6258,-4.6252,-4.6258,-4.6283,-4.6306,-1.3281,0.0,0.0,0.0,-1.7168,-1.8434,-2.0036,-2.2281,-2.4135,0.0,0.0,0.0,-2.7995,-2.9128,0.0,0.0,0.0,-2.7501,0.0,0.0,-2.2759,-2.025,-2.0147,0.0,0.0,0.0,0.0,-1.2541,-1.2071,0.0,0.0,0.0,-1.409,-1.5861,0.0,-2.076,-2.2733,0.0,0.0,-2.9121,-3.0391,-3.2187,-3.4141,-3.4375,-3.5644,-3.7363,-3.7832,-3.8262,-3.8535,-3.8113,-3.7217,0.0,-3.5096,0.0,0.0,0.0,0.0,0.0,-3.4831,0.0,0.0,0.0,0.0,0.0,0.0,0.0,0.0,0.0,0.0,0.0,0.0,0.0,0.0,0.0,0.0,0.0,0.0,0.0,0.0,0.0,0.0,0.0,0.0,0.0,0.0,0.0,0.0,-3.5019,-3.5957,-3.8027,-3.9414,-3.9883,-4.0742,-4.1191,-4.1191,-4.2851,-4.3691,-4.3711,-4.5469,-4.6308,-4.6308,-4.6308,-4.6308,-4.6307,-4.6307,-4.6307,-4.6305,-4.6307,-4.6307,-4.6308,-4.6308,-4.6308,-4.6305,-4.6307,-4.6307,-4.6308,-1.4062,-1.4774,0.0,0.0,0.0,-1.9052,-2.2459,-2.4484,-2.5935,0.0,0.0,0.0,0.0,0.0,0.0,0.0,0.0,-2.9765,-2.7942,0.0,-2.5438,0.0,-2.2778,-2.1585,0.0,0.0,-1.6107,-1.5179,-1.3554,0.0,0.0,0.0,0.0,0.0,0.0,-2.1969,-2.4433,-2.6211,-2.8457,-3.082,-3.0879,-3.291,-3.6016,0.0,-3.7226,-3.7519,-3.9219,0.0,0.0,-3.9465,-3.8588,0.0,0.0,0.0,0.0,0.0,0.0,0.0,0.0,0.0,0.0,-3.4633,0.0,0.0,0.0,0.0,-2.711,0.0,0.0,0.0,0.0,0.0,0.0,0.0,0.0,0.0,0.0,0.0,0.0,0.0,0.0,0.0,0.0,0.0,0.0,0.0,0.0,0.0,-3.582,-3.6875,-3.8164,-3.9844,-4.0742,-4.1191,-4.1191,-4.2851,-4.3691,-4.3711,-4.5469,-4.6308,-4.6308,-4.6308,-4.6308,-4.6308,-4.6308,-4.6308,-4.6308,-4.6308,-4.6308,-4.6308,-4.6308,-4.6308,-4.6308,-4.6308,-4.6308,-4.6308,0.0,0.0,0.0,0.0,0.0,-1.9328,-2.3351,-2.4958,0.0,0.0,0.0,0.0,0.0,0.0,-3.4121,0.0,0.0,-3.3352,-3.1557,-3.0094,0.0,0.0,0.0,-2.4293,0.0,0.0,-1.9073,-1.7088,-1.5902,0.0,0.0,0.0,0.0,0.0,0.0,-2.2839,0.0,0.0,0.0,0.0,0.0,-3.5311,-3.6892,0.0,-3.8027,-3.9101,-3.9687,-4.0078,0.0,-3.9914,-3.9411,-3.8755,-3.7755,-3.74,-3.7243,-3.6897,-3.698,-3.7263,0.0,0.0,-3.6323,-3.5452,0.0,0.0,0.0,0.0,0.0,0.0,0.0,0.0,0.0,0.0,0.0,0.0,0.0,0.0,0.0,0.0,0.0,0.0,0.0,0.0,0.0,0.0,0.0,0.0,-3.0254,0.0,-3.3398,-3.5918,-3.7832,-3.9004,-4.0449,-4.1191,-4.1191,-4.2851,-4.3691,-4.3711,-4.5469,-4.6308,-4.6308,-4.6308,-4.6308,-4.6308,-4.6308,-4.6308,-4.6308,-4.6308,-4.6308,-4.6308,-4.6308,-4.6308,-4.6308,-4.6308,-4.6308,-4.6308,-1.8004,0.0,0.0,0.0,0.0,0.0,0.0,0.0,0.0,0.0,-3.1523,0.0,-3.3827,0.0,-3.6341,0.0,-3.6239,-3.5727,-3.422,-3.2768,0.0,-2.9528,-2.8903,0.0,0.0,0.0,-2.1924,-1.9354,0.0,-1.7364,0.0,0.0,0.0,0.0,0.0,0.0,0.0,0.0,-3.0761,0.0,0.0,-3.7164,0.0,0.0,-3.8925,-3.9941,0.0,-4.0723,-4.1094,-4.0464,-4.0255,-4.009,-3.911,-3.8733,-3.8581,-3.8202,-3.8046,-3.8084,-3.8432,-3.7958,0.0,-3.6651,-3.4662,0.0,-3.2175,0.0,0.0,0.0,0.0,0.0,0.0,0.0,0.0,0.0,0.0,0.0,0.0,0.0,0.0,0.0,0.0,0.0,0.0,0.0,-2.7031,-2.7344,-2.8691,0.0,0.0,-3.4844,-3.7051,-3.8555,-3.998,-4.0898,-4.1191,-4.2851,-4.3691,-4.3711,-4.5469,-4.6308,-4.6308,-4.6308,-4.6308,-4.6308,-4.6308,-4.6308,-4.6308,-4.6308,-4.6308,-4.6308,-4.6308,-4.6308,-4.6308,-4.6308,-4.6308,-4.6308,0.0,0.0,0.0,0.0,-2.0437,0.0,0.0,0.0,-3.0312,0.0,-3.3789,-3.543,-3.7167,-3.7401,-3.773,-3.8496,-3.7808,0.0,-3.6047,-3.5085,0.0,0.0,-3.2082,-3.0889,-2.8452,0.0,0.0,0.0,0.0,0.0,0.0,0.0,0.0,0.0,-2.1076,0.0,-2.5869,-2.8533,-3.1172,-3.3808,-3.6346,-3.8375,-3.9896,-3.9938,-3.9958,-4.0076,-4.0898,-4.1191,-4.1191,-4.1112,-4.11,-4.0933,-4.0059,-3.966,-3.9387,-3.8484,-3.8176,-3.8308,-3.9136,-3.8814,-3.8264,-3.8259,-3.6427,0.0,0.0,0.0,-3.2384,0.0,0.0,0.0,0.0,0.0,0.0,0.0,0.0,0.0,0.0,0.0,0.0,0.0,0.0,0.0,0.0,0.0,-2.4746,-2.5566,-2.6445,0.0,0.0,-3.3691,-3.582,-3.8457,-3.9414,-4.0312,-4.1191,-4.2851,-4.3691,-4.3711,-4.5469,-4.6308,-4.6308,-4.6308,-4.6308,-4.6308,-4.6308,-4.6308,-4.6308,-4.6308,-4.6308,-4.6308,-4.6308,-4.6308,-4.6308,-4.6308,-4.6308,-4.6308,-2.1794,-2.2495,-2.3215,0.0,-2.4274,-2.537,0.0,0.0,0.0,0.0,-3.5391,-3.6328,-3.8086,-3.8847,-3.9315,-3.9523,-3.9295,0.0,0.0,0.0,0.0,-3.5799,-3.4568,-3.3037,-3.1141,-2.9461,0.0,-2.4704,0.0,0.0,-2.0784,0.0,0.0,0.0,0.0,0.0,-2.5913,-2.9131,-3.2749,-3.6403,-3.7749,-3.8897,0.0,0.0,-4.0796,-4.0836,-4.1093,-4.1191,-4.1191,-4.1112,-4.1103,-4.1041,-4.0758,-4.0578,-4.0416,-4.0127,-3.9957,-3.9915,-4.0195,-3.9687,-3.9103,-3.9148,-3.7757,-3.6209,0.0,0.0,0.0,0.0,0.0,0.0,0.0,0.0,0.0,0.0,0.0,0.0,0.0,0.0,0.0,0.0,0.0,0.0,0.0,-2.4394,-2.4492,-2.4727,-2.5547,0.0,0.0,0.0,-3.4922,-3.7559,-3.9101,-4.0312,-4.1191,-4.2851,-4.3691,-4.3711,-4.5469,-4.6308,-4.6308,-4.6308,-4.6308,-4.6308,-4.6308,-4.6308,-4.6308,-4.6308,-4.6308,-4.6308,-4.6308,-4.6308,-4.6308,-4.6308,-4.6308,-4.6308,-2.3592,0.0,0.0,-2.7185,0.0,0.0,-2.9297,0.0,0.0,-3.6172,-3.6894,0.0,-3.9551,-4.0176,-4.0468,-4.0424,-4.0395,0.0,0.0,0.0,0.0,-3.7692,-3.6793,-3.5523,-3.3849,-3.2123,0.0,-2.6835,0.0,0.0,-2.1774,0.0,0.0,0.0,0.0,-2.3986,0.0,-3.016,-3.423,-3.7904,-3.8392,0.0,0.0,-4.0912,-4.1109,-4.111,-4.1172,-4.1191,-4.1191,-4.1152,-4.1126,-4.1085,-4.1028,-4.0906,-4.079,-4.0713,-4.0619,-4.0504,-4.058,-4.0298,-3.9979,-4.0047,-3.9122,-3.8062,-3.7602,-3.6872,-3.6458,0.0,-3.6362,-3.5584,0.0,0.0,0.0,0.0,0.0,0.0,0.0,0.0,0.0,0.0,0.0,0.0,-2.3906,-2.3867,-2.3711,-2.334,-2.4434,0.0,0.0,0.0,0.0,-3.6641,-3.8418,-3.9746,-4.0625,-4.2676,-4.3691,-4.3711,-4.5469,-4.6308,-4.6308,-4.6308,-4.6308,-4.6308,-4.6308,-4.6308,-4.6308,-4.6308,-4.6308,-4.6308,-4.6308,-4.6308,-4.6308,-4.6308,-4.6308,-4.6308,0.0,0.0,0.0,0.0,0.0,0.0,0.0,-3.2949,0.0,-3.7305,0.0,-3.9394,-4.1016,-4.1191,-4.1171,-4.1108,0.0,-4.0748,-3.9942,-3.9889,-3.9549,-3.8786,-3.8692,-3.7881,-3.6218,-3.4469,0.0,0.0,0.0,0.0,-2.1958,0.0,0.0,0.0,0.0,0.0,0.0,-3.1361,-3.5397,-3.8584,-3.8606,-3.9602,-4.1107,-4.1091,-4.1092,-4.1112,-4.1172,-4.1191,-4.1191,-4.1191,-4.1167,-4.1087,-4.1025,-4.0906,-4.0796,-4.0718,-4.0602,-4.0531,-4.0588,-4.0648,-4.073,-4.0798,-4.0345,-3.9844,-3.9736,-3.9183,-3.8696,-3.8764,-3.8689,-3.8105,-3.6465,0.0,0.0,0.0,0.0,0.0,0.0,0.0,0.0,0.0,0.0,0.0,0.0,-2.3164,-2.2832,-2.1953,-2.3359,0.0,0.0,0.0,0.0,-3.5586,-3.7461,-3.8906,-3.9883,-4.2422,-4.3691,-4.3711,-4.5469,-4.6308,-4.6308,-4.6308,-4.6308,-4.6308,-4.6308,-4.6308,-4.6308,-4.6308,-4.6308,-4.6308,-4.6308,-4.6308,-4.6308,-4.6308,-4.6308,-4.6308,0.0,0.0,0.0,0.0,0.0,-3.5586,-3.7031,-3.6289,-3.6484,-3.9101,-3.957,-4.0059,-4.1094,-4.1191,-4.1172,-4.1111,-4.1108,0.0,0.0,0.0,0.0,-4.0629,-3.9944,-3.8781,-3.7106,-3.5351,-3.2793,0.0,-2.6757,-2.4586,-2.2837,0.0,0.0,0.0,0.0,0.0,-2.9959,-3.2327,0.0,-3.8527,-3.8578,-3.9597,-4.1101,-4.1109,-4.1092,-4.1112,-4.1172,-4.1191,-4.1191,-4.1191,-4.1167,-4.1087,-4.1025,-4.0906,-4.0796,-4.0718,-4.0635,-4.0595,-4.066,-4.0738,-4.081,-4.0921,-4.0902,-4.0678,-3.9958,-3.9716,-3.9664,-3.9666,-3.9101,-3.8281,-3.7266,0.0,0.0,0.0,0.0,0.0,0.0,0.0,0.0,0.0,0.0,0.0,0.0,0.0,-2.2773,0.0,0.0,0.0,0.0,0.0,0.0,0.0,-3.623,0.0,0.0,0.0,-4.3691,-4.3711,-4.5469,-4.6308,-4.6308,-4.6308,-4.6308,-4.6308,-4.6308,-4.6308,-4.6308,-4.6308,-4.6308,-4.6308,-4.6308,-4.6308,-4.6308,-4.6308,-4.6308,-4.6308,0.0,0.0,0.0,0.0,0.0,0.0,0.0,-3.959,0.0,-4.1035,-4.1191,-4.1523,-4.2402,-4.25,-4.248,-4.2459,-4.2458,-4.2454,-4.2444,-4.2446,-4.2251,-4.1798,-4.1379,0.0,-3.8689,-3.6933,-3.457,-3.1562,-2.8535,-2.5936,0.0,0.0,0.0,0.0,0.0,-2.7779,0.0,0.0,0.0,-3.8534,-3.9039,-3.9987,-4.1107,-4.1132,-4.1152,-4.1152,-4.1191,-4.1191,-4.1191,-4.1191,-4.1168,-4.1091,-4.1053,-4.0954,-4.0845,-4.0807,-4.0739,-4.0674,-4.0719,-4.0798,-4.0872,-4.0977,-4.1057,-4.0995,-4.0578,-4.0525,-4.0566,-4.0566,-4.0234,-3.9414,-3.7637,-3.4863,0.0,0.0,0.0,0.0,0.0,0.0,0.0,0.0,0.0,0.0,0.0,0.0,0.0,0.0,0.0,0.0,0.0,0.0,0.0,0.0,0.0,0.0,-3.9219,0.0,-4.3242,-4.3711,-4.5469,-4.6308,-4.6308,-4.6308,-4.6308,-4.6308,-4.6308,-4.6308,-4.6308,-4.6308,-4.6308,-4.6308,-4.6308,-4.6308,-4.6308,-4.6308,-4.6308,-4.6308,0.0,-3.2402,0.0,0.0,-3.7129,0.0,-4.1641,-4.2461,-4.2812,-4.2695,-4.2676,-4.2949,-4.3633,-4.3691,-4.3691,-4.369,-4.369,-4.3708,-4.3702,-4.3706,-4.3393,-4.2707,-4.2673,-4.1893,-4.0214,-3.8652,-3.6484,0.0,-3.0449,-2.7518,0.0,-2.4053,-2.3471,-2.3322,0.0,0.0,0.0,0.0,-3.694,-3.8826,-3.9515,-4.0317,-4.111,-4.1172,-4.1308,-4.1465,-4.1465,-4.1562,-4.1738,-4.1738,-4.1442,-4.1097,-4.1103,-4.1006,-4.0904,-4.0898,-4.0837,-4.0748,-4.0804,-4.0863,-4.094,-4.1,-4.1062,-4.1104,-4.1111,-4.1152,-4.1191,-4.1191,-4.1055,-4.0293,-3.8223,-3.6289,0.0,0.0,0.0,0.0,0.0,0.0,0.0,0.0,0.0,0.0,0.0,0.0,0.0,0.0,0.0,0.0,0.0,0.0,0.0,0.0,0.0,-3.6641,-3.8574,0.0,-4.2832,-4.3711,-4.5469,-4.6308,-4.6308,-4.6308,-4.6308,-4.6308,-4.6308,-4.6308,-4.6308,-4.6308,-4.6308,-4.6308,-4.6308,-4.6308,-4.6308,-4.6308,-4.6308,-4.6308,0.0,0.0,0.0,0.0,0.0,0.0,-4.3711,-4.4355,-4.4199,-4.3652,-4.3574,-4.3613,-4.3691,-4.3691,-4.3691,-4.3691,-4.3691,-4.3691,-4.3691,-4.3691,-4.3652,-4.3574,-4.3574,-4.2793,-4.1113,-4.0137,-3.7988,0.0,0.0,-2.9316,0.0,-2.5857,-2.6213,-2.7688,-2.9608,0.0,0.0,-3.5352,-3.7277,-3.9601,-3.975,-4.0327,-4.1102,-4.1171,-4.1641,-4.2285,-4.2285,-4.2793,-4.3476,-4.3476,-4.2419,-4.1098,-4.1091,-4.1,-4.091,-4.0909,-4.0897,-4.0878,-4.0891,-4.0951,-4.1013,-4.106,-4.1101,-4.1111,-4.1172,-4.1191,-4.1191,-4.1191,-4.0566,-3.9941,-3.9707,-3.7598,-3.582,0.0,0.0,0.0,0.0,0.0,0.0,0.0,0.0,0.0,0.0,0.0,0.0,0.0,0.0,0.0,0.0,0.0,0.0,-3.0976,-3.3496,-3.6035,-3.8574,-4.1133,-4.2832,-4.3711,-4.5469,-4.6308,-4.6308,-4.6308,-4.6308,-4.6308,-4.6308,-4.6308,-4.6308,-4.6308,-4.6308,-4.6308,-4.6308,-4.6308,-4.6308,-4.6308,-4.6308,-4.6308,0.0,0.0,0.0,0.0,0.0,0.0,0.0,-4.5625,-4.5527,-4.5293,-4.5254,-4.5254,-4.5254,-4.5254,-4.5254,-4.5254,-4.5254,-4.5254,-4.5254,-4.5254,-4.5039,-4.4492,-4.4473,-4.3926,-4.2734,-4.1367,-3.9746,0.0,0.0,0.0,0.0,-2.9237,-2.9717,-3.1383,-3.3064,-3.4945,-3.6923,-3.8289,-3.9796,-4.1303,-4.1852,-4.2319,-4.2656,-4.2692,-4.2909,-4.3183,-4.3183,-4.3398,-4.3691,-4.3691,-4.3241,-4.265,-4.2666,-4.2627,-4.2476,-4.1953,-4.1779,-4.163,-4.1142,-4.1035,-4.1062,-4.1098,-4.1108,-4.1112,-4.1172,-4.1191,-4.1191,-4.1191,-4.0918,-4.0527,-4.0,-3.8613,-3.7383,-3.6875,0.0,0.0,0.0,0.0,0.0,0.0,0.0,0.0,0.0,0.0,0.0,0.0,0.0,-2.3125,-2.3164,-2.6426,0.0,-3.084,0.0,-3.543,-3.8574,-4.0644,-4.2363,-4.3711,-4.5469,-4.6308,-4.6308,-4.6308,-4.6308,-4.6308,-4.6308,-4.6308,-4.6308,-4.6308,-4.6308,-4.6308,-4.6308,-4.6308,-4.6308,-4.6308,-4.6308,-4.6308,-3.7851,0.0,-4.0566,0.0,-4.6308,-4.6308,-4.6308,-4.6308,-4.6308,-4.6308,-4.6308,-4.6308,-4.6308,-4.6308,-4.6308,-4.6308,-4.6308,-4.6308,-4.6308,-4.6308,-4.6035,-4.541,-4.5371,0.0,-4.4101,-4.293,-4.1758,-4.0644,-3.7676,0.0,-3.3672,-3.2812,-3.3296,-3.4999,-3.6417,-3.7979,-3.9629,-4.08,-4.184,-4.2747,-4.3358,-4.3631,-4.37,-4.3703,-4.3864,-4.408,-4.4082,-4.4258,-4.4453,-4.4453,-4.4453,-4.4374,-4.3864,-4.37,-4.3573,-4.296,-4.2758,-4.2598,-4.2018,-4.1677,-4.1471,-4.1479,-4.1306,-4.1132,-4.1191,-4.1191,-4.1191,-4.1191,-4.1191,-4.1016,-4.0391,-3.9355,-3.8398,-3.7773,0.0,0.0,0.0,0.0,0.0,0.0,0.0,-2.7753,0.0,0.0,0.0,0.0,0.0,-2.416,-2.3945,-2.7207,0.0,0.0,0.0,0.0,-3.8574,-4.0566,-4.2285,-4.3711,-4.5469,-4.6308,-4.6308,-4.6308,-4.6308,-4.6308,-4.6308,-4.6308,-4.6308,-4.6308,-4.6308,-4.6308,-4.6308,-4.6308,-4.6308,-4.6308,-4.6308,-4.6308,-4.1133,-4.3867,-4.6191,-4.6289,-4.6308,-4.6308,-4.6308,-4.6308,-4.6308,-4.6308,-4.6308,-4.6308,-4.6308,-4.6308,-4.6308,-4.6308,-4.6308,-4.6308,-4.6308,-4.6308,-4.6308,0.0,0.0,-4.5879,-4.5,-4.4961,-4.4101,-4.2363,0.0,0.0,-3.7226,-3.6347,-3.6873,-3.8569,-3.9393,-4.0676,-4.2248,-4.2276,-4.2785,-4.358,-4.3595,-4.3646,-4.3693,-4.3697,-4.4234,-4.4979,-4.498,-4.5547,-4.6269,-4.6269,-4.6269,-4.5976,-4.4237,-4.3705,-4.3697,-4.3697,-4.3678,-4.3678,-4.3678,-4.304,-4.2381,-4.2381,-4.1796,-4.1191,-4.1191,-4.1191,-4.1191,-4.1191,-4.1191,-4.1191,-4.1191,-3.9766,-3.8594,-3.8594,0.0,0.0,0.0,0.0,0.0,0.0,-2.9587,-2.8904,-2.7147,0.0,0.0,0.0,0.0,-2.6582,-2.5723,0.0,0.0,-3.2168,-3.4648,0.0,-3.8574,-4.1113,-4.2832,-4.3711,-4.5469,-4.6308,-4.6308,-4.6308,-4.6308,-4.6308,-4.6308,-4.6308,-4.6308,-4.6308,-4.6308,-4.6308,-4.6308,-4.6308,-4.6308,-4.6308,-4.6308,-4.6308,-4.4687,-4.5547,-4.6308,-4.6308,-4.6308,-4.6308,-4.6308,-4.6308,-4.6308,-4.6308,-4.6308,-4.6308,-4.6308,-4.6308,-4.6308,0.0,-4.6308,-4.6308,0.0,-4.6308,-4.6308,-4.6308,-4.6308,-4.6172,-4.5898,-4.5293,-4.4726,-4.418,0.0,0.0,-3.9961,-4.0234,-4.0663,-4.1227,-4.2082,-4.3066,-4.4079,-4.4075,-4.4585,-4.5371,-4.5361,-4.5396,-4.5419,-4.5467,-4.5636,-4.5894,-4.5898,-4.6055,-4.6308,-4.6308,-4.6308,-4.6191,-4.5644,-4.5468,-4.537,-4.4764,-4.4588,-4.4452,-4.3866,-4.3495,-4.3281,-4.3281,-4.2656,-4.2012,-4.2012,-4.1582,-4.1191,-4.1191,-4.1191,-4.1191,-4.1191,-3.9785,-3.8594,-3.8594,-3.664,0.0,0.0,0.0,0.0,0.0,0.0,-2.9157,0.0,-2.7889,0.0,0.0,0.0,0.0,0.0,0.0,0.0,0.0,-3.5272,0.0,-4.0289,-4.1696,-4.3142,-4.4608,-4.5741,-4.6308,-4.6308,-4.6308,-4.6308,-4.6308,-4.6308,-4.6308,-4.6308,-4.6308,-4.6308,-4.6308,-4.6308,-4.6308,-4.6308,-4.6308,-4.6308,-4.6308,-4.6308,-4.6308,-4.6308,-4.6308,-4.6308,-4.6308,-4.6308,-4.6308,-4.6308,-4.6308,-4.6308,-4.6308,-4.6308,-4.6308,0.0,-4.6308,-4.6308,-4.6308,-4.6308,-4.6308,-4.6308,-4.6308,-4.6308,-4.6308,-4.6308,-4.5762,0.0,-4.5488,-4.4062,-4.2949,-4.2168,-4.2988,-4.3379,-4.3417,-4.4294,-4.4954,-4.5434,-4.5437,-4.5735,-4.6248,-4.6203,-4.6226,-4.6238,-4.6285,-4.6297,-4.6303,-4.6308,-4.6308,-4.6308,-4.6308,-4.6308,-4.6308,-4.6308,-4.6308,-4.6191,-4.5644,-4.5488,-4.5371,-4.4824,-4.4433,-4.4199,-4.4199,-4.3535,-4.2793,-4.2461,-4.1777,-4.1191,-4.1191,-4.1191,-4.1191,-4.1191,-3.9785,-3.8594,-3.8594,-3.6405,-3.4392,-3.3512,0.0,0.0,0.0,0.0,0.0,0.0,-3.0213,-3.0447,0.0,0.0,0.0,0.0,0.0,-3.3535,-3.5135,-3.6966,-3.8933,-4.1076,-4.2599,-4.3892,-4.4973,-4.5875,-4.6307,-4.6308,-4.6308,-4.6308,-4.6308,-4.6308,-4.6308,-4.6308,-4.6308,-4.6308,-4.6308,-4.6308,-4.6308,-4.6308,-4.6308,-4.6308,-4.6308,-4.6308,-4.6308,-4.6308,-4.6308,-4.6308,-4.6308,-4.6308,-4.6308,-4.6308,-4.6308,-4.6308,-4.6308,-4.6308,-4.6308,-4.6308,-4.6308,0.0,0.0,-4.6308,-4.6308,-4.6308,-4.6308,-4.6308,-4.6308,-4.6308,-4.6308,-4.6308,-4.6308,-4.5488,-4.4687,-4.3906,-4.4707,-4.5098,-4.5137,-4.5937,-4.6307,-4.6307,-4.63,-4.629,-4.6282,-4.6234,-4.6247,-4.631,-4.6308,-4.6297,-4.6303,-4.6308,-4.6308,-4.6308,-4.6308,-4.6308,-4.6308,-4.6308,-4.6308,-4.6308,-4.6308,-4.6308,-4.6308,-4.6308,-4.5703,-4.5098,-4.5098,-4.4433,-4.3555,-4.2617,-4.1816,-4.1269,-4.1211,-4.1191,-4.1191,-4.1191,-3.9785,-3.8594,-3.8594,-3.6405,-3.4429,-3.3609,0.0,0.0,0.0,0.0,0.0,-3.3416,-3.3533,-3.3591,0.0,0.0,0.0,0.0,0.0,-3.6347,-3.6345,-3.9433,-4.1174,-4.1356,-4.3719,-4.4938,-4.5008,-4.5871,-4.6306,-4.6307,-4.6308,-4.6308,-4.6308,-4.6308,-4.6308,-4.6308,-4.6308,-4.6308,-4.6308,-4.6308,-4.6308,-4.6308,-4.6308,-4.6308,-4.6308,-4.6308,-4.6308,-4.6308,-4.6308,-4.6308,-4.6308,-4.6308,-4.6308,-4.6308,-4.6308,-4.6308,-4.6308,-4.6308,-4.6308,-4.6308,-4.6308,-4.6308,-4.6308,-4.6308,-4.6308,-4.6308,-4.6308,-4.6308,-4.6308,-4.6308,-4.6308,-4.6308,-4.6308,-4.6094,-4.5898,-4.5683,-4.5898,-4.5996,-4.5996,-4.6211,-4.6308,-4.6308,-4.6306,-4.6302,-4.6297,-4.6272,-4.6288,-4.6308,-4.6297,-4.6303,-4.6306,-4.6308,-4.6308,-4.6308,-4.6308,-4.6308,-4.6308,-4.6308,-4.6308,-4.6308,-4.6308,-4.6308,-4.6308,-4.6308,-4.6152,-4.5996,-4.5996,-4.5332,-4.4297,-4.2754,-4.2246,-4.1933,-4.1328,-4.1191,-4.1191,-4.1191,-3.9785,-3.8594,-3.8594,-3.6406,-3.4627,-3.4412,-3.3648,0.0,0.0,-3.3688,-3.4178,-3.4374,-3.4995,-3.5632,0.0,0.0,0.0,-3.7845,-3.9172,-3.9882,-3.989,-4.0627,-4.1958,-4.3906,-4.4518,-4.5179,-4.5889,-4.612,-4.6256,-4.6303,-4.6307,-4.6308,-4.6308,-4.6308,-4.6308,-4.6308,-4.6308,-4.6308,-4.6308,-4.6308,-4.6308,-4.6307,-4.6307,-4.6305,-4.63,-4.6308,-4.6308,-4.6308,-4.6308,-4.6308,-4.6308,-4.6308,-4.6308,-4.6308,-4.6308,-4.6308,-4.6308,-4.6308,-4.6308,-4.6308,-4.6308,-4.6308,-4.6308,-4.6308,-4.6308,-4.6308,-4.6308,-4.6308,-4.6308,-4.6308,-4.6308,-4.6308,-4.6308,-4.6308,-4.6308,-4.6308,-4.6308,-4.6308,-4.6308,-4.6308,-4.6308,-4.6308,-4.6308,-4.6307,-4.6305,-4.6302,-4.63,-4.6297,-4.6303,-4.6306,-4.6307,-4.6308,-4.6308,-4.6308,-4.6308,-4.6308,-4.6308,-4.6308,-4.6308,-4.6308,-4.6308,-4.6308,-4.6308,-4.6308,-4.6308,-4.6308,-4.6308,-4.5644,-4.4746,-4.3808,-4.3281,-4.2754,-4.1914,-4.1758,-4.1641,-4.1269,-3.9785,-3.8594,-3.8594,-3.6406,-3.4706,-3.4706,-3.3942,-3.3707,-3.449,-3.5018,-3.5604,-3.6406,-3.6909,-3.7369,-3.777,-3.7784,0.0,-3.9611,-4.0596,-4.1092,-4.1051,-4.2125,-4.3343,-4.4701,-4.5104,-4.5594,-4.615,-4.6187,-4.6241,-4.6299,-4.6305,-4.6308,-4.6308,-4.6308,-4.6308,-4.6308,-4.6308,-4.6308,-4.6308,-4.6308,-4.6308,-4.6307,-4.6305,-4.628,-4.6248,-4.6308,-4.6308,-4.6308,-4.6308,-4.6308,-4.6308,-4.6308,-4.6308,-4.6308,-4.6308,-4.6308,-4.6308,-4.6308,-4.6308,-4.6308,-4.6308,-4.6308,-4.6308,-4.6308,-4.6308,-4.6308,-4.6308,-4.6308,-4.6308,-4.6308,-4.6308,-4.6308,-4.6308,-4.6308,-4.6308,-4.6308,-4.6308,-4.6308,-4.6308,-4.6308,-4.6308,-4.6308,-4.6308,-4.6308,-4.6307,-4.6307,-4.6306,-4.6304,-4.6307,-4.6307,-4.6307,-4.6308,-4.6308,-4.6308,-4.6308,-4.6308,-4.6308,-4.6308,-4.6308,-4.6308,-4.6308,-4.6308,-4.6308,-4.6308,-4.6308,-4.6308,-4.6308,-4.5742,-4.5156,-4.5039,-4.4433,-4.3652,-4.2773,-4.2598,-4.2344,-4.1523,-4.0078,-3.8906,-3.8633,-3.6523,-3.494,-3.5077,0.0,-3.4431,-3.619,-3.6503,-3.7167,-3.8652,-3.9021,-3.9149,-3.91,-3.9197,-3.9926,-4.1415,-4.1612,-4.1638,-4.1581,-4.3604,-4.4738,-4.4776,-4.5535,-4.5966,-4.6089,-4.6151,-4.6223,-4.6291,-4.6303,-4.6307,-4.6308,-4.6308,-4.6308,-4.6308,-4.6308,-4.6308,-4.6308,-4.6308,-4.6308,-4.6305,-4.6282,-4.6249,-4.6186,-4.6308,-4.6308,-4.6308,-4.6308,-4.6308,-4.6308,-4.6308,-4.6308,-4.6308,-4.6308,-4.6308,-4.6308,-4.6308,-4.6308,-4.6308,-4.6308,-4.6308,-4.6308,-4.6308,-4.6308,-4.6308,-4.6308,-4.6308,-4.6308,-4.6308,-4.6308,-4.6308,-4.6308,-4.6308,-4.6308,-4.6308,-4.6308,-4.6308,-4.6308,-4.6308,-4.6308,-4.6308,-4.6308,-4.6308,-4.6308,-4.6308,-4.6308,-4.6308,-4.6308,-4.6308,-4.6308,-4.6308,-4.6308,-4.6308,-4.6308,-4.6308,-4.6308,-4.6308,-4.6308,-4.6308,-4.6308,-4.6308,-4.6308,-4.6308,-4.6308,-4.6308,-4.6308,-4.6191,-4.5918,-4.5176,-4.4902,-4.4551,-4.3672,-4.3496,-4.3242,-4.2363,-4.1445,-4.0312,-3.8848,-3.7012,-3.6055,-3.6797,0.0,-3.623,-3.7988,-3.8848,-3.9394,-3.9668,-4.0972,-4.1801,-4.1791,-4.2427,-4.2946,-4.3279,-4.3941,-4.4288,-4.4217,-4.4524,-4.4998,-4.5604,-4.5802,-4.5943,-4.6012,-4.6131,-4.622,-4.6225,-4.6279,-4.6306,-4.6308,-4.6308,-4.6308,-4.6308,-4.6308,-4.6308,-4.6308,-4.6308,-4.6306,-4.6295,-4.6249,-4.617,-4.6103,-4.6308,-4.6308,-4.6308,-4.6308,-4.6308,-4.6308,-4.6308,-4.6308,-4.6308,-4.6308,-4.6308,-4.6308,-4.6308,-4.6308,-4.6308,-4.6308,-4.6308,-4.6308,-4.6308,-4.6308,-4.6308,-4.6308,-4.6308,-4.6308,-4.6308,-4.6308,-4.6308,-4.6308,-4.6308,-4.6308,-4.6308,-4.6308,-4.6308,-4.6308,-4.6308,-4.6308,-4.6308,-4.6308,-4.6308,-4.6308,-4.6308,-4.6308,-4.6308,-4.6308,-4.6308,-4.6308,-4.6308,-4.6308,-4.6308,-4.6308,-4.6308,-4.6308,-4.6308,-4.6308,-4.6308,-4.6308,-4.6308,-4.6308,-4.6308,-4.6308,-4.6308,-4.6308,-4.6308,-4.6191,-4.5781,-4.5703,-4.5449,-4.457,-4.4394,-4.4121,-4.3262,-4.2051,-4.0937,-4.0137,-3.8535,-3.7539,-3.7949,-3.7656,-3.8047,-3.9785,-4.0351,-4.0957,-4.1855,-4.2654,-4.3098,-4.3093,-4.343,-4.3874,-4.4371,-4.4745,-4.5145,-4.5543,-4.5385,-4.5434,-4.5739,-4.5852,-4.5937,-4.6003,-4.6138,-4.6226,-4.6249,-4.6282,-4.6307,-4.6308,-4.6308,-4.6308,-4.6308,-4.6308,-4.6308,-4.6308,-4.6308,-4.6306,-4.6291,-4.622,-4.6125,-4.6032,-4.6308,-4.6308,-4.6308,-4.6308,-4.6308,-4.6308,-4.6308,-4.6308,-4.6308,-4.6308,-4.6308,-4.6308,-4.6308,-4.6308,-4.6308,-4.6308,-4.6308,-4.6308,-4.6308,-4.6308,-4.6308,-4.6308,-4.6308,-4.6308,-4.6308,-4.6308,-4.6308,-4.6308,-4.6308,-4.6308,-4.6308,-4.6308,-4.6308,-4.6308,-4.6308,-4.6308,-4.6308,-4.6308,-4.6308,-4.6308,-4.6308,-4.6308,-4.6308,-4.6308,-4.6308,-4.6308,-4.6308,-4.6308,-4.6308,-4.6308,-4.6308,-4.6308,-4.6308,-4.6308,-4.6308,-4.6308,-4.6308,-4.6308,-4.6308,-4.6308,-4.6308,-4.6308,-4.6308,-4.6308,-4.6308,-4.6308,-4.6113,-4.5449,-4.5293,-4.5039,-4.416,-4.2949,-4.1953,-4.1543,0.0,-3.9473,-3.9473,-3.9473,-4.0059,-4.1601,-4.1777,-4.2285,-4.3574,-4.3886,-4.4001,-4.3999,-4.4191,-4.4598,-4.5264,-4.5293,-4.5571,-4.6167,-4.595,-4.5791,-4.5742,-4.5867,-4.5958,-4.6026,-4.6148,-4.6243,-4.6295,-4.6305,-4.6308,-4.6308,-4.6308,-4.6308,-4.6308,-4.6308,-4.6308,-4.6308,-4.6308,-4.6286,-4.6269,-4.621,-4.6102,-4.5963,-4.6308,-4.6308,-4.6308,-4.6308,-4.6308,-4.6308,-4.6308,-4.6308,-4.6308,-4.6308,-4.6308,-4.6308,-4.6308,-4.6308,-4.6308,-4.6308,-4.6308,-4.6308,-4.6308,-4.6308,-4.6308,-4.6308,-4.6308,-4.6308,-4.6308,-4.6308,-4.6308,-4.6308,-4.6308,-4.6308,-4.6308,-4.6308,-4.6308,-4.6308,-4.6308,-4.6308,-4.6308,-4.6308,-4.6308,-4.6308,-4.6308,-4.6308,-4.6308,-4.6308,-4.6308,-4.6308,-4.6308,-4.6308,-4.6308,-4.6308,-4.6308,-4.6308,-4.6308,-4.6308,-4.6308,-4.6308,-4.6308,-4.6308,-4.6308,-4.6308,-4.6308,-4.6308,-4.6308,-4.6308,-4.6308,-4.6308,-4.6289,-4.6211,-4.6191,-4.5937,-4.5058,-4.4805,-4.4199,-4.2578,0.0,0.0,-4.2129,-4.2129,-4.2461,-4.3398,-4.3516,-4.3555,-4.3691,-4.4433,-4.4901,-4.49,-4.5659,-4.6147,-4.6209,-4.6209,-4.6179,-4.6115,-4.5975,-4.5899,-4.5893,-4.5958,-4.6027,-4.6095,-4.6164,-4.6241,-4.6301,-4.6305,-4.6308,-4.6308,-4.6308,-4.6308,-4.6308,-4.6308,-4.6308,-4.6308,-4.6308,-4.6265,-4.6202,-4.6199,-4.608,-4.5892,-4.6308,-4.6308,-4.6308,-4.6308,-4.6308,-4.6308,-4.6308,-4.6308,-4.6308,-4.6308,-4.6308,-4.6308,-4.6308,-4.6308,-4.6308,-4.6308,-4.6308,-4.6308,-4.6308,-4.6308,-4.6308,-4.6308,-4.6308,-4.6308,-4.6308,-4.6308,-4.6308,-4.6308,-4.6308,-4.6308,-4.6308,-4.6308,-4.6308,-4.6308,-4.6308,-4.6308,-4.6308,-4.6308,-4.6308,-4.6308,-4.6308,-4.6308,-4.6308,-4.6308,-4.6308,-4.6308,-4.6308,-4.6308,-4.6308,-4.6308,-4.6308,-4.6308,-4.6308,-4.6308,-4.6308,-4.6308,-4.6308,-4.6308,-4.6308,-4.6308,-4.6308,-4.6308,-4.6308,-4.6308,-4.6308,-4.6308,-4.6308,-4.6308,-4.6308,-4.6191,-4.5879,-4.5351,-4.4785,-4.4121,0.0,-4.3203,-4.3203,-4.3203,-4.3535,-4.4394,-4.4512,-4.4726,-4.5254,-4.5605,-4.58,-4.58,-4.6112,-4.6308,-4.6308,-4.6306,-4.6251,-4.6164,-4.6109,-4.6052,-4.5958,-4.6078,-4.6141,-4.6164,-4.622,-4.6278,-4.6305,-4.6308,-4.6308,-4.6308,-4.6308,-4.6308,-4.6308,-4.6308,-4.6308,-4.6308,-4.6308,-4.6262,-4.6199,-4.6159,-4.6035,-4.5899,-4.6308,-4.6308,-4.6308,-4.6308,-4.6308,-4.666,-4.7734,-4.7891,-4.7773,-4.7402,-4.7363,-4.7305,-4.7129,-4.7129,-4.7129,-4.7129,-4.7129,-4.7129,-4.7129,-4.7129,-4.6875,-4.6328,-4.6308,-4.6308,-4.6308,-4.6308,-4.6308,-4.6308,-4.6308,-4.6308,-4.6308,-4.6308,-4.6308,-4.6308,-4.6308,-4.6308,-4.6308,-4.6308,-4.6308,-4.6308,-4.6308,-4.6308,-4.6308,-4.6308,-4.6308,-4.6308,-4.6308,-4.6308,-4.6308,-4.6308,-4.6308,-4.6308,-4.6308,-4.6308,-4.6308,-4.6308,-4.6308,-4.6308,-4.6308,-4.6308,-4.6308,-4.6308,-4.6308,-4.6308,-4.6308,-4.6308,-4.6308,-4.6308,-4.6308,-4.6308,-4.6308,-4.5801,-4.541,-4.541,-4.4902,-4.4512,-4.4512,-4.4512,-4.4746,-4.5332,-4.541,-4.5644,-4.623,-4.6308,-4.6308,-4.6308,-4.6308,-4.6308,-4.6308,-4.6306,-4.628,-4.6227,-4.6223,-4.6197,-4.6107,-4.6167,-4.6219,-4.6222,-4.6277,-4.6304,-4.6307,-4.6307,-4.6308,-4.6308,-4.6308,-4.6308,-4.6308,-4.6308,-4.6308,-4.6308,-4.6307,-4.6259,-4.6193,-4.6125,-4.6012,-4.588,-4.6308,-4.6308,-4.6308,-4.6308,-4.6328,-4.748,-5.0879,-5.1387,-5.0976,-4.9844,-4.9707,-4.9492,-4.8965,-4.8906,-4.8906,-4.8906,-4.8906,-4.8906,-4.8906,-4.8906,-4.8125,-4.6406,-4.6328,-4.6328,-4.6328,-4.6328,-4.6328,-4.6328,-4.6328,-4.6328,-4.6328,-4.6328,-4.6328,-4.6328,-4.6328,-4.6328,-4.6328,-4.6328,-4.6328,-4.6328,-4.6328,-4.6328,-4.6328,-4.6328,-4.6328,-4.6328,-4.6328,-4.6328,-4.6328,-4.6328,-4.6328,-4.6328,-4.6328,-4.6328,-4.6308,-4.6308,-4.6308,-4.6308,-4.6308,-4.6308,-4.6308,-4.6308,-4.6308,-4.6308,-4.6308,-4.6308,-4.6308,-4.6308,-4.6308,-4.6308,-4.6308,-4.6308,-4.6308,-4.6308,-4.6308,-4.6308,-4.6308,-4.6308,-4.6308,-4.6308,-4.6308,-4.6308,-4.6308,-4.6308,-4.6308,-4.6308,-4.6308,-4.6308,-4.6307,-4.6307,-4.6304,-4.6294,-4.63,-4.63,-4.6293,-4.6227,-4.6231,-4.6301,-4.6301,-4.6304,-4.6307,-4.6304,-4.6304,-4.6307,-4.6307,-4.6308,-4.6308,-4.6308,-4.6308,-4.6308,-4.6307,-4.6257,-4.6182,-4.6118,-4.6022,-4.5886,-4.6308,-4.6308,-4.6308,-4.6308,-4.8281,-5.0215,-5.123,-5.0723,-5.0098,-4.9746,-4.9375,-4.9082,-4.8926,-4.8906,-4.8906,-4.8906,-4.8906,-4.8906,-4.8906,-4.8906,-4.8672,-4.8144,-4.8125,-4.8125,-4.8125,-4.8125,-4.8125,-4.8125,-4.8125,-4.8125,-4.8125,-4.8125,-4.8125,-4.8125,-4.8125,-4.8125,-4.8125,-4.8125,-4.8125,-4.8125,-4.8125,-4.8125,-4.8125,-4.8125,-4.8125,-4.8125,-4.8125,-4.8125,-4.8125,-4.8125,-4.8125,-4.8125,-4.8125,-4.7695,-4.7207,-4.7207,-4.6777,-4.6308,-4.6308,-4.6308,-4.6308,-4.6308,-4.6308,-4.6308,-4.6308,-4.6308,-4.6308,-4.6308,-4.6308,-4.6308,-4.6308,-4.6308,-4.6308,-4.6308,-4.6308,-4.6308,-4.6308,-4.6308,-4.6308,-4.6308,-4.6308,-4.6308,-4.6308,-4.6308,-4.6308,-4.6308,-4.6308,-4.6308,-4.6308,-4.6308,-4.6308,-4.6307,-4.6307,-4.6307,-4.6304,-4.6284,-4.6283,-4.6301,-4.6301,-4.6301,-4.6299,-4.6296,-4.63,-4.6304,-4.6306,-4.6308,-4.6308,-4.6308,-4.6308,-4.6308,-4.6306,-4.6254,-4.618,-4.6111,-4.6026,-4.5886,-4.6973,-4.7168,-4.7539,-4.8203,-5.0039,-5.1406,-5.1406,-5.082,-5.0371,-5.0371,-5.0098,-4.9883,-4.9883,-4.9883,-4.9883,-4.9883,-4.9883,-4.9883,-4.9883,-4.9883,-4.9883,-4.9883,-4.9883,-4.957,-4.8906,-4.8906,-4.8906,-4.8906,-4.8906,-4.8906,-4.8906,-4.8906,-4.8906,-4.8906,-4.8906,-4.8906,-4.8906,-4.8906,-4.8906,-4.8906,-4.8906,-4.8906,-4.8906,-4.8906,-4.8906,-4.8906,-4.8906,-4.8906,-4.8906,-4.8906,-4.8906,-4.8906,-4.8906,-4.8535,-4.8105,-4.8105,-4.7734,-4.7246,-4.6914,-4.6816,-4.6738,-4.6387,-4.6308,-4.6308,-4.6308,-4.6308,-4.6308,-4.6308,-4.6308,-4.6308,-4.6308,-4.6308,-4.6308,-4.6308,-4.6308,-4.6308,-4.6308,-4.6308,-4.6308,-4.6308,-4.6308,-4.6308,-4.6308,-4.6308,-4.6308,-4.6308,-4.6308,-4.6308,-4.6308,-4.6308,-4.6308,-4.6308,-4.6308,-4.6308,-4.6307,-4.6306,-4.6303,-4.6299,-4.6274,-4.6269,-4.6264,-4.6261,-4.6267,-4.6299,-4.6304,-4.6307,-4.6308,-4.6308,-4.6308,-4.6308,-4.6305,-4.6251,-4.618,-4.6126,-4.6012,-4.5887,-4.8125,-4.8594,-4.9473,-5.1113,-5.1406,-5.1406,-5.1406,-5.1406,-5.1406,-5.1406,-5.1406,-5.1406,-5.1406,-5.1406,-5.1406,-5.1406,-5.1406,-5.1406,-5.1406,-5.1406,-5.1406,-5.1406,-5.1406,-5.0683,-4.916,-4.9121,-4.9121,-4.9121,-4.9121,-4.9121,-4.9121,-4.9121,-4.9121,-4.9121,-4.9121,-4.9121,-4.9121,-4.9121,-4.9121,-4.9121,-4.9121,-4.9121,-4.9121,-4.9121,-4.9121,-4.9121,-4.9121,-4.9121,-4.9121,-4.9121,-4.9121,-4.9121,-4.9121,-4.9062,-4.9023,-4.9023,-4.8965,-4.873,-4.793,-4.7715,-4.7539,-4.6738,-4.6523,-4.6484,-4.6348,-4.6308,-4.6308,-4.6308,-4.6308,-4.6308,-4.6308,-4.6308,-4.6308,-4.6308,-4.6308,-4.6308,-4.6308,-4.6308,-4.6308,-4.6308,-4.6308,-4.6308,-4.6308,-4.6308,-4.6308,-4.6308,-4.6308,-4.6308,-4.6308,-4.6308,-4.6308,-4.6308,-4.6308,-4.6308,-4.6306,-4.6284,-4.6297,-4.6291,-4.6234,-4.6204,-4.6201,-4.6192,-4.6225,-4.6293,-4.63,-4.6306,-4.6308,-4.6308,-4.6308,-4.6308,-4.6305,-4.6252,-4.6184,-4.6125,-4.6022,-4.5899,-4.9101,-4.9433,-4.9922,-5.1172,-5.1406,-5.1406,-5.1406,-5.1406,-5.1406,-5.1406,-5.1406,-5.1406,-5.1406,-5.1406,-5.1406,-5.1406,-5.1406,-5.1406,-5.1406,-5.1406,-5.1406,-5.1406,-5.1406,-5.123,-5.0879,-5.0859,-5.0859,-5.0859,-5.0859,-5.0859,-5.0859,-5.0859,-5.0859,-5.0859,-5.0859,-5.0859,-5.0859,-5.0859,-5.0859,-5.0859,-5.0859,-5.0859,-5.0859,-5.0859,-5.0859,-5.0859,-5.0859,-5.0859,-5.0859,-5.0859,-5.0859,-5.0859,-5.0859,-5.043,-4.9922,-4.9922,-4.9433,-4.8867,-4.8672,-4.8613,-4.8574,-4.8379,-4.834,-4.7988,-4.6601,-4.6308,-4.6308,-4.6308,-4.6308,-4.6308,-4.6308,-4.6308,-4.6308,-4.6308,-4.6308,-4.6308,-4.6308,-4.6308,-4.6308,-4.6308,-4.6308,-4.6308,-4.6308,-4.6308,-4.6308,-4.6308,-4.6308,-4.6308,-4.6308,-4.6308,-4.6308,-4.6308,-4.6308,-4.6308,-4.6303,-4.6254,-4.6223,-4.6214,-4.6209,-4.6209,-4.6196,-4.6206,-4.6214,-4.6227,-4.6278,-4.6306,-4.6308,-4.6308,-4.6308,-4.6308,-4.6307,-4.6259,-4.6195,-4.6173,-4.6059,-4.5885,-4.9785,-5.0254,-5.0703,-5.1308,-5.1406,-5.1406,-5.1406,-5.1406,-5.1406,-5.1406,-5.1406,-5.1406,-5.1406,-5.1406,-5.1406,-5.1406,-5.1406,-5.1406,-5.1406,-5.1406,-5.1406,-5.1406,-5.1406,-5.1406,-5.1406,-5.1406,-5.1406,-5.1406,-5.1406,-5.1406,-5.1406,-5.1406,-5.1406,-5.1406,-5.1406,-5.1406,-5.1406,-5.1406,-5.1406,-5.1406,-5.1406,-5.1406,-5.1406,-5.1406,-5.1406,-5.1406,-5.1406,-5.1406,-5.1406,-5.1406,-5.1406,-5.1406,-5.1406,-5.1113,-5.0762,-5.0762,-5.0449,-5.0019,-4.9629,-4.9512,-4.9414,-4.9004,-4.8906,-4.8555,-4.7226,-4.6914,-4.6797,-4.6387,-4.6308,-4.6308,-4.6308,-4.6308,-4.6308,-4.6308,-4.6308,-4.6308,-4.6308,-4.6308,-4.6308,-4.6308,-4.6308,-4.6308,-4.6308,-4.6308,-4.6308,-4.6308,-4.6308,-4.6308,-4.6308,-4.6308,-4.6308,-4.6308,-4.6308,-4.6308,-4.6301,-4.6231,-4.6193,-4.6209,-4.6177,-4.618,-4.6199,-4.6206,-4.6219,-4.6249,-4.6281,-4.6307,-4.6308,-4.6308,-4.6308,-4.6308,-4.6307,-4.6283,-4.6231,-4.6201,-4.6096,-4.5944,-5.0371,-5.0937,-5.1406,-5.1406,-5.1406,-5.1406,-5.1406,-5.1406,-5.1406,-5.1406,-5.1406,-5.1406,-5.1406,-5.1406,-5.1406,-5.1406,-5.1406,-5.1406,-5.1406,-5.1406,-5.1406,-5.1406,-5.1406,-5.1406,-5.1406,-5.1406,-5.1406,-5.1406,-5.1406,-5.1406,-5.1406,-5.1406,-5.1406,-5.1406,-5.1406,-5.1406,-5.1406,-5.1406,-5.1406,-5.1406,-5.1406,-5.1406,-5.1406,-5.1406,-5.1406,-5.1406,-5.1406,-5.1406,-5.1406,-5.1406,-5.1406,-5.1406,-5.1406,-5.1406,-5.1406,-5.1406,-5.1406,-5.125,-5.0586,-5.041,-5.0234,-4.9512,-4.9336,-4.9101,-4.8242,-4.793,-4.7617,-4.6894,-4.6738,-4.6699,-4.6543,-4.6523,-4.6465,-4.6328,-4.6308,-4.6308,-4.6308,-4.6308,-4.6308,-4.6308,-4.6308,-4.6308,-4.6308,-4.6308,-4.6308,-4.6308,-4.6308,-4.6308,-4.6308,-4.6308,-4.6308,-4.6308,-4.6308,-4.6308,-4.6303,-4.6231,-4.6208,-4.6192,-4.6137,-4.615,-4.6203,-4.6198,-4.623,-4.6295,-4.6305,-4.6308,-4.6308,-4.6308,-4.6308,-4.6308,-4.6307,-4.6305,-4.6299,-4.6214,-4.6121,-4.6022,-5.1094,-5.1328,-5.1406,-5.1406,-5.1406,-5.1406,-5.1406,-5.1406,-5.1406,-5.1406,-5.1406,-5.1406,-5.1406,-5.1406,-5.1406,-5.1406,-5.1406,-5.1406,-5.1406,-5.1406,-5.1406,-5.1406,-5.1406,-5.1406,-5.1406,-5.1406,-5.1406,-5.1406,-5.1406,-5.1406,-5.1406,-5.1406,-5.1406,-5.1406,-5.1406,-5.1406,-5.1406,-5.1406,-5.1406,-5.1406,-5.1406,-5.1406,-5.1406,-5.1406,-5.1406,-5.1406,-5.1406,-5.1406,-5.1406,-5.1406,-5.1406,-5.1406,-5.1406,-5.1406,-5.1406,-5.1406,-5.1406,-5.1387,-5.1269,-5.123,-5.1211,-5.1094,-5.1055,-5.0859,-5.0039,-4.9277,-4.8691,-4.8574,-4.8555,-4.832,-4.7558,-4.7422,-4.7187,-4.6426,-4.6308,-4.6308,-4.6308,-4.6308,-4.6308,-4.6308,-4.6308,-4.6308,-4.6308,-4.6308,-4.6308,-4.6308,-4.6308,-4.6308,-4.6308,-4.6308,-4.6308,-4.6308,-4.6308,-4.6308,-4.6306,-4.6234,-4.6197,-4.6201,-4.6192,-4.62,-4.6203,-4.6192,-4.6241,-4.6301,-4.6305,-4.6308,-4.6308,-4.6308,-4.6308,-4.6307,-4.6307,-4.6303,-4.6291,-4.6211,-4.6154,-4.6099,-5.1328,-5.1406,-5.1406,-5.1406,-5.1406,-5.1406,-5.1406,-5.1406,-5.1406,-5.1406,-5.1406,-5.1406,-5.1406,-5.1406,-5.1406,-5.1406,-5.1406,-5.1406,-5.1406,-5.1406,-5.1406,-5.1406,-5.1406,-5.1406,-5.1406,-5.1406,-5.1406,-5.1406,-5.1406,-5.1406,-5.1406,-5.1406,-5.1406,-5.1406,-5.1406,-5.1406,-5.1406,-5.1406,-5.1406,-5.1406,-5.1406,-5.1406,-5.1406,-5.1406,-5.1406,-5.1406,-5.1406,-5.1406,-5.1406,-5.1406,-5.1406,-5.1406,-5.1406,-5.1406,-5.1406,-5.1406,-5.1406,-5.1406,-5.1406,-5.1406,-5.1406,-5.1406,-5.1405,-5.1306,-5.0954,-5.0565,-5.0039,-4.9082,-4.8906,-4.8789,-4.8398,-4.832,-4.8203,-4.7812,-4.7344,-4.7031,-4.7031,-4.6601,-4.6308,-4.6308,-4.6308,-4.6308,-4.6308,-4.6308,-4.6308,-4.6308,-4.6308,-4.6308,-4.6308,-4.6308,-4.6308,-4.6308,-4.6308,-4.6308,-4.6307,-4.6261,-4.6251,-4.6262,-4.6253,-4.6243,-4.6192,-4.6234,-4.6273,-4.6305,-4.6307,-4.6308,-4.6308,-4.6308,-4.6308,-4.6307,-4.6307,-4.6303,-4.6291,-4.6277,-4.6219,-4.6162]},{"header":{"parameterUnit":"m.s-1","parameterCategory":1,"la1":30.6,"la2":28.766,"lo1":-90.7593,"lo2":-88.6598,"dy":0.0162,"dx":0.0183,"nx":116,"ny":114,"refTime":"2024-07-02T00:00:00:Z","depth":0,"parameterNumber":3,"parameterNumberName":"V-component_of_WINDS"},"data":[0.0,0.0,0.0,0.0,0.0,0.0,0.0,0.0,0.0,0.0,0.0,0.0,0.0,0.0,0.0,0.0,0.0,0.0,0.0,0.0,0.0,0.0,0.0,0.0,0.0,0.0,0.0,0.0,0.0,0.0,0.0,0.0,0.0,0.0,0.0,0.0,0.0,0.0,0.0,0.0,0.0,0.0,0.0,0.0,0.0,0.0,0.0,0.0,0.0,0.0,0.0,0.0,0.0,0.0,0.0,0.0,0.0,0.0,0.0,0.0,0.0,0.0,0.0,0.0,0.0,0.0,0.0,0.0,0.0,0.0,0.0,0.0,0.0,0.0,0.0,0.0,0.0,0.0,0.0,0.0,0.0,0.0,0.0,0.0,0.0,0.0,0.0,0.0,0.0,0.0,0.0,0.0,0.0,0.0,0.0,0.0,0.0,0.0,0.0,0.0,0.0,0.0,0.0,0.0,0.0,0.0,0.0,0.0,0.0,0.0,0.0,0.0,0.0,0.0,0.0,0.0,0.0,0.0,0.0,0.0,0.0,0.0,0.0,0.0,0.0,0.0,0.0,0.0,0.0,0.0,0.0,0.0,0.0,0.0,0.0,0.0,0.0,0.0,0.0,0.0,0.0,0.0,0.0,0.0,0.0,0.0,0.0,0.0,0.0,0.0,0.0,0.0,0.0,0.0,0.0,0.0,0.0,0.0,0.0,0.0,0.0,0.0,0.0,0.0,0.0,0.0,0.0,0.0,0.0,0.0,0.0,0.0,0.0,0.0,0.0,0.0,0.0,0.0,0.0,0.0,0.0,0.0,0.0,0.0,0.0,0.0,0.0,0.0,0.0,0.0,0.0,0.0,0.0,0.0,0.0,0.0,0.0,0.0,0.0,0.0,0.0,0.0,0.0,0.0,0.0,0.0,0.0,0.0,0.0,0.0,0.0,0.0,0.0,0.0,0.0,0.0,0.0,0.0,0.0,0.0,0.0,0.0,0.0,0.0,0.0,0.0,0.0,0.0,0.0,0.0,0.0,0.0,0.0,0.0,0.0,0.0,0.0,0.0,0.0,0.0,0.0,0.0,0.0,0.0,0.0,0.0,0.0,0.0,0.0,0.0,0.0,0.0,0.0,0.0,0.0,0.0,0.0,0.0,0.0,0.0,0.0,0.0,0.0,0.0,0.0,0.0,0.0,0.0,0.0,0.0,0.0,0.0,0.0,0.0,0.0,0.0,0.0,0.0,0.0,0.0,0.0,0.0,0.0,0.0,0.0,0.0,0.0,0.0,0.0,0.0,0.0,0.0,0.0,0.0,0.0,0.0,0.0,0.0,0.0,0.0,0.0,0.0,0.0,0.0,0.0,0.0,0.0,0.0,0.0,0.0,0.0,0.0,0.0,0.0,0.0,0.0,0.0,0.0,0.0,0.0,0.0,0.0,0.0,0.0,0.0,0.0,0.0,0.0,0.0,0.0,0.0,0.0,0.0,0.0,0.0,0.0,0.0,0.0,0.0,0.0,0.0,0.0,0.0,0.0,0.0,0.0,0.0,0.0,0.0,0.0,0.0,0.0,0.0,0.0,0.0,0.0,0.0,0.0,0.0,0.0,0.0,0.0,0.0,0.0,0.0,0.0,0.0,0.0,0.0,0.0,0.0,0.0,0.0,0.0,0.0,0.0,0.0,0.0,0.0,0.0,0.0,0.0,0.0,0.0,0.0,0.0,0.0,0.0,0.0,0.0,0.0,0.0,0.0,0.0,0.0,0.0,0.0,0.0,0.0,0.0,0.0,0.0,0.0,0.0,0.0,0.0,0.0,0.0,0.0,0.0,0.0,0.0,0.0,0.0,0.0,0.0,0.0,0.0,0.0,0.0,0.0,0.0,0.0,0.0,0.0,0.0,0.0,0.0,0.0,0.0,0.0,0.0,0.0,0.0,0.0,0.0,0.0,0.0,0.0,0.0,0.0,0.0,0.0,0.0,0.0,0.0,0.0,0.0,0.0,0.0,0.0,0.0,0.0,0.0,0.0,0.0,0.0,0.0,0.0,0.0,0.0,0.0,0.0,0.0,0.0,0.0,0.0,0.0,0.0,0.0,0.0,0.0,0.0,0.0,0.0,0.0,0.0,0.0,0.0,0.0,0.0,0.0,0.0,0.0,0.0,0.0,0.0,0.0,0.0,0.0,0.0,0.0,0.0,0.0,0.0,0.0,0.0,0.0,0.0,0.0,0.0,0.0,0.0,0.0,0.0,0.0,0.0,0.0,0.0,0.0,0.0,0.0,0.0,0.0,0.0,0.0,0.0,0.0,0.0,0.0,0.0,0.0,0.0,0.0,0.0,0.0,0.0,0.0,0.0,0.0,0.0,0.0,0.0,0.0,0.0,0.0,0.0,0.0,0.0,0.0,0.0,0.0,0.0,0.0,0.0,0.0,0.0,0.0,0.0,0.0,0.0,0.0,0.0,0.0,0.0,0.0,0.0,0.0,0.0,0.0,0.0,0.0,0.0,0.0,0.0,0.0,0.0,0.0,0.0,0.0,0.0,0.0,0.0,0.0,0.0,0.0,0.0,0.0,0.0,0.0,0.0,0.0,0.0,0.0,0.0,0.0,0.0,0.0,0.0,0.0,0.0,0.0,0.0,0.0,0.0,0.0,0.0,0.0,0.0,0.0,0.0,0.0,0.0,0.0,0.0,0.0,0.0,0.0,0.0,0.0,0.0,0.0,0.0,0.0,0.0,0.0,0.0,0.0,0.0,0.0,0.0,0.0,0.0,0.0,0.0,0.0,0.0,0.0,0.0,0.0,0.0,0.0,0.0,0.0,0.0,0.0,0.0,0.0,0.0,0.0,0.0,0.0,0.0,0.0,0.0,0.0,0.0,0.0,0.0,0.0,0.0,0.0,0.0,0.0,0.0,0.0,0.0,0.0,0.0,0.0,0.0,0.0,0.0,0.0,0.0,0.0,0.0,0.0,0.0,0.0,0.0,0.0,0.0,0.0,0.0,0.0,0.0,0.0,0.0,0.0,0.0,0.0,0.0,0.0,0.0,0.0,0.0,0.0,0.0,0.0,0.0,0.0,0.0,0.0,0.0,0.0,0.0,0.0,0.0,0.0,0.0,0.0,0.0,0.0,0.0,0.0,0.0,0.0,0.0,0.0,0.0,0.0,0.0,0.0,0.0,0.0,0.0,0.0,0.0,0.0,0.0,0.0,0.0,0.0,0.0,0.0,0.0,0.0,0.0,0.0,0.0,0.0,0.0,0.0,0.0,0.0,0.0,0.0,0.0,0.0,0.0,0.0,0.0,0.0,0.0,0.0,0.0,0.0,0.0,0.0,0.0,0.0,0.0,0.0,0.0,0.0,0.0,0.0,0.0,0.0,0.0,0.0,0.0,0.0,0.0,0.0,0.0,0.0,0.0,0.0,0.0,0.0,0.0,0.0,0.0,0.0,0.0,0.0,0.0,0.0,0.0,0.0,0.0,0.0,0.0,0.0,0.0,0.0,0.0,0.0,0.0,0.0,0.0,0.0,0.0,0.0,0.0,0.0,0.0,0.0,0.0,0.0,0.0,0.0,0.0,0.0,0.0,0.0,0.0,0.0,0.0,0.0,0.0,0.0,0.0,0.0,0.0,0.0,0.0,0.0,0.0,0.0,0.0,0.0,0.0,0.0,0.0,0.0,0.0,0.0,0.0,0.0,0.0,0.0,0.0,0.0,0.0,0.0,0.0,0.0,0.0,0.0,0.0,0.0,0.0,0.0,0.0,0.0,0.0,0.0,0.0,0.0,0.0,0.0,0.0,0.0,0.0,0.0,0.0,0.0,0.0,0.0,0.0,0.0,0.0,0.0,0.0,0.0,0.0,0.0,0.0,0.0,0.0,0.0,0.0,0.0,0.0,0.0,0.0,0.0,0.0,0.0,0.0,0.0,0.0,0.0,0.0,0.0,0.0,0.0,0.0,0.0,0.0,0.0,0.0,0.0,0.0,0.0,0.0,0.0,0.0,0.0,0.0,0.0,0.0,0.0,0.0,0.0,0.0,0.0,0.0,0.0,0.0,0.0,0.0,0.0,0.0,0.0,0.0,0.0,0.0,0.0,0.0,0.0,0.0,0.0,0.0,0.0,0.0,0.0,0.0,0.0,0.0,0.0,0.0,0.0,0.0,0.0,0.0,0.0,0.0,0.0,0.0,0.0,0.0,0.0,0.0,0.0,0.0,0.0,0.0,0.0,0.0,0.0,0.0,0.0,0.0,0.0,0.0,0.0,0.0,0.0,0.0,0.0,0.0,0.0,0.0,0.0,0.0,0.0,0.0,0.0,0.0,0.0,0.0,0.0,0.0,0.0,0.0,0.0,0.0,0.0,0.0,0.0,0.0,0.0,0.0,0.0,0.0,0.0,0.0,0.0,0.0,0.0,0.0,0.0,0.0,0.0,0.0,0.0,0.0,0.0,0.0,0.0,0.0,0.0,0.0,0.0,0.0,0.0,0.0,0.0,0.0,0.0,0.0,0.0,0.0,0.0,0.0,0.0,0.0,0.0,0.0,0.0,0.0,0.0,0.0,0.0,0.0,0.0,0.0,0.0,0.0,0.0,0.0,0.0,0.0,0.0,0.0,0.0,0.0,0.0,0.0,0.0,0.0,0.0,0.0,0.0,0.0,0.0,0.0,0.0,0.0,0.0,0.0,0.0,0.0,0.0,0.0,0.0,0.0,0.0,0.0,0.0,0.0,0.0,0.0,0.0,0.0,0.0,0.0,0.0,0.0,0.0,0.0,0.0,0.0,0.0,0.0,0.0,0.0,0.0,0.0,0.0,0.0,0.0,0.0,0.0,0.0,0.0,0.0,0.0,0.0,0.0,0.0,0.0,0.0,0.0,0.0,0.0,0.0,0.0,0.0,0.0,0.0,0.0,0.0,0.0,0.0,0.0,0.0,0.0,0.0,0.0,0.0,0.0,0.0,0.0,0.0,0.0,0.0,0.0,0.0,0.0,0.0,0.0,0.0,0.0,0.0,0.0,0.0,0.0,0.0,0.0,0.0,0.0,0.0,0.0,0.0,0.0,0.0,0.0,0.0,0.0,0.0,0.0,0.0,0.0,0.0,0.0,0.0,0.0,0.0,0.0,0.0,0.0,0.0,0.0,0.0,0.0,0.0,0.0,0.0,0.0,0.0,0.0,0.0,0.0,0.0,0.0,0.0,0.0,0.0,0.0,0.0,0.0,0.0,0.0,0.0,0.0,0.0,0.0,0.0,0.0,0.0,0.0,0.0,0.0,0.0,0.0,0.0,0.0,0.0,0.0,0.0,0.0,0.0,0.0,0.0,0.0,0.0,0.0,0.0,0.0,0.0,0.0,0.0,0.0,0.0,0.0,0.0,0.0,0.0,0.0,0.0,0.0,0.0,0.0,0.0,0.0,0.0,0.0,0.0,0.0,0.0,0.0,0.0,0.0,0.0,0.0,0.0,0.0,0.0,0.0,0.0,0.0,0.0,0.0,0.0,0.0,0.0,0.0,0.0,0.0,0.0,0.0,0.0,0.0,0.0,0.0,0.0,0.0,0.0,0.0,0.0,0.0,0.0,0.0,0.0,0.0,0.0,0.0,0.0,0.0,0.0,0.0,0.0,0.0,0.0,0.0,0.0,0.0,0.0,0.0,0.0,0.0,0.0,0.0,0.0,0.0,0.0,0.0,0.0,0.0,0.0,0.0,0.0,0.0,0.0,0.0,0.0,0.0,0.0,0.0,0.0,0.0,0.0,0.0,0.0,0.0,0.0,0.0,0.0,0.0,0.0,0.0,0.0,0.0,0.0,0.0,0.0,0.0,0.0,0.0,0.0,0.0,0.0,0.0,0.0,0.0,0.0,0.0,0.0,0.0,0.0,0.0,0.0,0.0,0.0,0.0,0.0,0.0,0.0,0.0,0.0,0.0,0.0,0.0,0.0,0.0,0.0,0.0,0.0,0.0,0.0,0.0,0.0,0.0,0.0,0.0,0.0,0.0,0.0,0.0,0.0,0.0,0.0,0.0,0.0,0.0,0.0,0.0,0.0,0.0,0.0,0.0,0.0,0.0,0.0,0.0,0.0,0.0,0.0,0.0,0.0,0.0,0.0,0.0,0.0,0.0,0.0524,0.0,0.0,0.0,0.0,0.0,0.0,0.0,0.0,0.0,0.0,0.0,0.0,0.0,0.0,0.0,0.0,0.0,0.0,0.0,0.0,0.0,0.0,0.0,0.0,-0.2474,-0.2691,-0.2918,-0.3036,-0.3132,-0.3239,0.0,0.0,0.0,0.0,0.0,-0.185,-0.1978,-0.2195,-0.2489,-0.2998,-0.3407,-0.3721,-0.3537,-0.3111,-0.245,0.0,0.0,0.0,0.0,0.0,0.0,0.0,0.0,0.0,0.0,0.0,0.0,0.0,0.0,0.0,0.0,0.0,0.0,0.0,0.0,0.0,0.0,0.0,0.0,0.0,0.0,0.0,0.0,0.0,0.0,0.0,0.0,0.0,0.0,0.0,0.0,0.0,0.0,0.0,0.0,0.0,0.0,0.0,0.0,0.0,0.0,0.0,0.0,0.0,0.0,0.0,0.0,0.0,0.0,0.0,0.0,0.0,0.0,0.0,0.0,0.0,0.0,0.0,0.0,0.0,0.0,0.0,0.0,0.0,0.0,0.0,0.0465,0.0,0.0,0.0,0.0,0.0,0.0,0.0,0.0,0.0,0.0,0.0,0.0,0.0,0.0,0.0,0.0,0.0,0.0,0.0,0.0,0.0,-0.1935,-0.2466,-0.2702,-0.2956,-0.3263,-0.3291,-0.3359,-0.3523,-0.3295,0.0,0.0,0.0,-0.2252,-0.2063,-0.2209,-0.2498,-0.2931,-0.3493,-0.4096,-0.4735,-0.4695,-0.4258,-0.3475,-0.2742,0.0,0.0,0.0,0.0,0.0,0.0,0.0,0.0,0.0,0.0,0.0,0.0,0.0,0.0,0.0,0.0,0.0,0.0,0.0,0.0,0.0,0.0,0.0,0.0,0.0,0.0,0.0,0.0,0.0,0.0,0.0,0.0,0.0,0.0,0.0,0.0,0.0,0.0,0.0,0.0,0.0,0.0,0.0,0.0,0.0,0.0,0.0,0.0,0.0,0.0,0.0,0.0,0.0,0.0,0.0,0.0,0.0,0.0,0.0,0.0,0.0,0.0,0.0,0.0,0.0,0.0,0.0,0.0,0.0,0.0232,0.0279,0.0181,0.0219,0.0,0.0,0.0,0.0,0.0,0.0,0.0,0.0,0.0,0.0,0.0,0.0,0.0,0.0,0.0,0.0,0.0,0.0,0.0,-0.2474,-0.2955,-0.3185,-0.3512,-0.4009,-0.3799,-0.3768,-0.4074,-0.3639,0.0,0.0,-0.2703,-0.247,-0.2263,-0.2504,-0.2911,-0.3502,-0.4658,-0.5507,-0.6047,-0.5652,-0.5334,-0.504,-0.3564,-0.2509,-0.1775,0.0,0.0,0.0,0.0,0.0,0.0,0.0,0.0,0.0,0.0,0.0,0.0,0.0,0.0,0.0,0.0,0.0,0.0,0.0,0.0,0.0,0.0,0.0,0.0,0.0,0.0,0.0,0.0,0.0,0.0,0.0,0.0,0.0,0.0,0.0,0.0,0.0,0.0,0.0,0.0,0.0,0.0325,0.006,0.0,0.0,0.0,0.0,0.0,0.0,0.0,0.0,0.0,0.0,0.0,0.0,0.0,0.0,0.0,0.0,0.0,0.0,0.0,0.0,0.0,0.0,0.0,0.0,0.004,0.0,0.0034,0.0031,0.0,0.0,0.0,0.0,0.0,0.0,0.0,0.0,0.0,0.0,0.0,0.0,0.0,0.0,0.0,0.0,0.0,0.0,0.0,0.0,0.0,-0.3866,-0.4193,-0.477,-0.4622,-0.447,-0.4425,-0.4102,-0.3681,-0.3196,-0.295,-0.2787,-0.2695,-0.2988,-0.3707,-0.4836,-0.5738,-0.6339,-0.6633,-0.6268,-0.5874,-0.5413,-0.4374,-0.3373,-0.2409,-0.1477,0.0,0.0,0.0,0.0,0.0,0.0,0.0,0.0,0.0,0.0,0.0,0.0,0.0,0.0,0.0,0.0,0.0,0.0,0.0,0.0,0.0,0.0,0.0,0.0,0.0,0.0,0.0,0.0,0.0,0.0,0.0,0.0,0.0,0.0,0.0,0.0,0.0,0.0,0.0,0.0549,0.0296,0.0022,0.0,0.0,0.0,0.0,0.0,0.0,0.0,0.0,0.0,0.0,0.0,0.0033,0.0,0.0,0.0,0.0,0.0,0.0,0.0,0.0,0.0,0.0,0.0,0.0,0.0,0.0,0.0,0.0,0.0,0.0,0.0,0.0,0.0,0.0,0.0,0.0,0.0,0.0,0.0,0.0,0.0,0.0,0.0,0.0,0.0,0.0,0.0,0.0,-0.4241,-0.4639,-0.5083,-0.5631,-0.5503,-0.5317,0.0,0.0,-0.4157,-0.361,-0.332,-0.3164,-0.3126,-0.3758,-0.4704,-0.5957,-0.6603,-0.6946,-0.7,-0.6646,-0.6166,-0.559,-0.4971,-0.4072,-0.2967,-0.205,-0.1244,0.0,0.0,0.0,0.0,0.0,0.0,0.0,0.0,0.0,0.0,0.0,0.0,0.0,0.0,0.0,0.0,0.0,0.0,0.0,0.0,0.0,0.0,0.0,0.0,0.0,0.0,0.0,0.0,0.0,0.0,0.0,0.0,0.0,0.0,0.0,0.0,0.0,0.0,0.0425,0.0307,0.0025,0.0,0.0,0.0,0.0,0.0,0.0,0.0,0.0,0.0,0.0,0.0,0.0,0.0,0.0,0.0,0.0,0.0,0.0,0.0,0.0,0.0,0.0,0.0,0.0,0.0,0.0,0.0,0.0,0.0,0.0,0.0,0.0,0.0,0.0,0.0,0.0,0.0,0.0,0.0,0.0,0.0,0.0,0.0,0.0,0.0,0.0,0.0,-0.4055,-0.4618,0.0,-0.627,-0.6682,-0.637,-0.6305,0.0,0.0,-0.458,-0.4361,-0.3908,-0.3608,-0.3471,-0.4929,-0.5906,-0.6374,-0.7109,-0.7394,-0.7275,-0.6666,-0.6248,-0.5946,-0.5202,-0.4318,-0.3318,-0.264,-0.1897,-0.1097,0.0,0.0,0.0,0.0,0.0,0.0,0.0,0.0,0.0,0.0,0.0,0.0,0.0,0.0,0.0,0.0,0.0,0.0,0.0,0.0,0.0,0.0,0.0,0.0,0.0,0.0,0.0,0.0,0.0,0.0,0.0,0.0,0.0,0.0,0.0,0.0,0.0,0.0,0.0,0.0028,0.0,0.0,0.0,0.0,0.0,0.0,0.0,0.0,0.0,0.0,0.0,0.0,0.0,0.0,0.0,0.0,0.0,0.0,0.0,0.0,0.0,0.0,0.0,0.0,0.0,0.0,0.0,0.0,0.0,0.0,0.0,0.0,0.0,0.0,0.0,0.0,0.0,0.0,0.0,0.0796,0.0605,0.0294,-0.0154,-0.0885,-0.1684,-0.2516,-0.3555,-0.4489,0.0,-0.6218,-0.6978,-0.7349,-0.7291,-0.7105,-0.6809,0.0,-0.5306,-0.4806,-0.4468,-0.45,-0.4974,-0.5952,-0.6759,-0.7421,-0.7487,-0.7431,-0.7293,-0.6499,-0.5927,-0.5527,-0.5011,-0.446,-0.3876,-0.32,-0.2445,-0.1673,-0.1062,-0.0454,0.0,0.0,0.0,0.0,0.0,0.0,0.0,0.0,0.0,0.0,0.0,0.0,0.0,0.0,0.0,0.0,0.0,0.0,0.0,0.0,0.0,0.0,0.0,0.0,0.0,0.0,0.0,0.0,0.0,0.0,0.0,0.0,0.0,0.0,0.0,0.0,0.0,0.0031,0.0,0.0,0.0,0.0,0.0,0.0,0.0,0.0,0.0,0.0,0.0,0.0,0.0,0.0,0.0,0.0,0.0,0.0,0.0,0.0,0.0,0.0,0.0,0.0,0.0,0.0,0.0,0.0,0.0,0.0,0.0,0.0,0.0,0.0,0.0,0.0,0.0395,0.0455,0.0,0.056,0.0346,0.001,-0.0429,-0.1183,-0.1981,-0.2767,-0.3896,-0.494,-0.5741,-0.688,-0.7723,-0.8139,-0.805,-0.7777,-0.73,0.0,-0.5835,-0.5453,-0.5262,-0.5461,-0.6091,-0.6774,-0.7369,-0.7822,-0.7654,-0.7364,-0.6972,-0.6268,-0.5668,-0.5144,-0.4849,-0.455,-0.426,-0.3699,-0.3021,-0.2241,-0.1565,-0.0915,-0.029,0.0,0.0,0.0,0.0,0.0,0.0,0.0,0.0,0.0,0.0,0.0,0.0,0.0,0.0,0.0,0.0,0.0,0.0,0.0,0.0,0.0,0.0,0.0,0.0,0.0,0.0,0.0,0.0,0.0,0.0,0.0,0.0,0.0,0.0,0.0,0.016,0.0,0.0,0.0,0.0,0.0,0.0,0.0,0.0,0.0,0.0,0.0,0.0,0.0,0.0,0.0,0.0,0.0,0.0,0.0,0.0,0.0,0.0,0.0,0.0,0.0,0.0,0.0,0.0,0.0,0.0,0.0,0.0,0.0,0.0,0.0,0.0,0.0,0.0211,0.0246,0.029,0.0288,0.0064,-0.0252,-0.0649,-0.1394,-0.217,-0.2907,-0.4238,-0.5412,-0.6204,-0.7489,-0.8504,-0.9023,-0.8585,-0.8263,-0.8184,-0.6826,-0.6102,-0.6316,-0.6317,-0.6466,-0.6738,-0.7445,-0.773,-0.7525,-0.7626,-0.7241,-0.6381,-0.5968,-0.5473,-0.4901,-0.4743,-0.4632,-0.4463,-0.4132,-0.3561,-0.2825,-0.1896,-0.123,-0.0737,0.0,0.0,0.0,0.0,0.0,0.0,0.0,0.0,0.0,0.0,0.0,0.0,0.0,0.0,0.0,0.0,0.0,0.0,0.0,0.0,0.0,0.0,0.0,0.0,0.0,0.0,0.0,0.0,0.0,0.0,0.0,0.0,0.0,0.0088,0.0164,0.0142,0.0,0.0,0.0,0.0,0.0,0.0,0.0,0.0,0.0,0.0,0.0,0.0,0.0,0.0,0.0,0.0,0.0,0.0,0.0,0.0,0.0,0.0,0.0,0.0,0.0,0.0,0.0,0.0,0.0,0.0,0.0,0.0,0.0,0.0,0.0,0.0,0.0,0.0139,0.0104,0.0084,0.0081,-0.0181,-0.0541,-0.0995,-0.1701,-0.2419,-0.3061,-0.4414,-0.5456,-0.5827,-0.7444,-0.8406,-0.8112,-0.8258,-0.812,-0.7517,-0.6869,-0.656,-0.6661,-0.6849,-0.7138,-0.7554,-0.8008,-0.8163,-0.7998,-0.77,-0.7106,-0.6236,-0.5691,-0.5199,-0.4739,-0.4601,-0.4467,-0.4273,-0.3965,-0.3555,-0.2993,-0.2288,-0.158,-0.0875,0.0,0.0,0.0,0.0,0.0,0.0,0.0,0.0,0.0,0.0,0.0,0.0,0.0,0.0,0.0,0.0,0.0,0.0,0.0,0.0,0.0,0.0,0.0,0.0,0.0,0.0,0.0,0.0,0.0,0.0,0.0,0.0,0.0099,0.0033,0.0035,0.0038,0.0,0.0,0.0,0.0,0.0,0.0,0.0,0.0,0.0,0.0,0.0,0.0,0.0,0.0,0.0,0.0,0.0,0.0,0.0,0.0,0.0,0.0,0.0,0.0,0.0,0.0,0.0,0.0,0.0,0.0,0.0,0.0,0.0,0.0,0.0,0.0,0.0,0.0111,0.0044,-0.0018,-0.0073,-0.0362,-0.0731,-0.1173,-0.1865,-0.2559,-0.3157,-0.4473,-0.5519,-0.5909,-0.7259,-0.806,-0.788,-0.7866,-0.7705,-0.7356,-0.7167,-0.705,-0.6962,-0.7476,-0.7848,-0.811,-0.8404,-0.8397,-0.8076,-0.7676,-0.6999,-0.6018,-0.5523,-0.5011,-0.4498,-0.4411,-0.4245,-0.4024,-0.3744,-0.3355,-0.2877,-0.2218,-0.1578,-0.0974,-0.0425,0.0023,0.0385,0.0748,0.0858,0.0832,0.0906,0.0,0.0,0.0,0.0,0.0,0.0,0.0,0.0,0.0,0.0,0.0,0.0,0.0,0.0,0.0,0.0,0.0,0.0,0.0,0.0,0.0,0.0,0.0,0.0,0.0071,0.0038,0.0,0.0,0.0,0.0,0.0,0.0,0.0,0.0,0.0,0.0,0.0,0.0,0.0,0.0,0.0,0.0,0.0,0.0,0.0,0.0,0.0,0.0,0.0,0.0,0.0,0.0,0.0,0.0,0.0,0.0,0.0,0.0,0.0,0.0,0.0,0.0,0.0,0.0,0.0,0.0,0.0106,0.004,-0.0057,-0.0194,-0.0501,-0.086,-0.1265,-0.1953,-0.2628,-0.3226,-0.4439,-0.5484,-0.6107,-0.6932,-0.7553,-0.7851,-0.7382,-0.7164,0.0,-0.7484,-0.7468,-0.7291,-0.8065,-0.8477,-0.8449,-0.8671,-0.8474,-0.7898,-0.7589,-0.6891,-0.58,-0.5445,-0.4901,-0.4193,-0.4193,-0.4005,-0.3705,-0.3431,-0.3039,-0.2508,-0.1829,-0.1352,-0.1018,-0.0375,0.0103,0.0506,0.0964,0.1104,0.1105,0.1189,0.0,0.0,0.0,0.0,0.0,0.0,0.0,0.0,0.0,0.0,0.0,0.0,0.0,0.0,0.0,0.0,0.0,0.0,0.0,0.0,0.0,0.0,0.0,0.0,0.0,0.0,0.0,0.0,0.0,0.0,0.0,0.0,0.0,0.0,0.0,0.0,0.0,0.0,0.0,0.0,0.0,0.0,0.0,0.0,0.0,0.0,0.0,0.0,0.0,0.0,0.0,0.0,0.0,0.0,0.0,0.0,0.0,0.0,0.0,0.0,0.0,0.0,0.0,0.0,0.0,0.0,0.008,0.0,-0.0141,-0.0328,-0.0642,-0.1011,-0.1468,-0.2076,-0.2698,-0.3296,-0.4268,-0.5007,-0.5303,-0.6391,-0.6939,-0.6514,-0.6768,-0.685,0.0,0.0,-0.7428,-0.7742,-0.8181,-0.8509,-0.8717,-0.8659,-0.8388,-0.7898,-0.7402,-0.6701,-0.58,-0.534,-0.4794,-0.4193,-0.4079,-0.3772,-0.3288,-0.2965,-0.2443,-0.1777,-0.1428,-0.1144,-0.0861,-0.0028,0.0487,0.0886,0.1614,0.1831,0.1736,0.1858,0.1582,0.1103,0.0672,0.0,0.0,0.0,0.0,0.0,0.0,0.0,0.0,0.0,0.0,0.0,0.0,0.0,0.0,0.0,0.0,0.0,0.0,0.0,0.0,0.0,0.0,0.0,0.0,0.0,0.0,0.0,0.0,0.0,0.0,0.0,0.0,0.0,0.0,0.0,0.0,0.0,0.0,0.0,0.0,0.0,0.0,0.0,0.0,0.0,0.0,0.0,0.0,0.0,0.0,0.0,0.0,0.0,0.0,0.0,0.0,0.0,0.0,0.0,0.0,0.0,0.0,0.0,-0.0203,-0.0228,-0.0304,-0.0474,-0.0721,-0.107,-0.1569,-0.2106,-0.2692,-0.3364,-0.4208,-0.4844,-0.5077,-0.5809,-0.619,-0.592,-0.6425,0.0,0.0,-0.7244,-0.7797,-0.813,-0.8437,-0.8657,-0.8804,-0.8659,-0.8329,-0.7797,-0.7321,-0.662,-0.5696,-0.523,-0.4653,-0.3996,-0.3724,-0.3268,-0.2677,-0.2301,-0.1788,-0.1206,-0.0854,-0.0549,-0.0308,0.0196,0.0749,0.1338,0.2046,0.2295,0.2306,0.2291,0.1921,0.1364,0.082,0.0452,0.0174,0.0,0.0,0.0,0.0,0.0,0.0,0.0,0.0,0.0,0.0,0.0,0.0,0.0,0.0,0.0,0.0,0.0,0.0,0.0,0.0,0.0,0.0,0.0,0.0,0.0,0.0,0.0,0.0,0.0,0.0,0.0,0.0,0.0,0.0,0.0,0.0,0.0,0.0,0.0,0.0,0.0,0.0,0.0,0.0,0.0,0.0,0.0,0.0,0.0,0.0,0.0,0.0,0.0,0.0,0.0,0.0,0.0,0.0,0.0,0.0,0.0,-0.0604,-0.059,-0.0575,-0.065,-0.0815,-0.1119,-0.1662,-0.211,-0.2654,-0.3385,-0.4108,-0.4662,-0.4933,-0.5273,-0.5518,0.0,0.0,0.0,0.0,-0.7517,-0.8104,-0.8307,-0.8573,-0.8725,-0.8725,-0.8527,-0.817,-0.7616,-0.7133,-0.6436,-0.5536,-0.5038,-0.4429,-0.3744,-0.3332,-0.2745,-0.2062,-0.1692,-0.1235,-0.0737,-0.0324,0.0029,0.0364,0.0561,0.1064,0.1762,0.2436,0.2745,0.2802,0.2661,0.2228,0.1607,0.0936,0.0514,0.0204,0.0042,0.0,0.0,0.0,0.0,0.0,0.0,0.0,0.0,0.0,0.0,0.0,0.0,0.0,0.0,0.0,0.0,0.0,0.0,0.0,0.0,0.0,0.0,0.0,0.0,0.0,0.0,0.0,0.0,0.0,0.0,0.0,0.0,0.0,0.0,0.0,0.0,0.0,0.0,0.0,0.0,0.0,0.0,0.0,0.0,0.0,0.0,0.0,0.0,0.0,0.0,0.0,0.0,0.0,0.0,0.0,0.0,0.0,0.0,0.0,0.0,-0.1083,-0.1111,-0.1063,-0.09,-0.0982,-0.1257,-0.1792,-0.218,-0.2648,-0.3323,-0.38,-0.4177,-0.4449,-0.4835,-0.5143,0.0,0.0,0.0,0.0,-0.7266,-0.7801,-0.7936,-0.8274,-0.8454,-0.8454,-0.8023,-0.7643,-0.7343,-0.6512,-0.5859,-0.5336,-0.4791,-0.4211,-0.3599,-0.314,-0.2457,-0.1645,-0.136,-0.0916,-0.0354,-0.0118,0.0318,0.0869,0.1287,0.1679,0.2071,0.2965,0.3302,0.3302,0.3105,0.2623,0.1977,0.1138,0.0661,0.0323,0.0074,0.0,0.0,0.0,0.0,0.0,0.0,0.0,0.0,0.0,0.0,0.0,0.0,0.0,0.0,0.0,0.0,0.0,0.0,0.0,0.0,0.0,0.0,0.0,0.0,0.0,0.0,0.0,0.0,0.0,0.0,0.0,0.0,0.0,0.0,0.0,0.0,0.0,0.0,0.0,0.0,0.0,0.0,0.0,0.0,0.0,0.0,0.0,0.0,0.0,0.0,0.0,0.0,0.0,0.0,0.0,0.0,0.0,0.0,0.0,0.0,-0.1207,-0.1254,-0.1262,-0.1248,-0.1234,-0.1374,-0.1828,-0.2121,-0.2535,-0.3254,-0.3657,-0.4007,-0.4307,-0.4567,-0.4724,-0.478,-0.5217,-0.5709,-0.6192,-0.6862,-0.7383,-0.7703,-0.7975,-0.807,-0.7996,-0.7643,-0.7289,-0.6885,-0.6209,-0.5609,-0.5062,-0.4487,-0.3852,-0.3158,-0.2539,-0.1857,-0.1178,-0.0811,-0.0419,0.0029,0.0294,0.0779,0.1372,0.1903,0.2408,0.288,0.3352,0.3476,0.0,0.0,0.2524,0.1793,0.1061,0.0595,0.0241,0.0052,0.0,0.0,0.0,0.0,0.0,0.0,0.0,0.0,0.0,0.0,0.0,0.0,0.0,0.0,0.0,0.0,0.0,0.0,0.0,0.0,0.0,0.0,0.0,0.0,0.0,0.0,0.0,0.0,0.0,0.0,0.0,0.0,0.0,0.0,0.0,0.0,0.0,0.0,0.0,0.0,0.0,0.0,0.0,0.0,0.0,0.0,0.0,0.0,0.0,0.0,0.0,0.0,0.0,0.0,0.0,0.0,0.0,0.0,0.0,0.0,-0.1284,-0.1343,-0.1388,-0.1502,-0.1444,-0.151,-0.1872,-0.2099,-0.2487,-0.3205,-0.3563,-0.3872,-0.4215,-0.4298,-0.4327,-0.4319,-0.4766,-0.5292,-0.5839,-0.6343,-0.6835,-0.7312,-0.7434,0.0,-0.7396,-0.7101,-0.675,-0.6372,-0.5773,-0.523,-0.468,-0.4104,-0.3466,-0.277,-0.2066,-0.1422,-0.0815,-0.0447,-0.0089,0.0232,0.061,0.1116,0.1734,0.2378,0.295,0.3476,0.3608,0.3552,0.0,0.0,0.2381,0.1601,0.0982,0.0515,0.0165,0.0027,0.0,0.0,0.0,0.0,0.0,0.0,0.0,0.0,0.0,0.0,0.0,0.0,0.0,0.0,0.0,0.0,0.0,0.0,0.0,0.0,0.0,0.0,0.0,0.0,0.0,0.0,0.0,0.0,0.0,0.0,0.0,0.0,0.0,0.0,0.0,0.0,0.0,0.0,0.0,0.0,0.0,0.0,0.0,0.0,0.0,0.0,0.0,0.0,0.0,0.0,0.0,0.0,0.0,0.0,0.0,0.0,0.0,0.0,0.0,0.0,-0.1355,-0.1444,-0.1513,-0.1583,-0.1594,-0.168,-0.1953,-0.2169,-0.2535,-0.3205,-0.3486,-0.3737,-0.4068,-0.3991,-0.3973,-0.4106,-0.4489,-0.4887,-0.53,-0.5704,-0.6129,-0.6621,-0.6509,-0.6514,-0.6637,-0.6241,-0.5968,-0.5828,-0.5097,-0.4553,-0.4221,-0.3663,-0.3107,-0.2493,-0.1877,-0.1261,-0.0674,-0.0337,-0.0056,0.0253,0.0702,0.1261,0.1874,0.2599,0.3177,0.362,0.3746,0.0,0.0,0.0,0.2319,0.1603,0.1,0.0533,0.0,0.0028,0.0,0.0,0.0,0.0,0.0,0.0,0.0,0.0,0.0,0.0,0.0,0.0,0.0,0.0,0.0,0.0,0.0,0.0,0.0,0.0,0.0,0.0,0.0,0.0,0.0,0.0,0.0,0.0,0.0,0.0,0.0,0.0,0.0,0.0,0.0,0.0,0.0,0.0,0.0,0.0,0.0,0.0,0.0,0.0,0.0,0.0,0.0,0.0,0.0,0.0,0.0,0.0,0.0,0.0,0.0,0.0,0.0,0.0,0.0,0.0,-0.1263,-0.1388,-0.1477,-0.164,-0.174,-0.1872,-0.2099,-0.223,-0.2524,-0.3153,-0.3566,0.0,0.0,0.0,0.0,0.0,-0.3817,-0.4016,-0.4408,-0.464,-0.4979,-0.5448,-0.5514,-0.5565,-0.5599,-0.5395,-0.5203,-0.5063,-0.4504,-0.4095,-0.3796,-0.3216,-0.2575,-0.1874,-0.1372,-0.0841,-0.0364,-0.014,0.0084,0.0364,0.0842,0.1457,0.215,0.278,0.3324,0.3733,0.0,0.0,0.0,0.0,0.2086,0.0,0.0863,0.0,0.0,0.0,0.0,0.0,0.0,0.0,0.0,0.0,0.0,0.0,0.0,0.0,0.0,0.0,0.0,0.0,0.0,0.0,0.0,0.0,0.0,0.0,0.0,0.0,0.0,0.0,0.0,0.0,0.0,0.0,0.0,0.0,0.0,0.0,0.0,0.0,0.0,0.0,0.0,0.0,0.0,0.0,0.0,0.0,0.0,0.0,0.0,0.0,0.0,0.0,0.0,0.0,0.0,0.0,0.0,0.0,0.0,0.0,0.0,0.0,0.0,0.0,-0.1016,-0.1241,-0.1421,-0.1596,-0.1784,0.0,0.0,0.0,0.0,0.0,0.0,0.0,0.0,0.0,0.0,0.0,0.0,-0.3408,-0.366,-0.3813,-0.4072,-0.4486,-0.4557,-0.4646,-0.4739,-0.4594,-0.4454,-0.4342,-0.3904,-0.3527,-0.3203,-0.262,-0.2025,-0.1403,-0.0918,-0.0517,-0.0193,0.0,0.022,0.0523,0.1019,0.1612,0.2261,0.289,0.3329,0.0,0.0,0.0,0.0,0.0,0.0,0.0,0.0,0.0,0.0,0.0,0.0,0.0,0.0,0.0,0.0,0.0,0.0,0.0,0.0,0.0,0.0,0.0,0.0,0.0,0.0,0.0,0.0,0.0,0.0,0.0,0.0,0.0,0.0,0.0,0.0,0.0,0.0,0.0,0.0,0.0,0.0,0.0,0.0,0.0,0.0,0.0,0.0,0.0,0.0,0.0,0.0,0.0,0.0,0.0,0.0,0.0,0.0,0.0,0.0,0.0,0.0,0.0,0.0,0.0,0.0,0.0,0.0,0.0,0.0,0.0,-0.0658,-0.1027,-0.1343,0.0,0.0,0.0,0.0,0.0,0.0,0.0,0.0,0.0,0.0,0.0,0.0,0.0,0.0,0.0,-0.3058,0.0,0.0,-0.3725,-0.3671,-0.3748,-0.4002,-0.3828,-0.3711,-0.363,-0.3238,-0.2846,-0.243,-0.1907,-0.1455,-0.1053,-0.0578,-0.0308,-0.0159,0.0106,0.0372,0.0664,0.1193,0.1711,0.2257,0.2921,0.0,0.0,0.0,0.0,0.0,0.0,0.0,0.0,0.0,0.0,0.0,0.0,0.0,0.0,0.0,0.0,0.0,0.0,0.0,0.0,0.0,0.0,0.0,0.0,0.0,0.0,0.0,0.0,0.0,0.0,0.0,0.0,0.0,0.0,0.0,0.0,0.0,0.0,0.0,0.0,0.0,0.0,0.0,0.0,0.0,0.0,0.0,0.0,0.0,0.0,0.0,0.0,0.0,0.0,0.0,0.0,0.0,0.0,0.0,0.0,0.0,0.0,0.0,0.0,0.0,0.0,0.0,0.0,0.0,0.0,0.0,0.0,0.0,0.0,0.0,0.0,0.0,0.0,0.0,0.0,0.0,0.0,0.0,0.0,0.0,0.0,0.0,0.0,0.0,0.0,0.0,0.0,0.0,0.0,0.0,0.0,-0.2911,-0.2915,0.0,0.0,0.0,-0.2107,-0.1756,-0.1363,-0.0971,0.0,-0.0239,-0.0024,0.0099,0.0278,0.0511,0.079,0.0,0.1607,0.2108,0.0,0.0,0.0,0.0,0.0,0.0,0.0,0.0,0.0,0.0,0.0,0.0231,0.0,0.0,0.0,0.0,0.0,0.0,0.0,0.0,0.0,0.0,0.0,0.0,0.0,0.0,0.0,0.0,0.0,0.0,0.0,0.0,0.0,0.0,0.0,0.0,0.0,0.0,0.0,0.0,0.0,0.0,0.0,0.0,0.0,0.0,0.0,0.0,0.0,0.0,0.0,0.0,0.0,0.0,0.0,0.0,0.0,0.0,0.0,0.0,0.0,0.0,0.0,0.0,0.0,0.0,0.0,0.0,0.0,0.0,0.0,0.0,0.0,0.0,0.0,0.0,0.0,0.0,0.0,0.0,0.0,0.0,0.0,0.0,0.0,0.0,0.0,0.0,0.0,0.0,0.0,0.0,0.0,0.0,0.0,0.0,0.0,-0.2144,-0.218,0.0,0.0,0.0,0.0,0.0,-0.0805,-0.0488,-0.0212,0.0065,0.0223,0.0295,0.0,0.0,0.0,0.0,0.0,0.0,0.0,0.0,0.0,0.0,0.0,0.0,0.0,0.0,0.1506,0.1229,0.0824,0.0423,0.0334,0.0,0.0,0.0,0.0,0.0,0.0,0.0,0.0,0.0,0.0,0.0,0.0,0.0,0.0,0.0,0.0,0.0,0.0,0.0,0.0,0.0,0.0,0.0,0.0,0.0,0.0,0.0,0.0,0.0,0.0,0.0,0.0,0.0,0.0,0.0,0.0,0.0,0.0,0.0,0.0,0.0,0.0,0.0,0.0,0.0,0.0,0.0,0.0,0.0,0.0,0.0,0.0,0.0,0.0,0.0,0.0,0.0,0.0,0.0,0.0,0.0,0.0,0.0,0.0,0.0,0.0,0.0,0.0,0.0,0.0,0.0,0.0,0.0,0.0,0.0,0.0,0.0,0.0,0.0,0.0,0.0,0.0,0.0,0.0,0.0,0.0,0.0,0.0,0.0,0.0,0.0,0.0,0.0,0.0,0.0,0.0,0.0,0.0,0.0,0.0,0.0,0.0,0.0,0.0,0.0,0.0,0.0,0.0,0.0,0.0,0.2865,0.2057,0.1813,0.1302,0.0706,0.0469,0.0205,0.0043,0.0,0.0,0.0,0.0,0.0,0.0,0.0,0.0,0.0,0.0,0.0,0.0,0.0,0.0,0.0,0.0,0.0,0.0,0.0,0.0,0.0,0.0,0.0,0.0,0.0,0.0,0.0,0.0,0.0,0.0,0.0,0.0,0.0,0.0,0.0,0.0,0.0,0.0,0.0,0.0,0.0,0.0,0.0,0.0,0.0,0.0,0.0,0.0,0.0,0.0,0.0,0.0,0.0,0.0,0.0,0.0,0.0,0.0,0.0,0.0,0.0,0.0,0.0,0.0,0.0,0.0,0.0,0.0,-0.327,0.0,0.0,0.0,0.0,0.0,0.0,0.0,0.0,0.0,0.0,0.0,0.0,0.0,0.0,0.0,0.0,0.0,0.0,0.0,0.0,0.0,0.0,0.0,0.0,0.0,0.0,0.0,0.0,0.0,0.0,0.0,0.0,0.0,0.0,0.0,0.0,0.0,0.0,0.0,0.3626,0.2983,0.2627,0.2122,0.1564,0.0985,0.0594,0.0263,0.0046,0.0,0.0,0.0,0.0,0.0,0.0,0.0,0.0,0.0,0.0,0.0,0.0,0.0,0.0,0.0,0.0,0.0,0.0,0.0,0.0,0.0,0.0,0.0,0.0,0.0,0.0,0.0,0.0,0.0,0.0,0.0,0.0,0.0,0.0,0.0,0.0,0.0,0.0,0.0,0.0,0.0,0.0,0.0,0.0,0.0,0.0,0.0,0.0,0.0,0.0,0.0,0.0,0.0,0.0,0.0,0.0,0.0,0.0,0.0,0.0,0.0,0.0,0.0,0.0,0.0,0.0,0.0,-0.3141,-0.2947,0.0,0.0,0.0,0.0,0.0,0.0,0.0,0.0,0.0,0.0,0.0,0.0,0.0,0.0,0.0,0.0,0.0,0.0,0.0,0.0,0.0,0.0,0.0,0.0,0.0,0.0,0.0,0.0,0.0,0.0,0.0,0.0,0.0,0.0,0.0,0.0,0.0,0.0,0.4,0.3695,0.3326,0.2649,0.186,0.1286,0.0727,0.0308,0.0046,0.0,0.0,0.0,0.0,0.0,0.0,0.0,0.0,0.0,0.0,0.0,0.0,0.0,0.0,0.0,0.0,0.0,0.0,0.0,0.0,0.0,0.0,0.0,0.0,0.0,0.0,0.0,0.0,0.0,0.0,0.0,0.0,0.0,0.0,0.0,0.0,0.0,0.0,0.0,0.0,0.0,0.0,0.0,0.0,0.0,0.0,0.0,0.0,0.0,0.0,0.0,0.0,0.0,0.0,0.0,0.0,0.0,0.0,0.0,0.0,0.0,0.0,0.0,0.0,-0.3076,-0.3199,-0.3109,-0.2907,-0.2607,-0.2176,-0.1896,-0.1593,0.0,0.0,0.0,0.0,0.0,0.0,0.0,0.0,0.0,0.0,0.0,0.0,0.0,0.0,0.0,0.0,0.0,0.0,0.0,0.0,0.0,0.0,0.0,0.0,0.0,0.0,0.0,0.0,0.0,0.0,0.0,0.0,0.0,0.0,0.0,0.4131,0.4071,0.3818,0.3011,0.2105,0.1552,0.093,0.0393,0.0136,0.0046,0.0,0.0,0.0,0.0,0.0,0.0,0.0,0.0,0.0,0.0,0.0,0.0,0.0,0.0,0.0,0.0,0.0,0.0,0.0,0.0,0.0,0.0,0.0,0.0,0.0,0.0,0.0,0.0,0.0,0.0,0.0,0.0,0.0,0.0,0.0,0.0,0.0,0.0,0.0,0.0,0.0,0.0,0.0,0.0,0.0,0.0,0.0,0.0,0.0,0.0,0.0,0.0,0.0,0.0,0.0,0.0,0.0,0.0,0.0,0.0,0.0,0.0,0.0,-0.2897,-0.2961,-0.2776,-0.2511,-0.216,-0.1636,-0.1541,-0.1371,0.0,0.0,0.0,0.0,0.0,0.0,0.0,0.0,0.0,0.0,0.0,0.0,0.0,0.0,0.0,0.0,0.0,0.0,0.0,0.0,0.0,0.0,0.0,0.0,0.0,0.0,0.0,0.0,0.0,0.0,0.0,0.0,0.0,0.0,0.0,0.0,0.3821,0.3786,0.3374,0.274,0.1906,0.0,0.0,0.0356,0.0137,0.0,0.0,0.0,0.0,0.0,0.0,0.0,0.0,0.0,0.0,0.0,0.0,0.0,0.0,0.0,0.0,0.0,0.0,0.0,0.0,0.0,0.0,0.0,0.0,0.0,0.0,0.0,0.0,0.0,0.0,0.0,0.0,0.0,0.0,0.0,0.0,0.0,0.0,0.0,0.0,0.0,0.0,0.0,0.0,0.0,0.0,0.0,0.0,0.0,0.0,0.0,0.0,0.0,0.0,0.0,0.0,0.0,0.0,0.0,0.0,0.0,0.0,0.0,-0.2712,-0.2731,-0.2494,-0.2259,-0.1912,-0.1373,-0.1097,-0.086,0.0,0.0,0.0,0.0,0.0,0.0,0.0,0.0,0.0,0.0,0.0,0.0,0.0,0.0,0.0,0.0,0.0,0.0,0.0,0.0,0.0,0.0,0.0,0.0,0.0,0.0,0.0,0.0,0.0,0.0,0.0,0.0,0.0,0.0,0.0,0.0,0.0,0.3547,0.3143,0.0,0.0,0.1298,0.0655,0.0391,0.0133,0.0,0.0,0.0,0.0,0.0,0.0,0.0,0.0,0.0,0.0,0.0,0.0,0.0,0.0,0.0,0.0,0.0,0.0,0.0,0.0,0.0,0.0,0.0,0.0,0.0,0.0,0.0,0.0,0.0,0.0,0.0,0.0,0.0,0.0,0.0,0.0,0.0,0.0,0.0,0.0,0.0,0.0,0.0,0.0,0.0,0.0,0.0,0.0,0.0,0.0,0.0,0.0,0.0,0.0,0.0,0.0,0.0,0.0,0.0,0.0,0.0,0.0,-0.2304,-0.2485,-0.247,-0.2162,-0.1984,-0.1671,-0.1109,-0.0751,-0.0479,-0.033,0.0,0.0,0.0,0.0,0.0,0.0,0.0,0.0,0.0,0.0,0.0,0.0,0.0,0.0,0.0,0.0,0.0,0.0,0.0,0.0,0.0,0.0,0.0,0.0,0.0,0.0,0.0,0.0,0.0,0.0,0.0,0.0,0.0,0.0,0.0,0.0,0.0,0.0,0.0,0.0,0.1296,0.0618,0.0457,0.0212,0.0,0.0,0.0,0.0,0.0,0.0,0.0,0.0,0.0,0.0,0.0,0.0,0.0,0.0,0.0,0.0,0.0,0.0,0.0,0.0,0.0,0.0,0.0,0.0,0.0,0.0,0.0,0.0,0.0,0.0,0.0,0.0,0.0,0.0,0.0,0.0,0.0,0.0,0.0,0.0,0.0,0.0,0.0,0.0,0.0,0.0,0.0,0.0,0.0,0.0,0.0,0.0,0.0,0.0,0.0,0.0,0.0,0.0,0.0,0.0,0.0,0.0,0.0,-0.2181,-0.2162,-0.1753,-0.1643,-0.1372,-0.0773,-0.0518,-0.032,-0.0124,0.0,0.0,0.0,0.0,0.0,0.0,0.0,0.0,0.0,0.0,0.0,0.0,0.0,0.0,0.0,0.0,0.0,0.0,0.0,0.0,0.0,0.0,0.0,0.0,0.0,0.0,0.0,0.0,0.0,0.0,0.0,0.0,0.0,0.0,0.0,0.0,0.0,0.0,0.0,0.0,0.1378,0.0785,0.0617,0.032,0.0,0.0,0.0,0.0,0.0,0.0,0.0,0.0,0.0,0.0,0.0,0.0,0.0,0.0,0.0,0.0,0.0,0.0,0.0,0.0,0.0,0.0,0.0,0.0,0.0,0.0,0.0,0.0,0.0,0.0,0.0,0.0,0.0,0.0,0.0,0.0,0.0,0.0,0.0,0.0,0.0,0.0,0.0,0.0,0.0,0.0,0.0,0.0,0.0,0.0,0.0,0.0,0.0,0.0,0.0,0.0,0.0,0.0,0.0,0.0,0.0,0.0,0.0,-0.1663,-0.1484,-0.1136,-0.0992,-0.0759,-0.0341,-0.0233,-0.0147,-0.0045,0.0,0.0,0.0,0.0,0.0,0.0,0.0,0.0,0.0,0.0,0.0,0.0,0.0,0.0,0.0,0.0,0.0,0.0,0.0,0.0,0.0,0.0,0.0,0.0,0.0,0.0,0.0,0.0,0.0,0.0,0.0,0.0,0.0,0.0,0.0,0.0,0.0,0.0,0.0,0.1555,0.1039,0.0,0.0437,0.0188,0.0,0.0,0.0,0.0,0.0,0.0,0.0,0.0,0.0,0.0,0.0,0.0,0.0,0.0,0.0,0.0,0.0,0.0,0.0,0.0,0.0,0.0,0.0,0.0,0.0,0.0,0.0,0.0,0.0,0.0,0.0,0.0,0.0,0.0,0.0,0.0,0.0,0.0,0.0,0.0,0.0,0.0,0.0,0.0,0.0,0.0,0.0,0.0,0.0,0.0,0.0,0.0,0.0,0.0,0.0,0.0,0.0,0.0,0.0,0.0,0.0,0.0,0.0,-0.1225,-0.0994,-0.0659,-0.0538,-0.0379,-0.009,-0.0082,-0.0071,-0.0011,0.0,0.0,0.0,0.0,0.0,0.0,0.0,0.0,0.0,0.0,0.0,0.0,0.0,0.0,0.0,0.0,0.0,0.0,0.0,0.0,0.0,0.0,0.0,0.0,0.0,0.0,0.2822,0.0,0.0,0.0,0.0,0.0,0.0,0.0,0.0,0.0,0.0,0.0,0.0,0.0,0.0791,0.0379,0.0,0.0137,0.0,0.0,0.0,0.0,0.0,0.0,0.0,0.0,0.0,0.0,0.0,0.0,0.0,0.0,0.0,0.0,0.0,0.0,0.0,0.0,0.0,0.0,0.0,0.0,0.0,0.0,0.0,0.0,0.0,0.0,0.0,0.0,0.0,0.0,0.0,0.0,0.0,0.0,0.0,0.0,0.0,0.0,0.0,0.0,0.0,0.0,0.0,0.0,0.0,0.0,0.0,0.0,0.0,0.0,0.0,0.0,0.0,0.0,0.0,0.0,0.0,0.0,0.0,0.0,0.0,0.0,-0.0259,-0.0202,0.0,-0.0045,-0.0067,0.0,0.0,0.0,0.0,0.0,0.0,0.0,0.0,0.0,0.0,0.0,0.0,0.0,-0.0749,-0.0753,-0.0494,0.0,0.0,0.0,0.0,0.0,0.0,0.0,0.0,0.0,0.0,0.2696,0.0,0.0,0.0,0.0,0.0,0.0,0.0,0.0,0.0,0.0,0.0,0.0,0.0,0.0,0.0,0.0,0.0,0.0153,0.0,0.0,0.0,0.0,0.0,0.0,0.0,0.0,0.0026,0.0027,0.0027,0.0028,0.0,0.0,0.0,0.0,0.0,0.0,0.0,0.0,0.0,0.0,0.0,0.0,0.0,0.0,0.0,0.0,0.0,0.0,0.0,0.0,0.0,0.0,0.0,0.0,0.0,0.0,0.0,0.0,0.0,0.0,0.0,0.0,0.0,0.0,0.0,0.0,0.0,0.0,0.0,0.0,0.0,0.0,0.0,0.0,0.0,0.0,0.0,0.0,0.0,0.0,0.0,0.0,0.0,0.0,0.0101,0.0067,0.0213,0.0079,0.0,0.0,0.0,0.0,0.0,0.0,0.0,0.0,0.0,0.0,0.0,0.0,0.0,-0.0353,-0.0573,-0.0554,-0.0352,-0.0394,0.0,0.0,0.0,0.0,0.0,0.0,0.0,0.0,0.2679,0.2696,0.0,0.0,0.0,0.0,0.2866,0.2936,0.0,0.0,0.0,0.0,0.0,0.0,0.0,0.0,0.0773,0.0418,0.015,0.0,0.0,0.0,0.0,0.0,0.0,0.0,0.0026,0.0131,0.0,0.0182,0.0274,0.0229,0.0149,0.0,0.0,0.0,0.0,0.0,0.0,0.0,0.0,0.0,0.0,0.0,0.0,0.0,0.0,0.0,0.0,0.0,0.0,0.0,0.0,0.0,0.0,0.0,0.0,0.0,0.0,0.0,0.0,0.0,0.0,0.0,0.0,0.0,0.0,0.0,0.0,0.0,0.0,0.0,0.0,0.0,0.0,0.0,0.0,0.0,0.0,0.0,0.0,0.0,0.0,0.0,0.0,0.0,0.0,0.0,0.0,0.0,0.0,0.0,0.0,0.0,0.0,0.0,0.0,0.0,0.0,0.0,0.0,0.0,0.0,0.0,0.0,-0.0617,0.0,0.0,0.0,0.0,0.0,0.0,0.0,0.0,0.0,0.0,0.2679,0.0,0.0,0.0,0.0,0.0,0.2774,0.2849,0.0,0.3148,0.3208,0.3162,0.0,0.0,0.0,0.0,0.0807,0.0431,0.0095,0.0,0.0,0.0,0.0,0.0,0.0,0.0,0.0,0.0,0.0,0.0263,0.0416,0.0,0.0,0.0,0.0,0.0,0.0,0.0,0.0,0.0,0.0,0.0,0.0,0.0,0.0,0.0,0.0,0.0,0.0,0.0,0.0,0.0,0.0,0.0,0.0,0.0,0.0,0.0,0.0,0.0,0.0,0.0,0.0,0.0,0.0,0.0,0.0,0.0,0.0,0.0,0.0,0.0,0.0,0.0,0.0,0.0,0.0,0.0,0.0,0.0,0.0,0.0,0.0,0.0,0.0,0.0,0.0,0.0,0.0,0.0,0.0,0.0,0.0,0.0,0.0,0.0,0.0,0.0,0.0,0.0,0.0,0.0,0.0,0.0,0.0,0.0,0.0,0.0,0.0,0.0,0.0,0.0,0.0,0.0,0.0,0.0,0.0,0.0,0.0,0.0,0.0,0.0,0.0,0.0,0.0,0.302,0.3129,0.3155,0.293,0.0,0.0,0.0,0.0,0.0,0.0095,0.0,0.0,0.0,0.0,0.0,0.0,0.0,0.0,0.0,0.0,0.0,0.0,0.0,0.0,0.0,0.0,0.0,0.0,0.0,0.0,0.0,0.0,0.0,0.0,0.0,0.0,0.0,0.0,0.0,0.0,0.0,0.0,0.0,0.0,0.0,0.0,0.0,0.0,0.0,0.0,0.0,0.0,0.0,0.0,0.0,0.0,0.0,0.0,0.0,0.0,0.0,0.0,0.0,0.0,0.0,0.0,0.0,0.0,0.0,0.0,0.0,0.0,0.0,0.0,0.0,0.0,0.0,0.0,0.0,0.0,0.0,0.0,0.0,0.0,0.0,0.0,0.0,0.0,0.0,0.0,0.0,0.0,0.0,0.0,0.0,0.0,0.0,-0.0239,-0.0237,-0.0022,0.0,0.0,0.0,0.0,0.0,0.0,0.0,0.0,0.0,0.0,0.0,0.0,0.0,0.0,0.0,0.0,0.289,0.302,0.3063,0.2755,0.0,0.0,0.0,0.0,0.0,0.0118,0.0,0.0,0.0,0.0,0.0,0.0,0.0,0.0,0.0,0.0,0.0,0.0,0.0,0.0,0.0,0.0,0.0,0.0,0.0,0.0,0.0,0.0,0.0,0.0,0.0,0.0,0.0,0.0,0.0,0.0,0.0,0.0,0.0,0.0,0.0,0.0,0.0,0.0,0.0,0.0,0.0,0.0,0.0,0.0,0.0,0.0,0.0,0.0,0.0,0.0,0.0,0.0,0.0,0.0,0.0,0.0,0.0,0.0,0.0,0.0,0.0,0.0,0.0,0.0,0.0,0.0,0.0,0.0,0.0,0.0,0.0,0.0,0.0,0.0,0.0,0.0,0.0,0.0,0.0,0.0,0.0,0.0,0.0,0.0,0.0,0.0,-0.0255,-0.0197,-0.0123,0.0068,0.0353,0.0,0.0,0.0,0.0,0.0,0.0,0.0,0.0,0.0,0.0,0.0,0.0,0.0,0.0,0.0,0.0,0.2983,0.305,0.2704,0.0,0.0,0.0,0.0,0.0,0.0121,0.0,0.0,0.0,0.0,0.0,0.0,0.0,0.0,0.0,0.0,0.0,0.0,0.0,0.0,0.0,0.0,0.0,0.0,0.0,0.0,0.0,0.0,0.0,0.0,0.0,0.0,0.0,0.0,0.0,0.0,0.0,0.0,0.0,0.0,0.0,0.0,0.0,0.0,0.0,0.0,0.0,0.0,0.0,0.0,0.0,0.0,0.0,0.0,0.0,0.0,0.0,0.0,0.0,0.0,0.0,0.0,0.0,0.0,0.0,0.0,0.0,0.0,0.0,0.0,0.0,0.0,0.0,0.0,0.0,0.0,0.0,0.0,0.0,0.0,0.0,0.0,0.0,0.0,0.0,0.0,0.0,0.0,0.0,0.0,0.0043,-0.0135,-0.0214,-0.0149,-0.0049,0.0114,0.0,0.0,0.0,0.0,0.0,0.0,0.2341,0.0,0.0,0.0,0.0,0.0,0.0,0.0,0.0,0.0,0.0,0.0,0.0,0.0,0.0,0.0,0.1365,0.092,0.0594,0.0123,0.0,0.0,0.0,0.0,0.0,0.0,0.0,0.0,0.0,0.0,0.0,0.0,0.0,0.0,0.0,0.0,0.0,0.0,0.0,0.0,0.0,0.0,0.0,0.0,0.0,0.0,0.0,0.0,0.0,0.0,0.0,0.0,0.0,0.0,0.0,0.0,0.0,0.0,0.0,0.0,0.0,0.0,0.0,0.0,0.0,0.0,0.0,0.0,0.0,0.0,0.0,0.0,0.0,0.0,0.0,0.0,0.0,0.0,0.0,0.0,0.0,0.0,0.0,0.0,0.0,0.0,0.0,0.0,0.0,0.0,0.0,0.0,0.0,0.0,0.0,0.0,0.0,0.0,0.0,0.0,0.0,0.0,0.031,0.0255,0.0179,0.0048,-0.0025,-0.0024,0.0,0.0108,0.0314,0.0,0.0,0.0,0.0,0.0,0.215,0.2411,0.0,0.0,0.0,0.0,0.0,0.0,0.0,0.0,0.0,0.0,0.0,0.0,0.0,0.2326,0.1365,0.092,0.059,0.0119,0.0,0.0,0.0,0.0,0.0,0.0,0.0,0.0,0.0261,0.0,0.0,0.0,0.0,0.0,0.0,0.0,0.0,0.0,0.0,0.0,0.0,0.0,0.0,0.0,0.0,0.0,0.0,0.0,0.0,0.0,0.0,0.0,0.0,0.0,0.0,0.0,0.0,0.0,0.0,0.0,0.0,0.0,0.0,0.0,0.0,0.0,0.0,0.0,0.0,0.0,0.0,0.0,0.0,0.0,0.0,0.0,0.0,0.0,0.0,0.0,0.0,0.0,0.0,0.0,0.0,0.0,0.0,0.0,0.0,0.0,0.0,0.0,0.0,0.0,0.0,0.0,0.0,0.0,0.0,0.0,0.1175,0.1019,0.0703,0.0585,0.0627,0.0285,0.0073,0.0,0.0,0.0,0.0,0.0,0.0,0.0,0.0,0.0,0.1878,0.2231,0.2383,0.0,0.0,0.0,0.0,0.0,0.0,0.0,0.0,0.2818,0.2931,0.2614,0.2513,0.2332,0.1532,0.112,0.0819,0.0267,0.0125,0.0104,0.0029,0.0,0.0,0.0,0.0,0.0039,0.008,0.0,0.0,0.0,0.0,0.0,0.0,0.0,0.0,0.0,0.0,0.0,0.0,0.0,0.0,0.0,0.0,0.0,0.0,0.0,0.0,0.0,0.0,0.0,0.0,0.0,0.0,0.0,0.0,0.0,0.0,0.0,0.0,0.0,0.0,0.0,0.0,0.0,0.0,0.0,0.0,0.0,0.0,0.0,0.0,0.0,0.0,0.0,0.0,0.0,0.0,0.0,0.0,0.0,0.0,0.0,0.0,0.0,0.0,0.0,0.0,0.0,0.0,0.0,0.0,0.0,0.0,0.0,0.0,0.0,0.0,0.0,0.1546,0.1655,0.1209,0.0977,0.0962,0.0485,0.0187,0.007,0.0,0.0,0.0,0.0,0.0,0.0,0.0,0.0,0.0,0.2017,0.2183,0.0,0.0,0.0,0.0,0.0,0.0,0.0,0.0,0.2781,0.2861,0.266,0.2565,0.2389,0.1725,0.1366,0.1068,0.0535,0.0327,0.0238,0.009,0.0,0.0,0.0,0.0,0.0,0.0,0.0,0.0,0.0,0.0,0.0,0.0,0.0,0.0,0.0,0.0,0.0,0.0,0.0,0.0,0.0,0.0,0.0,0.0,0.0,0.0,0.0,0.0,0.0,0.0,0.0,0.0,0.0,0.0,0.0,0.0,0.0,0.0,0.0,0.0,0.0,0.0,0.0,0.0,0.0,0.0,0.0,0.0,0.0,0.0,0.0,0.0,0.0,0.0,0.0,0.0,0.0,0.0,0.0,0.0,0.0,0.0,0.0,0.0,0.0,0.0,0.0,0.0,0.0,0.0,0.0,0.0,0.0,0.0,0.0,0.0,0.0,0.1852,0.2189,0.1811,0.1432,0.1096,0.0627,0.0337,0.0202,0.0059,0.0,0.0,0.0,0.0,0.0,0.0,0.0,0.0,0.173,0.1931,0.2014,0.0,0.0,0.0,0.0,0.0,0.0,0.0,0.2781,0.2858,0.2657,0.2605,0.2495,0.1969,0.1614,0.1311,0.0919,0.0604,0.0382,0.0,0.0,0.0,0.0,0.0,0.0,0.0,0.0,0.0,0.0,0.0,0.0,0.0,0.0,0.0,0.0,0.0,0.0,0.0,0.0,0.0,0.0,0.0,0.0,0.0,0.0,0.0,0.0,0.0,0.0,0.0,0.0,0.0,0.0,0.0,0.0,0.0,0.0,0.0,0.0,0.0,0.0,0.0,0.0,0.0,0.0,0.0,0.0,0.0,0.0,0.0,0.0,0.0,0.0,0.0,0.0,0.0,0.0,0.0,0.0,0.0,0.0,0.0,0.0,0.0,0.0,0.0,0.0,0.0,0.0,0.0,0.0,0.0,0.0,0.0,0.0,0.0,0.0,0.0,0.0,0.0,0.1491,0.0962,0.0594,0.0307,0.0,0.0,0.0,0.004,0.0,0.0,0.0,0.0,0.0,0.0,0.0,0.1663,0.1742,0.0,0.0,0.0,0.0,0.0,0.0,0.0,0.0,0.0,0.2688,0.2711,0.2662,0.2277,0.203,0.1767,0.1178,0.0785,0.0,0.0,0.0,0.0,0.0,0.0,0.0,0.0,0.0,0.0,0.0,0.0,0.0,0.0,0.0,0.0,0.0,0.0,0.0,0.0,0.0,0.0,0.0,0.0,0.0,0.0,0.0,0.0,0.0,0.0,0.0,0.0,0.0,0.0,0.0,0.0,0.0,0.0,0.0,0.0,0.0,0.0,0.0,0.0,0.0,0.0,0.0,0.0,0.0,0.0,0.0,0.0,0.0,0.0,0.0,0.0,0.0,0.0,0.0,0.0,0.0,0.0,0.0,0.0,0.0,0.0,0.0,0.1839,0.0,0.0,0.0,0.0,0.0,0.0,0.0,0.0,0.0,0.0,0.0,0.0,0.0,0.1856,0.1525,0.0,0.0,0.0,0.0,0.0,0.0,0.0,0.0,0.0057,0.0,0.0,0.0,0.0,0.1212,0.1462,0.1625,0.0,0.0,0.0,0.0,0.0,0.0,0.0,0.0,0.0,0.2697,0.0,0.2786,0.2501,0.2361,0.2163,0.1523,0.0,0.0,0.0,0.0,0.0,0.0,0.0,0.0,0.0,0.0,0.0,0.0,0.0,0.0,0.0,0.0,0.0,0.0,0.0,0.0,0.0,0.0,0.0,0.0,0.0,0.0,0.0,0.0,0.0,0.0,0.0,0.0,0.0,0.0,0.0,0.0,0.0,0.0,0.0,0.0,0.0,0.0,0.0,0.0,0.0,0.0,0.0,0.0,0.0,0.0,0.0,0.0,0.0,0.0,0.0,0.0,0.0,0.0,0.0,0.1803,0.1803,0.0,0.0,0.0,0.0,0.0,0.0,0.0,0.1894,0.0,0.0,0.0,0.1803,0.0,0.0,0.0,0.0,0.0,0.0,0.0,0.0,0.0,0.0,0.0,0.0,0.0,0.0,0.0,0.0,0.0,0.0,0.0,0.0,0.0,0.0,0.0,0.0,0.1026,0.1326,0.1592,0.1795,0.0,0.0,0.0,0.0,0.0,0.0,0.0,0.0,0.2698,0.2784,0.2868,0.2675,0.2622,0.2492,0.1902,0.0,0.0,0.0,0.0,0.0,0.0,0.0,0.0,0.0,0.0,0.0,0.0,0.0,0.0,0.0,0.0,0.0,0.0,0.0,0.0,0.0,0.0,0.0,0.0,0.0,0.0,0.0,0.0,0.0,0.0,0.0,0.0,0.0,0.0,0.0,0.0,0.0,0.0,0.0,0.0,0.0,0.0,0.0,0.0,0.0,0.0,0.0,0.0,0.0,0.0,0.0,0.0,0.0,0.0,0.0,0.0,0.0,0.0,0.0,0.1803,0.1803,0.0,0.0,0.0,0.0,0.1927,0.1986,0.1942,0.1894,0.1894,0.1839,0.0,0.1803,0.1803,0.0,0.0,0.0,0.0,0.0,0.0,0.0,0.0,0.0,0.0,0.0,0.0,0.0,0.0,0.0,0.0,0.0,0.0,0.0,0.0,0.0,0.0,0.0487,0.0773,0.1043,0.1311,0.1575,0.1828,0.0,0.0,0.0,0.0,0.0,0.0,0.0,0.2703,0.28,0.2874,0.2781,0.2716,0.2588,0.0,0.0,0.0,0.0,0.0,0.0,0.0,0.0,0.0,0.0,0.0,0.0,0.0,0.0,0.0,0.0,0.0,0.0,0.0,0.0,0.0,0.0,0.0,0.0,0.0,0.0,0.0,0.0,0.0,0.0,0.0,0.0,0.0,0.0,0.0,0.0,0.0,0.0,0.0,0.0,0.0,0.0,0.0,0.0,0.0,0.0,0.0,0.0,0.0,0.0,0.0,0.0,0.0,0.0,0.0,0.0,0.0,0.0,0.0,0.0,0.0,0.0,0.0,0.0,0.0,0.0,0.1975,0.2045,0.2019,0.1997,0.1997,0.1942,0.0,0.0,0.185,0.1839,0.0,0.0,0.0,0.0,0.0,0.0,0.0,0.0,0.0,0.0,0.0,0.0,0.0,0.0,0.0,0.0,0.0,0.0,0.0,0.0,0.0,0.037,0.0639,0.0877,0.1081,0.1355,0.1628,0.1868,0.1964,0.0,0.0,0.0,0.0,0.0,0.0,0.0,0.2901,0.2857,0.285,0.2788,0.0,0.0,0.0,0.0,0.0,0.0,0.0,0.0,0.0,0.0,0.0,0.0,0.0,0.0,0.0,0.0,0.0,0.0,0.0,0.0,0.0,0.0,0.0,0.0,0.0,0.0,0.0,0.0,0.0,0.0,0.0,0.0,0.0,0.0,0.0,0.0,0.0,0.0,0.0,0.0,0.0,0.0,0.0,0.0,0.0,0.0,0.0,0.0,0.0,0.0,0.0,0.0,0.0,0.0,0.0,0.0,0.0,0.0,0.0,0.0,0.0,0.0,0.0,0.0,0.0,0.0,0.0,0.2078,0.2078,0.2078,0.2078,0.203,0.1975,0.0,0.0,0.0,0.1803,0.0,0.0,0.0,0.0,0.0,0.0,0.0,0.0,0.0,0.0,0.0,0.0,0.0,0.0,0.0,0.0,0.0,0.0,0.0,0.016,0.0282,0.0536,0.0715,0.0863,0.1108,0.1351,0.1599,0.1742,0.2015,0.2312,0.2421,0.0,0.0,0.0,0.0,0.2864,0.286,0.2917,0.2959,0.0,0.0,0.0,0.0,0.0,0.0,0.0,0.0,0.0,0.0,0.0,0.0,0.0,0.0,0.0,0.0,0.0,0.0,0.0,0.0,0.0,0.0,0.0,0.0,0.0,0.0,0.0,0.0,0.0,0.0,0.0,0.0,0.0,0.0,0.0,0.0,0.0,0.0,0.0,0.0,0.0,0.0,0.0,0.0,0.0,0.0,0.0,0.0,0.0,0.0,0.0,0.0,0.0,0.0,0.0,0.0,0.0,0.0,0.0,0.0,0.0,0.0,0.0,0.0,0.0,0.0,0.0,0.0,0.2008,0.2008,0.2008,0.2008,0.1975,0.1905,0.1894,0.1872,0.0,0.0,0.0,0.0,0.0,0.0,0.0,0.0,0.0,0.0,0.0,0.0,0.0,0.0,0.0,0.0,0.0,0.0,0.0,0.0,0.0054,0.0141,0.0296,0.0438,0.0573,0.0718,0.0919,0.1117,0.1307,0.16,0.1928,0.223,0.2417,0.0,0.0,0.0,0.0,0.0,0.2816,0.2919,0.0,0.0,0.0,0.0,0.0,0.0,0.0,0.0,0.0,0.0,0.0,0.0,0.0,0.0,0.0,0.0,0.0,0.0,0.0,0.0,0.0,0.0,0.0,0.0,0.0,0.0,0.0,0.0,0.0,0.0,0.0,0.0,0.0,0.0,0.0,0.0,0.0,0.0,0.0,0.0,0.0,0.0,0.0,0.0,0.0,0.0,0.0,0.0,0.0,0.0,0.0,0.0,0.0,0.0,0.0,0.0,0.0,0.0,0.0,0.0,0.0,0.0,0.0,0.0,0.0,0.0,0.0,0.0,0.0,0.2056,0.2056,0.2056,0.203,0.1964,0.1953,0.0,0.0,0.0,0.0,0.0,0.0,0.0,0.0,0.0,0.0,0.0,0.0,0.0,0.0,0.0109,0.0,0.0,0.0,0.0,0.0,0.0,0.0,0.0051,0.0152,0.0215,0.0292,0.0433,0.0596,0.0812,0.105,0.0,0.1784,0.2081,0.2331,0.2527,0.2663,0.0,0.0,0.0,0.0,0.0,0.0,0.0,0.0,0.0,0.0,0.0,0.0,0.0,0.0,0.0,0.0,0.0,0.0,0.0,0.0,0.0,0.0,0.0,0.0,0.0,0.0,0.0,0.0,0.0,0.0,0.0,0.0,0.0,0.0,0.0,0.0,0.0,0.0,0.0,0.0,0.0,0.0,0.0,0.0,0.0,0.0,0.0,0.0,0.0,0.0,0.0,0.0,0.0,0.0,0.0,0.0,0.0,0.0,0.0,0.0,0.0,0.0,0.0,0.0,0.0,0.0,0.0,0.0,0.0,0.0,0.0,0.0,0.0,0.0,0.2078,0.2078,0.0,0.0,0.0,0.1975,0.0,0.0,0.0,0.0,0.0,0.0,0.0,0.0,0.0,0.0,0.0,0.0,0.0,0.0329,0.0111,0.0,0.0,0.0,0.0,0.0,0.0,0.0,0.0,0.0054,0.0071,0.0088,0.018,0.0326,0.0519,0.0787,0.0,0.0,0.0,0.0,0.0,0.0,0.0,0.0,0.0,0.0,0.0,0.0,0.0,0.0,0.0,0.0,0.0,0.0,0.0,0.0,0.0,0.0,0.0,0.0,0.0,0.0,0.0,0.0,0.0,0.0,0.0,0.0,0.0,0.0,0.0,0.0,0.0,0.0,0.0,0.0,0.0,0.0,0.0,0.0,0.0,0.0,0.0,0.0,0.0,0.0,0.0,0.0,0.0,0.0,0.0,-0.0051,-0.0101,-0.0101,-0.0152,-0.0202,-0.0152,-0.0101,-0.0101,-0.0051,0.0,0.0,0.0,0.0,0.0,0.0,0.0,0.0,0.0,0.0,0.0,0.0,0.0,0.0,0.0,0.0,0.2008,0.2008,0.2067,0.2045,0.1916,0.1905,0.0,0.0,0.0,0.0,0.0,0.0,0.0,0.0,0.0,0.0,0.0,0.0,0.0,0.0384,0.0133,0.0,0.0,0.0,0.0,0.0,0.0,0.0,0.0,0.0,0.0,0.0,0.0021,0.0065,0.0167,0.0,0.0,0.0,0.0,0.0,0.0,0.0,0.0,0.0,0.0,0.0,0.0,0.0,0.0,0.0,0.0,0.0,0.0,0.0,0.0,0.0,0.0,0.0,0.0,0.0,0.0,0.0,0.0,0.0,0.0,0.0,0.0,0.0,0.0,0.0,0.0,0.0,0.0,0.0,0.0,0.0,0.0,0.0,0.0,0.0,0.0,0.0,0.0,0.0,0.0,0.0,0.0,0.0,0.0,0.0,0.0,-0.0152,-0.0404,-0.0404,-0.0505,-0.0758,-0.0505,-0.0404,-0.0354,-0.0101,0.0,0.0,0.0,0.0,0.0,0.0,0.0,0.0,0.0,0.0,0.0,0.0,0.0,0.0,0.0,0.0,0.0,0.0,0.1997,0.1997,0.1905,0.1861,0.0,0.0,0.0,0.0,0.0,0.0,0.0,0.0,0.0,0.0,0.0,0.0,0.0591,0.0396,0.0162,0.0045,0.0,0.0,0.0,0.0,0.0,0.0,0.0,0.0,0.0,0.0,0.0,0.0049,0.0148,0.0,0.0,0.0,0.0,0.0,0.0,0.0,0.267,0.2645,0.269,0.0,0.0,0.0,0.0,0.0,0.0,0.0,0.0,0.0,0.0,0.0,0.0,0.0,0.0,0.0,0.0,0.0,0.0,0.0,0.0,0.0,0.0,0.0,0.0,0.0,0.0,0.0,0.0,0.0,0.0,0.0,0.0,0.0,0.0,0.0,0.0,0.0,0.0,0.0,0.0,0.0,0.0,0.0,0.0,0.0,0.0,-0.0253,-0.0657,-0.0657,-0.0707,-0.0808,-0.0707,-0.0657,-0.0657,-0.0556,-0.0404,-0.0253,-0.0253,-0.0152,0.0,0.0,0.0,0.0,0.1061,0.0,0.0646,0.069,0.0792,0.0949,0.0,0.0,0.0,0.0,0.0,0.1894,0.1872,0.1828,0.0,0.0,0.0,0.0,0.0,0.0,0.0,0.0,0.0,0.0,0.0,0.0,0.0,0.0,0.0203,0.0062,0.0,0.0,0.0,0.0,0.0,0.0,0.0,0.0,0.0,0.0105,0.0,0.0166,0.0,0.0,0.0,0.0,0.0,0.0,0.0,0.0,0.2757,0.2761,0.2771,0.0,0.0,0.0,0.0,0.0,0.0,0.0,0.0,0.0,0.0,0.0,0.0,0.0,0.0,0.0,0.0,0.0,0.0,0.0,0.0,0.0,0.0,0.0,0.0,0.0,0.0,0.0,0.0,0.0,0.0,0.0,0.0,0.0,0.0,0.0,0.0,0.0,0.0,0.0,0.0,0.0,0.0,0.0,0.0,0.0,0.0,-0.0253,-0.0657,-0.0657,-0.0859,-0.1212,-0.1111,-0.1162,-0.1313,-0.1161,-0.0959,-0.0808,-0.0707,-0.0455,-0.0152,0.1825,0.1416,0.1005,0.0736,0.0457,0.0278,0.0278,0.0334,0.0501,0.0828,0.0,0.0,0.0,0.0,0.0,0.0,0.0,0.0,0.0,0.0,0.0,0.0,0.0,0.0,0.0,0.0,0.0,0.0,0.0,0.0,0.0,0.0,0.0074,0.0,0.0,0.0,0.0,0.0,0.0,0.0024,0.0,0.0309,0.0312,0.0,0.0,0.0,0.0394,0.0393,0.0,0.0,0.0,0.0,0.0,0.2848,0.2902,0.2899,0.2993,0.0,0.0,0.0,0.0,0.0,0.0,0.0,0.0,0.0,0.0,0.0,0.0,0.0,0.0,0.0,0.0,0.0,0.0,0.0,0.0,0.0,0.0,0.0,0.0,0.0,0.0,0.0,0.0,0.0,0.0,0.0,0.0,0.0,0.0,0.0,0.0,0.0,0.0,0.0,0.0,0.0,0.0,0.0,0.0,0.0,-0.0152,-0.0404,-0.0404,-0.101,-0.1971,-0.1718,-0.1919,-0.2371,-0.1865,-0.1664,-0.1613,-0.1313,-0.0909,-0.0404,0.1574,0.1172,0.0781,0.0468,0.0067,-0.0222,-0.0267,-0.0222,-0.0057,0.0,0.0,0.0,0.0,0.0,0.0,0.0,0.0,0.0,0.0,0.0,0.0,0.0,0.0,0.0,0.0,0.0,0.0,0.0,0.0,0.0,0.0,0.0,0.0,0.0,0.0,0.0,0.0,0.0,0.0,0.0,0.0247,0.0351,0.0,0.0,0.0,0.0,0.0,0.0411,0.0371,0.0,0.1571,0.1831,0.0,0.0,0.0,0.3074,0.3071,0.0,0.3266,0.0,0.0,0.0,0.0,0.0,0.0,0.0,0.0,0.0,0.0,0.0,0.0,0.0,0.0,0.0,0.0,0.0,0.0,0.0,0.0,0.0,0.0,0.0,0.0,0.0,0.0,0.0,0.0,0.0,0.0,0.0,0.0,0.0,0.0,0.0,0.0,0.0,0.0,0.0,0.0,0.0,0.0,0.0,-0.0253,-0.0707,-0.0707,-0.1313,-0.2271,-0.2018,-0.232,-0.2973,-0.3024,-0.2823,-0.2422,-0.217,-0.1464,-0.0657,0.1421,0.094,0.048,0.0152,-0.0362,-0.0752,-0.0826,-0.0777,-0.0614,0.0,0.0,0.0,0.0,0.0,0.0,0.0,0.0,0.0,0.0,0.0,0.1803,0.1803,0.1803,0.0,0.0,0.0,0.0,0.0,0.0,0.0,0.0,0.0,0.0,0.0,0.0,0.0,0.0,0.0,0.0,0.0,0.0333,0.0,0.0,0.0777,0.0637,0.0,0.0,0.0,0.0216,0.0983,0.1663,0.0,0.0,0.0,0.3484,0.3425,0.3402,0.0,0.0,0.0,0.0,0.0,0.0,0.0,0.0,0.0,0.0,0.0,0.0,0.0,0.0,0.0,0.0,0.0,0.0,0.0,0.0,0.0,0.0,0.0,0.0,0.0,0.0,0.0,0.0,0.0,0.0,0.0,0.0,0.0,0.0,0.0,0.0,0.0,0.0,0.0,0.0,0.0,0.0,0.0,0.0,0.0,-0.0253,-0.0657,-0.0657,-0.1262,-0.2219,-0.2169,-0.2773,-0.3729,-0.3882,-0.3731,-0.343,-0.2924,-0.2068,-0.106,0.0,0.0707,0.0151,-0.0203,-0.081,-0.1287,-0.136,-0.1311,-0.1162,0.0,-0.0169,0.0,0.0,0.0,0.0,0.0,0.0,0.0,0.0,0.0,0.182,0.1803,0.1803,0.1803,0.0,0.0,0.0,0.0,0.0,0.0,0.0,0.0,0.0,0.0,0.0,0.0,0.0,0.0,0.0,0.0217,0.0419,0.0645,0.0,0.0,0.0873,0.0,0.0593,0.0336,0.0114,0.0738,0.1804,0.0,0.0,0.3594,0.3859,0.3886,0.389,0.0,0.0,0.3843,0.0,0.0,0.0,0.0,0.2353,0.1657,0.0,0.0,0.0,0.0,0.0,0.0,0.0,0.0,0.0,0.0,0.0,0.0,0.0,0.0,0.0,0.0,0.0,0.0,0.0,0.0,0.0,0.0,0.0,0.0,0.0,0.0,0.0,0.0,0.0,0.0,0.0,0.0,0.0,0.0,0.0,0.0,-0.0152,-0.0455,-0.0455,-0.106,-0.2017,-0.2269,-0.3177,-0.4388,-0.4438,-0.4438,-0.4288,-0.3527,-0.2569,-0.1513,0.0887,0.041,-0.0102,-0.0597,-0.1201,-0.1645,-0.1768,-0.1779,-0.1617,-0.1241,0.0,0.0,0.0,0.0,0.0,0.0,0.0,0.0,0.0,0.0,0.1909,0.1809,0.1803,0.1803,0.1803,0.0,0.0,0.0,0.0,0.0,0.0,0.0,0.0,0.0,0.0027,0.0,0.0,0.0,0.0,0.0208,0.0415,0.0,0.1038,0.0965,0.0784,0.0584,0.0427,0.0194,0.0117,0.0,0.2033,0.3041,0.0,0.0,0.0,0.0,0.0,0.4338,0.4209,0.3999,0.3781,0.3512,0.0,0.0,0.0,0.1513,0.0,0.0,0.0,0.0,0.0,0.0,0.0,0.0,0.0,0.0,0.0,0.0,0.0,0.0,0.0,0.0,0.0,0.0,0.0,0.0,0.0,0.0,0.0,0.0,0.0,0.0,0.0,0.0,0.0,0.0,0.0,0.0,0.0,0.0,0.0,0.0,-0.0253,-0.0707,-0.0707,-0.1212,-0.2021,-0.227,-0.3177,-0.4438,-0.4636,-0.4585,-0.4338,-0.3729,-0.272,-0.1513,0.0685,0.0173,-0.0371,-0.0898,-0.1503,-0.1931,-0.2038,-0.1931,-0.1702,0.0,0.0,0.0,0.0,0.0,0.0,0.0,0.0,0.0,0.0,0.0,0.2164,0.1965,0.1946,0.1897,0.1802,0.1834,0.0,0.0,0.0,0.0,0.0,0.0,0.0,0.0,0.0,0.0,0.0,0.0,0.0088,0.0248,0.0359,0.0,0.0794,0.0754,0.064,0.0432,0.0353,0.0236,0.0274,0.1107,0.1939,0.0,0.0,0.4043,0.4403,0.0,0.4683,0.4529,0.0,0.0,0.3664,0.3348,0.0,0.0,0.0,0.0,0.0,0.0,0.0,0.0,0.0,0.0,0.0,0.0,0.0,0.0,0.0,0.0,0.0,0.0,0.0,0.0,0.0,0.0,0.0,0.0,0.0,0.0,0.0,0.0,0.0,0.0,0.0,0.0,0.0,0.0,0.0,0.0,0.0,0.0,0.0,0.0,-0.0303,-0.0808,-0.0808,-0.1263,-0.2022,-0.202,-0.2574,-0.3479,-0.3981,-0.4131,-0.3932,-0.3226,-0.242,-0.1513,0.0487,-0.0057,-0.0611,-0.1165,-0.172,-0.2118,-0.2166,-0.1985,-0.1658,0.0,0.0,0.0,0.0,0.0,0.0,0.0,0.0,0.0,0.0,0.0,0.0,0.2148,0.2138,0.2044,0.1848,0.1884,0.0,0.0,0.0,0.0,0.0,0.0,0.0,0.0,0.0,0.0,0.0,0.0,0.0,0.024,0.0,0.0368,0.0516,0.0538,0.0451,0.0314,0.0237,0.0276,0.0392,0.1119,0.0,0.2383,0.3528,0.4112,0.0,0.0,0.0,0.0,0.0,0.0,0.0,0.0,0.0,0.1973,0.0,0.0,0.0,0.0785,0.0,0.0,0.0,0.0,0.0,0.0,0.0,0.0,0.0,0.0,0.0,0.0,0.0,0.0,0.0,0.0,0.0,0.0,0.0,0.0,0.0,0.0,0.0,0.0,0.0,0.0,0.0,0.0,0.0,0.0,0.0,0.0,0.0,0.0,-0.0253,-0.0707,-0.0707,-0.1111,-0.1768,-0.1516,-0.1717,-0.217,-0.2975,-0.3275,-0.3226,-0.2521,-0.1917,-0.1362,0.0166,-0.0278,-0.0768,-0.1361,-0.1824,-0.2105,-0.2117,-0.2039,0.0,0.0,0.0,0.0,0.0,0.0,0.0,0.0,0.0,0.0,0.3087,0.0,0.0,0.2303,0.2272,0.2188,0.1978,0.1921,0.1849,0.0,0.0,0.0,0.0,0.0,0.0525,0.0273,0.0153,0.0,0.0,0.0,0.0025,0.0,0.0029,0.0256,0.0,0.04,0.0338,0.0276,0.008,0.016,0.0394,0.0,0.1698,0.2398,0.0,0.4282,0.0,0.0,0.0,0.0,0.0,0.0,0.0,0.0,0.219,0.0,0.0,0.0,0.0926,0.1038,0.0,0.0,0.0,0.0,0.0,0.0,0.0,0.0,0.0,0.0,0.0,0.0,0.0,0.0,0.0,0.0,0.0,0.0,0.0,0.0,0.0,0.0,0.0,0.0,0.0,0.0,0.0,0.0,0.0,0.0,0.0,0.0,0.0,0.0,-0.0152,-0.0455,-0.0455,-0.0657,-0.0909,-0.0909,-0.0909,-0.106,-0.1866,-0.2169,-0.2117,-0.1815,-0.1362,-0.0858,0.007,-0.0349,-0.0842,-0.141,-0.1776,-0.198,-0.1931,-0.1549,0.0,0.0,0.0,0.0,0.0,0.0,0.0,0.0,0.0,0.3513,0.0,0.0,0.0,0.2608,0.263,0.2443,0.2003,0.1931,0.1804,0.0,0.1514,0.0,0.0,0.0,0.072,0.0522,0.0319,0.0,0.0114,0.0,0.0,0.0,0.0,0.0,0.0,0.0146,0.0114,0.012,0.0041,0.0041,0.0245,0.0,0.158,0.0,0.0,0.0,0.0,0.0,0.0,0.0,0.0,0.0,0.0,0.0,0.0,0.0,0.1586,0.0,0.11,0.0,0.0,0.0,0.0,0.0,0.0,0.0,0.0,0.0,0.0,0.0,0.0,0.0,0.0,0.0,0.0,0.0,0.0,0.0,0.0,0.0,0.0,0.0,0.0,0.0,0.0,0.0,0.0,0.0,0.0,0.0,0.0,0.0,0.0,0.0,-0.0152,-0.0404,-0.0404,-0.0556,-0.0808,-0.0657,-0.0556,-0.0606,-0.0757,-0.1009,-0.1262,-0.1009,-0.0757,-0.0505,0.0,0.0,0.0,0.0,-0.1634,-0.1734,-0.1577,-0.1022,-0.0527,0.0,0.0,0.0,0.0855,0.1367,0.0,0.0,0.0,0.3438,0.0,0.0,0.363,0.2981,0.3011,0.0,0.0,0.0,0.0,0.1554,0.1536,0.0,0.0,0.0,0.0939,0.0745,0.0,0.0294,0.0198,0.0,0.0,0.0,0.0,0.0,0.0,0.0,0.0,0.0,0.0,0.0,0.0126,0.0956,0.1462,0.0,0.3534,0.0,0.0,0.0,0.0,0.0,0.505,0.0,0.0,0.0,0.0,0.0,0.0,0.0,0.0,0.0,0.0,0.0,0.0,0.0,0.0,0.0,0.0,0.0,0.0,0.0,0.0,0.0,0.0,0.0,0.0,0.0,0.0,0.0,0.0,0.0,0.0,0.0,0.0,0.0,0.0,0.0,0.0,0.0,0.0,0.0,0.0,0.0,0.0,0.0,-0.0101,-0.0303,-0.0303,-0.0404,-0.0556,-0.0354,-0.0303,-0.0253,-0.0101,-0.0253,-0.0556,-0.0354,-0.0303,-0.0253,-0.0123,-0.0564,0.0,0.0,0.0,-0.1374,-0.0981,-0.0641,-0.0368,0.0,0.0,0.0,0.0,0.0,0.0,0.0,0.0,0.3424,0.3679,0.0,0.3944,0.0,0.3379,0.3034,0.0,0.0,0.1835,0.1696,0.1634,0.0,0.0,0.0,0.0,0.0,0.0,0.0383,0.0187,0.0057,0.0,0.0,0.0,0.0,0.0,0.0,0.0,0.0,0.0,0.0,0.0,0.0775,0.139,0.0,0.0,0.0,0.0,0.0,0.0,0.0,0.0,0.0,0.0,0.3449,0.0,0.0,0.0,0.0,0.1777,0.0,0.0,0.0,0.0,0.0,0.0,0.0,0.0,0.0,0.0,0.0,0.0,0.0,0.0,0.0,0.0,0.0,0.0,0.0,0.0,0.0,0.0,0.0,0.0,0.0,0.0,0.0,0.0,0.0,0.0,0.0,0.0,0.0,0.0,0.0,0.0,0.0,0.0,0.0,0.0,0.0,0.0,0.0,0.0,0.0,0.0,0.0,0.0,0.0,0.0,0.0,0.0,0.0,0.0,-0.1034,-0.0637,-0.0408,0.0,0.0,0.0,0.0,0.0,0.0,0.1154,0.0,0.0,0.2881,0.3386,0.3795,0.0,0.0,0.0,0.2795,0.0,0.0,0.1355,0.1176,0.1321,0.0,0.0,0.0,0.0,0.0,0.0,0.0748,0.0,0.0,0.0,0.0,0.0,0.0347,0.0443,0.0,0.0,0.0,0.0,0.0,0.0,0.0784,0.1333,0.2031,0.3428,0.4385,0.5151,0.5885,0.6105,0.6069,0.0,0.0,0.4661,0.4392,0.0,0.0,0.0,0.0,0.0,0.0,0.0,0.0,0.0,0.0,0.0,0.0,0.0,0.0,0.0,0.0,0.0,0.0,0.0,0.0,0.0,0.0,0.0,0.0,0.0,0.0,0.0,0.0,0.0,0.0,0.0,0.0,0.0,0.0,0.0,0.0,0.0,0.0,0.0,0.0,0.0,0.0,0.0,0.0,0.0,0.0,0.0,0.0,0.0,0.0,0.0,0.0,0.0,0.0,-0.0373,0.0,0.0,0.0,0.0,0.0,0.0,0.0,0.0,0.0,0.0,0.0,0.0295,0.0,0.0714,0.0,0.1899,0.2577,0.3257,0.3806,0.0,0.3756,0.3389,0.0,0.0,0.0,0.1125,0.0908,0.0,0.1424,0.0,0.0,0.0,0.0,0.0,0.0,0.0,0.0,0.0134,0.0,0.0,0.0527,0.0,0.0,0.0127,0.0131,0.0,0.0,0.009,0.0618,0.123,0.1926,0.3164,0.4242,0.5165,0.588,0.6239,0.6373,0.6302,0.58,0.0,0.5151,0.4563,0.0,0.3488,0.0,0.0,0.0,0.0,0.0,0.0,0.0,0.0,0.0,0.0,0.0,0.0,0.0,0.0,0.0,0.0,0.0,0.0,0.0,0.0,0.0,0.0,0.0,0.0,0.0,0.0,0.0,0.0,0.0,0.0,0.0,0.0,0.0,0.0,0.0,0.0,0.0,0.0,0.0,0.0,0.0,0.0,0.0,0.0,0.0,0.0,0.0,0.0,0.0,0.0,0.0,0.0,0.0,0.0,0.0,-0.0691,0.0,0.0,0.0,0.0,0.0,0.0,0.0077,0.0284,0.0286,0.0535,0.1218,0.1816,0.0,0.3233,0.3997,0.0,0.0,0.362,0.3008,0.1896,0.0,0.0,0.0,0.0,0.0,0.0,0.0,0.0,0.0,0.1543,0.0,0.0706,0.0374,0.0136,0.0074,0.0317,0.0544,0.0696,0.0479,0.0436,0.0393,0.0089,0.0,0.0045,0.0314,0.1031,0.1877,0.2494,0.3819,0.5185,0.558,0.6047,0.6453,0.6593,0.6017,0.5463,0.5633,0.4917,0.0,0.0,0.0,0.2229,0.0,0.0,0.0,0.0,0.0,0.0,0.0,0.0,0.0,0.0,0.0,0.0,0.0,0.0,0.0,0.0,0.0,0.0,0.0,0.0,0.0,0.0,0.0,0.0,0.0,0.0,0.0,0.0,0.0,0.0,0.0,0.0,0.0,0.0,0.0,0.0,0.0,0.0,0.0,0.0,0.0,0.0,0.0,0.0,0.0,0.0,0.0,0.0,0.0,-0.0357,-0.0491,-0.0583,0.0,-0.0397,-0.0194,0.0,0.0,0.0,0.0,0.0,0.0,0.0083,0.0085,0.03,0.0819,0.1286,0.0,0.0,0.0,0.0,0.3565,0.2872,0.2129,0.1394,0.0836,0.0,0.0377,0.0,0.0,0.1522,0.0,0.0,0.0,0.0,0.0,0.1131,0.0731,0.0536,0.0516,0.0577,0.0849,0.0,0.0,0.0623,0.0579,0.0134,0.0,0.0045,0.0314,0.0897,0.1657,0.2582,0.3863,0.5142,0.5818,0.6418,0.6904,0.6771,0.6375,0.5931,0.5633,0.4845,0.3966,0.0,0.0,0.0,0.0,0.0,0.0,0.0,0.0,0.0,0.0,0.0,0.0,0.0,0.0,0.0,0.0,0.0,0.0,0.0,0.0,0.0,0.0,0.0,0.0,0.0,0.0,0.0,0.0,0.0,0.0,0.0,0.0,0.0,0.0,0.0,0.0,0.0,0.0,0.0,0.0,0.0,0.0,0.0,0.0,0.0,0.0,0.0,0.0,0.0,0.0,0.0,0.0,-0.0309,0.0,0.0,-0.0326,0.0,0.0,0.0,0.0,0.0,0.0,0.0,0.0,0.0,0.0,0.0177,0.0661,0.1102,0.0,0.0,0.0,0.0,0.3256,0.2452,0.1745,0.1108,0.0596,0.0,0.0205,0.0,0.0,0.1356,0.0,0.0,0.0,0.0,0.1914,0.0,0.0987,0.0747,0.0703,0.0712,0.0,0.0,0.0714,0.0583,0.0538,0.0135,0.0,0.0045,0.018,0.0763,0.1524,0.233,0.3714,0.5144,0.5722,0.6479,0.7051,0.6836,0.6383,0.5886,0.5406,0.4457,0.3497,0.2918,0.2134,0.1393,0.0,0.0595,0.0349,0.0,0.0,0.0,0.0,0.0,0.0,0.0,0.0,0.0,0.0,0.0,0.0,0.0,0.0,0.0,0.0,0.0,0.0,0.0,0.0,0.0,0.0,0.0,0.0,0.0,0.0,0.0,0.0,0.0,0.0,0.0,0.0,0.0,0.0,0.0,0.0,0.0,0.0,0.0,0.0,0.0,0.0,0.0,0.0,0.0,0.0,0.0,0.0,0.0,0.0,0.0,0.0,0.0,0.0,0.0,0.0,0.0,0.0,0.0,0.0,0.018,0.0628,0.0,0.1646,0.2487,0.2702,0.2809,0.2797,0.2112,0.1488,0.0948,0.0489,0.0,0.0,0.0,0.0,0.1223,0.0,0.0,0.0,0.0,0.0,0.0,0.1266,0.0966,0.0842,0.0758,0.0734,0.0718,0.0493,0.0403,0.0359,0.009,0.0,0.0,0.0,0.0629,0.148,0.2015,0.3489,0.5099,0.5542,0.634,0.701,0.6792,0.6166,0.5453,0.4919,0.384,0.2786,0.2343,0.1668,0.1056,0.0634,0.038,0.0208,0.004,0.0,0.0,0.0,0.0,0.0,0.0,0.0,0.0,0.0,0.0,0.0,0.0,0.0,0.0,0.0,0.0,0.0,0.0,0.0,0.0,0.0,0.0,0.0,0.0,0.0,0.0,0.0,0.0,0.0,0.0,0.0,0.0,0.0,0.0,0.0,0.0,0.0,0.0,0.0,0.0,0.0,0.0,0.0,0.0,0.0,0.0,0.0,0.0,0.0,0.0,0.0,0.0,0.0,0.0,0.0,0.0,0.0,0.0,0.0,0.0135,0.0448,0.0673,0.0,0.0,0.0,0.0,0.1685,0.1177,0.0804,0.0526,0.0193,0.0036,0.0,0.0175,0.0429,0.0822,0.0,0.0,0.0,0.0,0.0,0.2193,0.1906,0.0,0.1472,0.1094,0.0994,0.0987,0.0583,0.0403,0.0359,0.009,0.0,0.0,0.0,0.0629,0.148,0.2015,0.3489,0.5099,0.5542,0.6254,0.6748,0.6349,0.5544,0.465,0.376,0.2771,0.1909,0.1352,0.091,0.0519,0.0389,0.0213,0.0042,0.0,0.0,0.0,0.0,0.0,0.0,0.0,0.0,0.0,0.0,0.0,0.0,0.0,0.0,0.0,0.0,0.0,0.0,0.0,0.0,0.0,0.0,0.0,0.0,0.0,0.0,0.0,0.0,0.0,0.0,0.0,0.0,0.0,0.0,0.0,0.0,0.0,0.0,0.0,0.0,0.0,0.0,0.0,0.0,0.0,0.0,0.0,0.0,0.0,0.0,0.0,0.0,0.0,0.0,0.0,0.0,0.0,0.0,0.0,0.0,0.0093,0.0371,0.0509,0.0741,0.1204,0.1111,0.1106,0.1231,0.0813,0.0,0.0422,0.0121,0.0,0.0,0.0125,0.0311,0.0,0.0,0.0,0.0,0.0,0.2705,0.0,0.0,0.0,0.1767,0.1363,0.1003,0.0718,0.0314,0.018,0.018,0.0045,0.0,0.0,0.0,0.0539,0.1345,0.1837,0.3133,0.4518,0.501,0.568,0.6124,0.5677,0.4919,0.4071,0.309,0.2152,0.1297,0.0797,0.0442,0.0177,0.0133,0.0088,0.0,0.0,0.0,0.0,0.0,0.0,0.0,0.0,0.0,0.0,0.0,0.0,0.0,0.0,0.0,0.0,0.0,0.0,0.0,0.0,0.0,0.0,0.0,0.0,0.0,0.0,0.0,0.0,0.0,0.0,0.0,0.0,0.0,0.0,0.0,0.0,0.0,0.0,0.0,0.0,0.0,0.0,0.0,0.0,0.0,0.0,0.0,0.0,0.0,0.0,0.0,0.0,0.0,0.0,0.0,0.0,0.0,0.0,0.0,0.0,0.0,0.0095,0.0286,0.0334,0.0477,0.0858,0.0668,0.0663,0.0839,0.0512,0.032,0.0307,0.0126,0.0,0.0,0.01,0.024,0.0,0.0656,0.1076,0.1631,0.0,0.0,0.0,0.0,0.2867,0.2162,0.1682,0.11,0.0493,0.0135,0.0,0.0,0.0,0.0,0.0,0.0,0.0497,0.1166,0.157,0.2688,0.3939,0.4389,0.4924,0.5319,0.4875,0.416,0.3312,0.2463,0.1613,0.0852,0.0404,0.0135,0.0,0.0,0.0,0.0,0.0,0.0,0.0,0.0,0.0,0.0,0.0,0.0,0.0,0.0,0.0,0.0,0.0,0.0,0.0,0.0,0.0,0.0,0.0,0.0,0.0,0.0,0.0,0.0,0.0,0.0,0.0,0.0,0.0,0.0,0.0,0.0,0.0,0.0,0.0,0.0,0.0,0.0,0.0,0.0,0.0,0.0,0.0,0.0,0.0,0.0,0.0,0.0,0.0,0.0,0.0,0.0,0.0,0.0,0.0,0.0,0.0,0.0,0.0,0.0,0.0,0.0048,0.0048,0.0048,0.0095,0.0095,0.0095,0.0095,0.0048,0.0047,0.0045,0.0,0.0,0.0,0.0,0.0096,0.0,0.0367,0.0944,0.1906,0.2655,0.0,0.0,0.3716,0.3507,0.316,0.2083,0.1408,0.0942,0.0269,0.0,0.0,0.0,0.0,0.0,0.0,0.0509,0.1121,0.1345,0.2463,0.3669,0.3894,0.4208,0.4387,0.4072,0.3178,0.2239,0.1658,0.0987,0.0404,0.009,0.0,0.0,0.0,0.0,0.0,0.0,0.0,0.0,0.0,0.0,0.0,0.0,0.0,0.0,0.0,0.0,0.0,0.0,0.0,0.0,0.0,0.0,0.0,0.0,0.0,0.0,0.0,0.0,0.0,0.0,0.0,0.0,0.0,0.0,0.0,0.0,0.0,0.0,0.0,0.0,0.0,0.0,0.0,0.0,0.0,0.0,0.0,0.0,0.0,0.0,0.0,0.0,0.0,0.0,0.0,0.0,0.0,0.0,0.0,0.0,0.0,0.0,0.0,0.0,0.0,0.0,0.0,0.0,0.0,0.0,0.0,0.0,0.0,0.0,0.0,0.0,0.0,0.0,0.0,0.0,0.0,0.0,0.0223,0.0746,0.1645,0.2312,0.3057,0.3718,0.3982,0.3832,0.3432,0.2606,0.194,0.1303,0.0559,0.0234,0.0236,0.0047,0.0,0.0,0.0,0.0283,0.0698,0.0931,0.1582,0.2319,0.2566,0.283,0.3002,0.2697,0.2195,0.1613,0.1121,0.0673,0.0314,0.0045,0.0,0.0,0.0,0.0,0.0,0.0,0.0,0.0,0.0,0.0,0.0,0.0,0.0,0.0,0.0,0.0,0.0,0.0,0.0,0.0,0.0,0.0,0.0,0.0,0.0,0.0,0.0,0.0,0.0,0.0,0.0,0.0,0.0,0.0,0.0,0.0,0.0,0.0,0.0,0.0,0.0,0.0,0.0,0.0,0.0,0.0,0.0,0.0,0.0,0.0,0.0,0.0,0.0,0.0,0.0,0.0,0.0,0.0,0.0,0.0,0.0,0.0,0.0,0.0,0.0,0.0,0.0,0.0,0.0,0.0,0.0,0.0,0.0,0.0,0.0,0.0,0.0,0.0,0.0,0.0,0.0,0.0,0.0143,0.0581,0.1184,0.1869,0.2573,0.3293,0.3794,0.3798,0.3505,0.2937,0.2287,0.1622,0.0811,0.0479,0.0385,0.0096,0.0,0.0,0.0,0.0145,0.0339,0.0526,0.0954,0.1331,0.1547,0.1727,0.1813,0.1651,0.1364,0.1041,0.0679,0.0451,0.0224,0.0045,0.0,0.0,0.0,0.0,0.0,0.0,0.0,0.0,0.0,0.0,0.0,0.0,0.0,0.0,0.0,0.0,0.0272,0.0,0.0,0.0,0.0,0.0,0.0,0.0,0.0,0.0,0.0,0.0,0.0,0.0,0.0,0.0,0.0,0.0,0.0,0.0,0.0,0.0,0.0,0.0,0.0,0.0,0.0,0.0,0.0,0.0,0.0,0.0,0.0,0.0,0.0,0.0,0.0,0.0,0.0,0.0,0.0,0.0,0.0,0.0,0.0,0.0,0.0,0.0,0.0,0.0,0.0,0.0,0.0,0.0,0.0,0.0,0.0,0.0,0.0,0.0,0.0,0.0,0.0,0.0,0.0,0.0,0.0198,0.0402,0.0631,0.129,0.1954,0.2538,0.3003,0.3273,0.3382,0.2905,0.2383,0.1812,0.1097,0.0627,0.0343,0.0098,0.0,0.0,0.0,0.0,0.005,0.0338,0.0715,0.1097,0.1097,0.1096,0.1096,0.1096,0.0751,0.0416,0.0416,0.0182,0.0,0.0,0.0,0.0,0.0,0.0,0.0,0.0,0.0,0.0,0.0,0.0,0.0,0.0,0.0,0.0,0.0,0.0387,0.0315,0.0296,0.0,0.0,0.0,0.0,0.0,0.0,0.0,0.0,0.0,0.0,0.0,0.0,0.0,0.0,0.0,0.0,0.0,0.0,0.0,0.0,0.0,0.0,0.0,0.0,0.0,0.0,0.0,0.0,0.0,0.0,0.0,0.0,0.0,0.0,0.0,0.0,0.0,0.0,0.0,0.0,0.0,0.0,0.0,0.0,0.0,0.0,0.0,0.0,0.0,0.0,0.0,0.0,0.0,0.0,0.0,0.0,0.0,0.0,0.0,0.0,0.0,0.0,0.0,0.0,0.0044,0.0222,0.0495,0.0826,0.1316,0.1925,0.2406,0.2727,0.2974,0.2824,0.2578,0.2132,0.1389,0.0896,0.0601,0.015,0.0,0.0,0.0,0.0,0.0,0.01,0.0248,0.0346,0.0342,0.034,0.0339,0.0335,0.0237,0.0142,0.0142,0.0047,0.0,0.0,0.0,0.0,0.0,0.0,0.0,0.0,0.0,0.0,0.0,0.016,0.0,0.0,0.0,0.0,0.0,0.0,0.0445,0.0,0.0304,0.0,0.0,0.0,0.0,0.0,0.0,0.0,0.0,-0.0269,0.0,-0.0527,-0.0546,-0.0471,-0.0292,-0.0249,-0.0202,0.0,0.0,0.0,0.0,0.0,0.0,0.0,0.0,0.0,0.0,0.0,0.0,0.0,0.0,0.0,0.0,0.0,0.0,0.0,0.0,0.0,0.0,0.0,0.0,0.0,0.0,0.0,0.0,0.0,0.0,0.0,0.0,0.0,0.0,0.0,0.0,0.0,0.0,0.0,0.0,0.0,0.0,0.0,0.0,0.0,0.0,0.0,0.0,0.0095,0.0237,0.0483,0.0785,0.119,0.1686,0.2047,0.2373,0.2472,0.2423,0.217,0.1465,0.101,0.0707,0.0202,0.0,0.0,0.0,0.0,0.0,0.0,0.0,0.0,0.0,0.0,0.0,0.0,0.0,0.0,0.0,0.0,0.0,0.0,0.0,0.0,0.0,0.0,0.0,0.0,0.0,0.0,0.0,0.0238,0.045,0.0475,0.0,0.0,0.0,0.0,0.0,0.0,0.0363,0.0332,0.0,0.0,0.0,0.0,0.0,-0.011,-0.0383,-0.0686,-0.0977,-0.121,-0.1255,-0.1101,-0.0834,-0.055,-0.0303,-0.0152,-0.0051,0.0,0.0,0.0,0.0,0.0,0.0,0.0,0.0,0.0,0.0,0.0,0.0,0.0,0.0,0.0,0.0,0.0,0.0,0.0,0.0,0.0,0.0,0.0,0.0,0.0,0.0,0.0,0.0,0.0,0.0,0.0,0.0,0.0,0.0,0.0,0.0,0.0,0.0,0.0,0.0,0.0,0.0,0.0,0.0,0.0,0.0,0.0,0.0,0.0251,0.0354,0.0404,0.0909,0.1313,0.1566,0.1817,0.1969,0.187,0.1364,0.101,0.0707,0.0202,0.0,0.0,0.0,0.0,0.0,0.0,0.0,0.0,0.0,0.0,0.0,0.0,0.0,0.0,0.0,0.0,0.0,0.0,0.0,0.0,0.0,0.0,0.0,0.0,0.0,0.0,0.0,0.0318,0.0563,0.0513,0.0,0.0,0.0,0.0,0.0,0.0328,0.0329,0.044,0.0,0.0,0.0,0.0,0.0,-0.0119,-0.0436,-0.1248,-0.1753,-0.2032,-0.21,-0.1962,-0.167,-0.0851,-0.0455,-0.0404,-0.0152,0.0,0.0,0.0,0.0,0.0,0.0,0.0,0.0,0.0,0.0,-0.0051,-0.0051,-0.0051,-0.0101,0.0,0.0,0.0,0.0,0.0,0.0,0.0,0.0,0.0,0.0,0.0,0.0,0.0,0.0,0.0,0.0,0.0,0.0,0.0,0.0,0.0,0.0,0.0,0.0,0.0,0.0,0.0,0.0,0.0,0.0,0.0,0.0,0.0,0.0,0.005,0.0101,0.0101,0.0455,0.0758,0.101,0.1262,0.1364,0.1364,0.101,0.0707,0.0455,0.0101,0.0,0.0,0.0,0.0,0.0,0.0,0.0,0.0,0.0,0.0,0.0,0.0,0.0,0.0,0.0,0.0,0.0,0.0,0.0,0.0,0.0,0.0,0.0,0.0,0.0,0.0,0.0,0.0199,0.0378,0.0338,0.0551,0.0,0.0,0.0441,0.0336,0.03,0.0611,0.0933,0.0,0.0,0.0,0.1859,0.0769,-0.0218,-0.1001,-0.1729,-0.2474,-0.3215,-0.3406,-0.3209,-0.2505,-0.1711,-0.111,-0.0707,-0.0404,-0.0202,0.0,0.0,0.0,0.0,0.0,0.0,0.0,0.0,-0.0101,-0.0303,-0.0303,-0.0556,-0.0909,0.0,0.0,0.0,0.0,0.0,0.0,0.0,0.0,0.0,0.0,0.0,0.0,0.0,0.0,0.0,0.0,0.0,0.0,0.0,0.0,0.0,0.0,0.0,0.0,0.0,0.0,0.0,0.0,0.0,0.0,0.0,0.0,0.0,0.0,0.0,0.0,0.0,0.0152,0.0354,0.0606,0.0758,0.0909,0.101,0.0707,0.0505,0.0354,0.0101,0.0,0.0,0.0,0.0,0.0,0.0,0.0,0.0,0.0,0.0,0.0,0.0,0.0,0.0,0.0,0.0,0.0,0.0,0.0,0.0,0.0,0.0,0.0,0.0,0.0,0.0,0.0,0.0159,0.0303,0.0303,0.0444,0.0515,0.0414,0.0344,0.0272,0.0159,0.0604,0.1019,0.1319,0.1898,0.0,0.2119,0.0886,-0.0314,-0.1389,-0.2623,-0.3649,-0.4452,-0.4542,-0.4139,-0.3328,-0.2421,-0.1615,-0.096,-0.0556,-0.0253,0.0,0.0,0.0,0.0,0.0,0.0,0.0,0.0,-0.0152,-0.0404,-0.0556,-0.0909,-0.1413,0.0,0.0,0.0,0.0,0.0,0.0,0.0,0.0,0.0,0.0,0.0,0.0,0.0,0.0,0.0,0.0,0.0,0.0,0.0,0.0,0.0,0.0,0.0,0.0,0.0,0.0,0.0,0.0,0.0,0.0,0.0,0.0,0.0,0.0,0.0,0.0,0.0,0.0,0.0152,0.0354,0.0354,0.0455,0.0657,0.0404,0.0354,0.0303,0.0101,0.0,0.0,0.0,0.0,0.0,0.0,0.0,0.0,0.0,0.0,0.0,0.0,0.0,0.0,0.0,0.0,0.0,0.0,0.0,0.0,0.0,0.0,0.0,0.0,0.0,0.0,0.0,0.0159,0.0267,0.0268,0.0,0.0376,0.0276,0.0239,0.0203,0.0,0.0468,0.094,0.128,0.1797,0.2092,0.2035,0.0863,-0.0454,-0.1815,-0.3575,-0.485,-0.5696,-0.544,-0.4933,-0.4083,-0.3025,-0.2069,-0.1263,-0.0707,-0.0303,0.0,0.0,0.0,0.0,0.0,0.0,0.0,0.0,-0.0202,-0.0556,-0.0808,-0.1363,-0.2017,0.0,0.0,0.0,0.0,0.0,0.0,0.0,0.0,0.0,0.0,0.0,0.0,0.0,0.0,0.0,0.0,0.0,0.0,0.0,0.0,0.0,0.0,0.0,0.0,0.0,0.0,0.0,0.0,0.0,0.0,0.0,0.0,0.0,0.0,0.0,0.0,0.0,0.0,0.0,0.0051,0.0051,0.0101,0.0101,0.0101,0.0051,0.0051,0.0,0.0,0.0,0.0,0.0,0.0,0.0,0.0,0.0,0.0,0.0,0.0,0.0,0.0,0.0,0.0,0.0,0.0,0.0,0.0,0.0,0.0,0.0,0.0,0.0,0.0,0.0,0.0,0.004,0.0039,0.004,0.0,0.0079,0.0041,0.0042,0.0043,0.0,0.0626,0.114,0.1459,0.2131,0.2298,0.189,0.0623,-0.087,-0.2656,-0.4042,-0.5326,-0.6562,-0.6132,-0.5489,-0.4684,-0.358,-0.2523,-0.1513,-0.0959,-0.0455,0.0,0.0,0.0,0.0,0.0,0.0,0.0,0.0,-0.0455,-0.1111,-0.1363,-0.2369,-0.3679,0.0,0.0,0.0,0.0,0.0,0.0,0.0,0.0,0.0,0.0,0.0,0.0,0.0,0.0,0.0,0.0,0.0,0.0,0.0,0.0,0.0,0.0,0.0,0.0,0.0,0.0,0.0,0.0,0.0,0.0,0.0,0.0,0.0,0.0,0.0,0.0,0.0,0.0,0.0,0.0,0.0,0.0,0.0,0.0,0.0,0.0,0.0,0.0,0.0,0.0,0.0,0.0,0.0,0.0,0.0,0.0,0.0,0.0,0.0,0.0,0.0,0.0,0.0,0.0,0.0,0.0,0.0,0.0,0.0,0.0,0.0,0.0,0.0,0.0,0.0,0.0,0.0,0.0,0.0,0.0,0.0,0.0,0.0,0.0419,0.0799,0.1034,0.1517,0.1676,0.1453,0.0342,-0.0985,-0.2387,-0.467,-0.6234,-0.6989,-0.6342,-0.5539,-0.4582,-0.3479,-0.2423,-0.1363,-0.0808,-0.0354,0.0,0.0,0.0,0.0,0.0,0.0,0.0,0.0,-0.0505,-0.1263,-0.1665,-0.2821,-0.428,0.0,0.0,0.0,0.0,0.0,0.0,0.0,0.0,0.0,0.0,0.0,0.0,0.0,0.0,0.0,0.0,0.0,0.0,0.0,0.0,0.0,0.0,0.0,0.0,0.0,0.0,0.0,0.0,0.0,0.0,0.0,0.0,0.0,0.0,0.0,0.0,0.0,0.0,0.0,0.0,0.0,0.0,0.0,0.0,0.0,0.0,0.0,0.0,0.0,0.0,0.0,0.0,0.0,0.0,0.0,0.0,0.0,0.0,0.0,0.0,0.0,0.0,0.0,0.0,0.0,0.0,0.0,0.0,0.0,0.0,0.0,0.0,0.0,0.0,0.0,0.0,0.0,0.0,0.0,0.0,0.0,0.0,0.0,0.0239,0.048,0.0624,0.0868,0.1022,0.0938,0.0,-0.1144,-0.242,-0.5083,-0.6639,-0.6836,-0.6089,-0.5186,-0.4128,-0.3075,-0.207,-0.1111,-0.0606,-0.0253,0.0,0.0,0.0,0.0,0.0,0.0,0.0,0.0,-0.0505,-0.1363,-0.1917,-0.3173,-0.478,0.0,0.0,0.0,0.0,0.0,0.0,0.0,0.0,0.0,0.0,0.0,0.0,0.0,0.0,0.0,0.0,0.0,0.0,0.0,0.0,0.0,0.0,0.0,0.0,0.0,0.0,0.0,0.0,0.0,0.0,0.0,0.0,0.0,0.0,0.0,0.0,0.0,0.0,0.0,0.0,0.0,0.0,0.0,0.0,0.0,0.0,0.0,0.0,0.0,0.0,0.0,0.0,0.0,0.0,0.0,0.0,0.0,0.0,0.0,0.0,0.0,0.0,0.0,0.0,0.0,0.0,0.0,0.0,0.0,0.0,0.0,0.0,0.0,0.0,0.0,0.0,0.0,0.0,0.0,0.0,0.0,0.0,0.0,0.0242,0.0392,0.0441,0.0648,0.0705,0.0454,-0.0353,-0.1713,-0.3781,-0.5035,-0.5687,-0.5737,-0.5186,-0.4331,-0.3274,-0.247,-0.1615,-0.0808,-0.0556,-0.0253,0.0,0.0,0.0,0.0,0.0,0.0,0.0,0.0,-0.0656,-0.1613,-0.2169,-0.3728,-0.5584,0.0,0.0,0.0,0.0,0.0,0.0,0.0,0.0,0.0,0.0,0.0,0.0,0.0,0.0,0.0,0.0,0.0,0.0,0.0,0.0,0.0,0.0,0.0,0.0,0.0,0.0,0.0,0.0,0.0,0.0,0.0,0.0,0.0,0.0,0.0,0.0,0.0,0.0,0.0,0.0,0.0,0.0,0.0,0.0,0.0,0.0,0.0,0.0,0.0,0.0,0.0,0.0,0.0,0.0,0.0,0.0,0.0,0.0,0.0,0.0,0.0,0.0,0.0,0.0,0.0,0.0,0.0,0.0,0.0,0.0,0.0,0.0,0.0,0.0,0.0,0.0,0.0,0.0,0.0,0.0,0.0,0.0,0.0,0.0099,0.015,0.015,0.0252,0.0253,0.0152,-0.0455,-0.1312,-0.247,-0.3073,-0.3827,-0.483,-0.3981,-0.3176,-0.247,-0.1665,-0.101,-0.0556,-0.0253,-0.0101,0.0,0.0,0.0,0.0,0.0,0.0,0.0,-0.0202,-0.0808,-0.1714,-0.2571,-0.4028,-0.5687,0.0,0.0,0.0,0.0,0.0,0.0,0.0,0.0,0.0,0.0,0.0,0.0,0.0,0.0,0.0,0.0,0.0,0.0,0.0,0.0,0.0,0.0,0.0,0.0,0.0,0.0,0.0,0.0,0.0,0.0,0.0,0.0,0.0,0.0,0.0,0.0,0.0,0.0,0.0,0.0,0.0,0.0,0.0,0.0,0.0,0.0,0.0,0.0,0.0,0.0,0.0,0.0,0.0,0.0,0.0,0.0,0.0,0.0,0.0,0.0,0.0,0.0,0.0,0.0,0.0,0.0,0.0,0.0,0.0,0.0,0.0,0.0,0.0,0.0,0.0,0.0,0.0,0.0,0.0,0.0,0.0,0.0,0.0,0.0,0.0,0.0,0.0,-0.0051,-0.0101,-0.0455,-0.0909,-0.1463,-0.1564,-0.2219,-0.3376,-0.2773,-0.217,-0.1614,-0.106,-0.0657,-0.0404,-0.0303,-0.0202,-0.0101,-0.0101,-0.0101,0.0,0.0,0.0,-0.0051,-0.0303,-0.0959,-0.1865,-0.2821,-0.4279,-0.5837,0.0,0.0,0.0,0.0,0.0,0.0,0.0,0.0,0.0,0.0,0.0,0.0,0.0,0.0,0.0,0.0,0.0,0.0,0.0,0.0,0.0,0.0,0.0,0.0,0.0,0.0,0.0,0.0,0.0,0.0,0.0,0.0,0.0,0.0,0.0,0.0,0.0,0.0,0.0,0.0,0.0,0.0,0.0,0.0,0.0,0.0,0.0,0.0,0.0,0.0,0.0,0.0,0.0,0.0,0.0,0.0,0.0,0.0,0.0,0.0,0.0,0.0,0.0,0.0,0.0,0.0,0.0,0.0,0.0,0.0,0.0,0.0,0.0,0.0,0.0,0.0,0.0,0.0,0.0,0.0,0.0,0.0,0.0,0.0,0.0,0.0,0.0,-0.0101,-0.0404,-0.0404,-0.0657,-0.1162,-0.0909,-0.0909,-0.1212,-0.1463,-0.1312,-0.0808,-0.0808,-0.0657,-0.0404,-0.0657,-0.0657,-0.0404,-0.0404,-0.0253,0.0,0.0,0.0,-0.0051,-0.0303,-0.106,-0.2117,-0.2922,-0.4381,-0.6092,0.0,0.0,0.0,0.0,0.0,0.0,0.0,0.0,0.0,0.0,0.0,0.0,0.0,0.0,0.0,0.0,0.0,0.0,0.0,0.0,0.0,0.0,0.0,0.0,0.0,0.0,0.0,0.0,0.0,0.0,0.0,0.0,0.0,0.0,0.0,0.0,0.0,0.0,0.0,0.0,0.0,0.0,0.0,0.0,0.0,0.0,0.0,0.0,0.0,0.0,0.0,0.0,0.0,0.0,0.0,0.0,0.0,0.0,0.0,0.0,0.0,0.0,0.0,0.0,0.0,0.0,0.0,0.0,0.0,0.0,0.0,0.0,0.0,0.0,0.0,0.0,0.0,0.0,0.0,0.0,0.0,0.0,0.0,0.0,0.0,0.0,0.0,-0.0051,-0.0101,-0.0101,-0.0202,-0.0354,-0.0303,-0.0354,-0.0657,-0.0707,-0.0757,-0.0808,-0.0808,-0.0859,-0.096,-0.1061,-0.0909,-0.0657,-0.0505,-0.0253,0.0,0.0,0.0,-0.0051,-0.0505,-0.1211,-0.2168,-0.3325,-0.4736,-0.6092,0.0,0.0,0.0,0.0,0.0,0.0,0.0,0.0,0.0,0.0,0.0,0.0,0.0,0.0,0.0,0.0,0.0,0.0,0.0,0.0,0.0,0.0,0.0,0.0,0.0,0.0,0.0,0.0,0.0,0.0,0.0,0.0,0.0,0.0,0.0,0.0,0.0,0.0,0.0,0.0,0.0,0.0,0.0,0.0,0.0,0.0,0.0,0.0,0.0,0.0,0.0,0.0,0.0,0.0,0.0,0.0,0.0,0.0,0.0,0.0,0.0,0.0,0.0,0.0,0.0,0.0,0.0,0.0,0.0,0.0,0.0,0.0,0.0,0.0,0.0,0.0,0.0,0.0,0.0,0.0,0.0,0.0,0.0,0.0,0.0,0.0,0.0,0.0,0.0,0.0,0.0,0.0,0.0,-0.0152,-0.0404,-0.0505,-0.0707,-0.096,-0.1161,-0.1363,-0.1515,-0.1615,-0.1414,-0.096,-0.0657,-0.0354,0.0,0.0,0.0,-0.0051,-0.0606,-0.1312,-0.2168,-0.3377,-0.4684,-0.5939,0.0,0.0,0.0,0.0,0.0,0.0,0.0,0.0,0.0,0.0,0.0,0.0,0.0,0.0,0.0,0.0,0.0,0.0,0.0,0.0,0.0,0.0,0.0,0.0,0.0,0.0,0.0,0.0,0.0,0.0,0.0,0.0,0.0,0.0,0.0,0.0,0.0,0.0,0.0,0.0,0.0,0.0,0.0,0.0,0.0,0.0,0.0,0.0,0.0,0.0,0.0,0.0,0.0,0.0,0.0,0.0,0.0,0.0,0.0,0.0,0.0,0.0,0.0,0.0,0.0,0.0,0.0,0.0,0.0,0.0,0.0,0.0,0.0,0.0,0.0,0.0,0.0,0.0,0.0,0.0,0.0,0.0,0.0,0.0,0.0,0.0,0.0,0.0,0.0,0.0,0.0,0.0,0.0,-0.0152,-0.0455,-0.0707,-0.101,-0.1263,-0.1817,-0.2068,-0.2118,-0.232,-0.2018,-0.1212,-0.0909,-0.0505,0.0,0.0,0.0,-0.0051,-0.0556,-0.1262,-0.2067,-0.3124,-0.4381,-0.5687,0.0,0.0,0.0,0.0,0.0,0.0,0.0,0.0,0.0,0.0,0.0,0.0,0.0,0.0,0.0,0.0,0.0,0.0,0.0,0.0,0.0,0.0,0.0,0.0,0.0,0.0,0.0,0.0,0.0,0.0,0.0,0.0,0.0,0.0,0.0,0.0,0.0,0.0,0.0,0.0,0.0,0.0,0.0,0.0,0.0,0.0,0.0,0.0,0.0,0.0,0.0,0.0,0.0,0.0,0.0,0.0,0.0,0.0,0.0,0.0,0.0,0.0,0.0,0.0,0.0,0.0,0.0,0.0,0.0,0.0,0.0,0.0,0.0,0.0,0.0,0.0,0.0,0.0,0.0,0.0,0.0,0.0,0.0,0.0,0.0,0.0,0.0,0.0,0.0,0.0,0.0,0.0,0.0,-0.0253,-0.0707,-0.1211,-0.1564,-0.1816,-0.2371,-0.2725,-0.2927,-0.2775,-0.227,-0.1463,-0.101,-0.0505,0.0,0.0,0.0,-0.0051,-0.0354,-0.0959,-0.1815,-0.2672,-0.3979,-0.5482,0.0,0.0,0.0,0.0,0.0,0.0,0.0,0.0,0.0,0.0,0.0,0.0,0.0,0.0,0.0,0.0,0.0,0.0,0.0,0.0,0.0,0.0,0.0,0.0,0.0,0.0,0.0,0.0,0.0,0.0,0.0,0.0,0.0,0.0,0.0,0.0,0.0,0.0,0.0,0.0,0.0,0.0,0.0,0.0,0.0,0.0,0.0,0.0,0.0,0.0,0.0,0.0,0.0,0.0,0.0,0.0,0.0,0.0,0.0,0.0,0.0,0.0,0.0,0.0,0.0,0.0,0.0,0.0,0.0,0.0,0.0,0.0,0.0,0.0,0.0,0.0,0.0,0.0,0.0,0.0,0.0,0.0,0.0,0.0,0.0,0.0,0.0,0.0,0.0,0.0,0.0,0.0,0.0,-0.0253,-0.0808,-0.1312,-0.1865,-0.2371,-0.2925,-0.3179,-0.318,-0.2775,-0.217,-0.1363,-0.0858,-0.0354,0.0,0.0,0.0,-0.0051,-0.0303,-0.0757,-0.1312,-0.2118,-0.3527,-0.5133,0.0,0.0,0.0,0.0,0.0,0.0,0.0,0.0,0.0,0.0,0.0,0.0,0.0,0.0,0.0,0.0,0.0,0.0,0.0,0.0,0.0,0.0,0.0,0.0,0.0,0.0,0.0,0.0,0.0,0.0,0.0,0.0,0.0,0.0,0.0,0.0,0.0,0.0,0.0,0.0,0.0,0.0,0.0,0.0,0.0,0.0,0.0,0.0,0.0,0.0,0.0,0.0,0.0,0.0,0.0,0.0,0.0,0.0,0.0,0.0,0.0,0.0,0.0,0.0,0.0,0.0,0.0,0.0,0.0,0.0,0.0,0.0,0.0,0.0,0.0,0.0,0.0,0.0,0.0,0.0,0.0,0.0,0.0,0.0,0.0,0.0,0.0,0.0,0.0,0.0,0.0,0.0,0.0,-0.0253,-0.0707,-0.1312,-0.1967,-0.2674,-0.3226,-0.3328,-0.313,-0.2573,-0.1917,-0.1111,-0.0606,-0.0253,0.0,0.0,-0.0051,-0.0101,-0.0303,-0.0606,-0.096,-0.1816,-0.3175,-0.4583,0.0,0.0,0.0,0.0,0.0,0.0,0.0,0.0,0.0,0.0,0.0,0.0,0.0,0.0,0.0,0.0,0.0,0.0,0.0,0.0,0.0,0.0,0.0,0.0,0.0,0.0,0.0,0.0,0.0,0.0,0.0,0.0,0.0,0.0,0.0,0.0,0.0,0.0,0.0,0.0,0.0,0.0,0.0,0.0,0.0,0.0,0.0,0.0,0.0,0.0,0.0,0.0,0.0,0.0,0.0,0.0,0.0,0.0,0.0,0.0,0.0,0.0,0.0,0.0,0.0,0.0,0.0,0.0,0.0,0.0,0.0,0.0,0.0,0.0,0.0,0.0,0.0,0.0,0.0,0.0,0.0,0.0,0.0,0.0,0.0,0.0,0.0,0.0,0.0,0.0,0.0,0.0,0.0,-0.0152,-0.0455,-0.1211,-0.1765,-0.2118,-0.2674,-0.2876,-0.2826,-0.232,-0.1615,-0.0859,-0.0556,-0.0253,0.0,0.0,-0.0152,-0.0354,-0.0404,-0.0707,-0.1263,-0.2321,-0.2975,-0.3476,0.0,0.0,0.0,0.0,0.0,0.0,0.0,0.0,0.0,0.0,0.0,0.0,0.0,0.0,0.0,0.0,0.0,0.0,0.0,0.0,0.0,0.0,0.0,0.0,0.0,0.0,0.0,0.0,0.0,0.0,0.0,0.0,0.0,0.0,0.0,0.0,0.0,0.0,0.0,0.0,0.0,0.0,0.0,0.0,0.0,0.0,0.0,0.0,0.0,0.0,0.0,0.0,0.0,0.0,0.0,0.0,0.0,0.0,0.0,-0.0112,-0.0224,-0.0224,-0.0336,-0.0504,-0.05,-0.0331,-0.0164,-0.0054,0.0,0.0,0.0,0.0,0.0,0.0,0.0,0.0,0.0,0.0,0.0,0.0,0.0,0.0,0.0,0.0,0.0,0.0,0.0,0.0,0.0,0.0,0.0,0.0,0.0,-0.0152,-0.0404,-0.0908,-0.1312,-0.1565,-0.1817,-0.207,-0.232,-0.1817,-0.1212,-0.0556,-0.0303,-0.0101,0.0,0.0,-0.0152,-0.0404,-0.0404,-0.0707,-0.1263,-0.1717,-0.217,-0.252]}]]